GFSSW_925_thetae_000.txt.gz
Theta_e
305 304 304 305 306 307 308 308 308 309 308 309 316 312 320 320 320 320 321 321 320 322 324 324 325 327 334 334 340 341 347 349 347 345 345 337 346 348 348 357 352 351 353 354 352
305 304 304 304 305 306 306 307 307 308 308 309 316 312 315 317 319 322 321 321 321 321 325 325 323 325 327 332 334 342 345 346 343 344 344 340 343 346 352 354 354 354 352 354 354
304 304 304 304 304 304 305 306 307 307 308 309 317 313 312 315 326 323 324 324 321 323 324 322 322 324 326 327 331 339 343 343 342 344 345 347 349 348 352 356 353 353 352 355 355
302 303 304 304 304 304 305 305 306 306 307 309 317 313 311 319 315 326 325 325 322 325 324 323 324 328 329 329 331 343 341 343 342 346 343 346 343 341 349 351 350 349 351 353 353
302 302 303 304 304 304 304 305 306 306 306 308 316 311 317 324 320 320 321 322 322 323 323 322 326 330 330 329 330 339 342 342 343 340 341 342 342 347 351 349 347 347 349 350 352
302 302 302 303 304 304 304 305 305 306 307 308 315 310 319 316 318 320 323 324 323 323 321 321 325 328 327 326 329 340 343 343 342 341 342 341 342 342 352 349 348 348 348 347 348
302 302 302 303 304 304 305 305 306 307 308 311 313 318 324 316 321 324 325 324 324 323 319 322 324 326 325 325 328 339 342 339 343 343 347 348 351 349 349 349 350 349 348 348 347
302 302 302 303 303 304 304 306 306 308 311 316 312 323 319 322 327 321 321 323 322 323 322 321 324 325 324 325 327 333 333 336 340 344 345 346 356 348 349 349 350 350 349 349 347
302 302 302 302 303 304 305 306 308 316 322 314 321 324 326 329 329 325 324 323 321 322 322 322 323 322 325 328 325 329 333 338 339 340 345 347 353 348 344 346 348 349 349 348 346
303 302 302 302 303 303 305 307 312 326 321 325 326 325 323 330 331 328 326 326 319 319 320 320 320 327 325 324 327 332 336 338 339 337 341 349 350 349 347 346 347 347 347 347 347
303 303 302 302 302 303 305 308 313 321 330 328 326 326 326 327 331 326 327 324 320 318 318 320 322 324 328 326 327 330 336 339 338 334 349 350 351 351 349 349 350 349 349 349 347
303 303 303 302 303 303 309 310 313 318 319 323 328 328 328 328 332 328 325 324 318 317 319 320 323 326 329 330 328 328 333 339 339 335 337 350 353 350 350 351 351 351 351 351 351
304 303 303 302 303 313 308 312 315 315 319 321 322 324 324 325 329 328 321 322 319 319 321 320 323 329 331 331 331 327 336 336 339 339 339 349 351 349 350 349 348 349 351 349 352
304 304 303 302 308 306 309 313 315 314 319 322 323 323 325 326 326 327 323 323 319 319 320 321 323 328 332 332 329 325 327 337 340 341 344 342 353 346 348 346 344 347 348 349 350
304 303 303 304 305 310 309 312 310 318 330 327 326 326 323 324 325 322 323 320 321 320 319 321 324 325 328 330 326 326 325 326 341 340 338 344 346 348 341 340 340 345 348 348 347
304 303 305 305 306 305 308 306 316 321 330 330 325 324 324 324 325 323 322 320 321 321 321 321 325 325 327 328 326 327 327 323 326 327 336 340 338 342 345 343 340 340 348 347 347
303 302 305 306 307 309 309 310 320 324 324 327 322 324 322 324 325 324 321 320 320 320 321 323 324 325 326 325 324 326 321 323 325 325 326 323 341 339 343 342 338 339 347 346 346
303 303 305 306 306 307 308 311 325 325 322 322 323 323 324 324 324 326 321 320 318 320 319 321 323 325 324 323 323 322 321 324 329 333 329 326 329 329 341 341 338 339 345 346 345
303 305 309 309 310 310 310 313 318 321 324 324 322 322 324 323 325 325 321 321 321 318 321 320 322 324 324 325 323 324 325 324 327 328 330 329 331 337 338 340 339 338 340 343 344
306 309 311 313 312 310 311 312 315 320 321 321 322 322 323 322 323 324 323 321 322 320 317 319 321 322 325 324 324 324 324 327 323 329 331 330 334 335 344 342 341 339 337 338 342
307 309 312 315 313 309 309 311 314 315 316 320 321 321 321 322 323 323 325 323 323 322 317 319 320 323 325 324 324 328 327 324 323 325 328 329 330 331 342 343 343 341 340 335 340
305 308 314 315 316 313 313 314 314 313 315 316 319 320 321 323 322 325 324 323 324 323 321 318 318 322 322 324 323 326 325 324 325 327 325 326 331 334 335 336 341 341 341 337 336
303 306 309 311 317 317 317 319 317 315 314 316 319 320 321 322 325 327 328 328 323 324 323 321 318 323 323 323 324 326 326 326 322 322 327 330 332 332 333 333 332 331 331 333 336
304 312 311 310 309 317 316 319 321 322 320 320 320 320 322 323 325 326 326 328 326 324 333 326 318 321 324 324 325 326 327 327 324 326 326 328 331 334 335 334 333 333 333 335 338
306 313 310 312 312 308 313 319 323 324 324 323 321 327 328 325 326 331 335 334 332 330 331 321 320 324 323 326 328 327 327 327 326 325 328 326 330 331 334 335 334 334 335 336 336
311 311 309 308 307 312 312 320 318 319 323 324 329 329 328 330 334 335 333 332 332 329 325 319 323 324 325 326 326 327 329 329 330 328 330 328 332 331 332 335 334 334 334 335 338
307 309 308 308 309 312 314 316 315 315 325 329 328 328 330 328 326 326 327 327 330 330 328 322 323 324 325 327 329 330 331 329 330 333 328 327 326 329 334 334 332 331 330 330 332

GFSSW_925_thetae_003.txt.gz
Theta_e
304 304 304 304 304 305 305 305 306 306 306 307 310 317 313 315 316 320 320 322 320 320 321 324 331 331 336 332 338 339 343 343 345 344 343 346 352 355 354 356 351 352 352 350 354
303 303 303 304 304 304 304 305 305 306 306 306 308 317 313 314 317 322 319 320 321 321 323 325 323 324 325 331 336 341 341 343 342 341 345 343 351 353 356 355 356 355 351 352 354
302 302 303 303 303 304 304 304 305 305 305 306 307 317 312 314 323 319 324 324 323 321 321 324 322 322 325 327 330 339 345 343 341 341 339 343 347 348 355 356 354 357 354 352 353
302 302 302 303 303 304 304 304 304 305 305 306 308 315 311 318 317 322 325 324 324 321 324 322 321 324 328 329 327 332 340 341 339 344 341 344 344 352 352 352 350 354 353 352 353
302 302 302 303 303 304 304 304 304 305 306 307 308 313 315 319 317 321 320 319 322 324 323 321 324 328 331 328 327 330 340 339 340 339 341 340 346 350 351 350 350 353 354 354 354
303 302 302 303 303 303 304 305 305 305 306 307 309 311 319 316 319 319 322 324 322 325 322 320 321 326 329 326 326 337 340 340 337 338 340 348 351 352 351 349 350 355 355 354 354
303 303 302 303 303 303 304 305 306 306 308 310 312 320 323 318 321 321 325 325 324 322 318 321 321 324 325 326 327 339 339 339 340 341 342 344 349 356 350 349 352 355 353 354 353
302 302 302 302 302 303 304 305 307 308 315 317 313 322 318 322 325 330 323 321 322 322 322 321 323 323 325 325 332 339 335 344 341 344 344 345 354 355 349 349 350 350 351 352 351
303 302 302 302 302 302 304 307 307 317 319 315 321 323 324 324 329 328 325 322 321 321 321 321 321 321 323 325 325 329 343 340 342 341 344 347 351 354 350 349 350 349 349 349 348
302 302 302 302 302 302 304 307 312 326 325 324 326 325 321 324 328 329 326 323 320 317 318 318 318 320 321 323 328 340 334 342 345 345 342 348 348 353 351 350 350 349 349 348 348
302 302 302 302 302 302 305 309 311 315 327 323 321 324 324 326 326 327 325 321 318 316 317 318 319 321 321 326 325 329 332 342 343 338 346 347 349 352 351 349 350 350 349 348 348
303 302 302 302 302 304 311 309 313 314 313 316 319 321 324 326 327 324 326 322 317 316 316 318 319 319 323 327 326 326 325 332 336 340 345 347 350 347 347 348 347 347 347 347 346
304 302 302 302 302 314 305 307 312 309 314 317 319 321 323 325 326 325 322 321 319 316 316 316 318 322 328 329 330 326 328 329 336 340 345 349 351 350 348 347 346 346 345 346 346
304 302 303 302 305 305 308 310 308 309 317 320 321 320 321 323 325 325 322 321 318 319 317 318 319 325 329 330 328 330 325 329 335 340 346 347 355 347 349 350 349 349 348 348 348
304 302 304 306 306 308 309 307 308 314 326 322 324 323 321 323 323 324 322 320 322 317 317 318 321 322 327 330 327 329 325 325 332 336 341 345 346 347 347 350 350 349 348 349 349
304 302 304 305 306 305 305 308 314 318 325 325 325 324 323 323 323 321 321 320 320 318 319 318 321 322 323 325 326 327 325 321 324 330 341 346 341 341 350 350 349 345 347 350 348
304 302 302 305 307 305 308 309 317 320 320 323 322 321 321 323 323 323 320 319 321 318 319 321 321 322 325 325 324 323 320 322 330 337 341 332 340 338 342 346 346 345 344 348 348
304 302 304 304 304 307 306 310 322 320 320 319 321 320 323 324 323 323 318 322 318 318 318 319 321 322 322 324 324 321 320 322 324 329 333 328 343 342 337 341 343 342 341 345 347
303 303 306 307 308 308 308 312 317 320 322 323 320 321 321 321 321 323 320 320 320 316 319 317 319 321 323 323 323 324 321 320 321 325 326 325 327 328 336 337 341 339 338 343 346
305 306 308 312 310 309 309 310 312 317 319 318 321 321 322 320 320 320 322 321 320 317 317 317 321 320 323 322 322 323 321 324 320 326 330 327 330 329 336 339 340 339 336 341 345
305 304 307 313 310 306 307 309 310 312 313 316 320 320 319 319 319 320 320 321 321 321 318 315 317 319 322 321 322 326 323 321 321 322 326 327 327 326 332 338 339 338 338 339 343
302 300 311 310 314 307 308 309 312 312 313 314 315 316 317 318 319 319 319 320 322 322 318 315 316 320 319 321 322 321 323 323 325 325 322 324 326 327 331 337 338 337 336 335 338
305 301 308 308 313 313 314 317 318 319 317 314 313 316 319 320 318 319 320 322 325 323 321 316 315 318 319 321 322 324 323 321 319 321 327 329 328 329 333 335 338 338 336 334 335
304 308 307 306 306 311 311 313 317 321 321 322 318 320 321 323 322 323 324 326 327 321 332 323 313 321 322 322 322 325 326 323 323 324 324 325 328 334 333 336 334 335 336 336 335
304 308 308 310 310 307 309 312 317 319 318 321 322 321 328 327 328 328 328 331 333 333 331 319 319 317 321 321 323 325 326 325 325 324 328 326 327 331 332 333 334 333 332 333 335
307 308 308 310 306 307 310 312 315 315 316 321 321 329 329 328 330 330 328 329 335 329 327 316 319 321 321 321 322 323 324 327 327 323 326 324 326 326 332 332 332 332 332 333 335
304 305 306 311 309 310 310 312 314 314 315 316 329 329 331 329 327 325 324 325 330 333 329 318 321 319 323 323 325 326 326 327 329 329 327 327 326 327 332 333 333 332 333 334 335

GFSSW_925_thetae_006.txt.gz
Theta_e
303 302 302 303 304 304 304 304 304 304 305 306 307 308 317 316 318 317 318 319 321 321 325 334 337 340 350 337 336 338 340 342 343 344 345 346 357 353 352 354 352 351 350 350 352
303 302 302 302 303 304 304 304 304 304 304 305 307 308 315 313 317 320 319 318 320 320 324 333 330 329 330 329 336 339 341 342 339 339 348 347 355 355 355 354 355 353 351 353 353
303 302 302 302 303 303 304 304 305 305 305 305 307 308 314 313 319 315 323 323 320 321 321 323 322 322 323 325 332 338 341 339 340 338 346 346 354 349 352 355 354 354 354 354 353
303 302 302 302 302 302 303 304 304 305 305 306 307 307 312 318 318 319 323 322 320 321 321 321 319 321 325 326 326 336 337 339 339 342 345 347 346 353 350 350 350 350 351 353 354
302 302 302 302 302 302 302 303 305 306 306 306 307 310 316 317 316 322 319 320 322 322 322 319 319 322 328 327 327 328 330 337 340 337 341 343 348 353 349 349 350 350 352 353 352
303 302 302 302 302 302 302 303 304 306 307 307 309 311 318 317 321 318 321 326 324 323 321 319 321 324 328 327 326 327 338 339 337 338 340 347 350 350 350 352 353 351 352 352 352
303 302 302 302 302 302 303 304 305 306 307 312 313 319 321 317 323 321 321 325 324 323 319 321 321 324 324 327 325 337 339 338 339 340 348 345 351 352 350 352 356 355 354 353 352
302 301 302 302 302 302 303 305 306 307 318 321 314 320 317 324 322 323 328 321 321 324 322 322 322 320 324 325 333 337 337 342 340 341 345 342 350 353 350 352 356 357 355 355 354
304 302 301 302 302 302 303 306 307 319 315 315 322 321 323 325 324 328 328 321 319 321 321 320 321 320 322 326 334 333 342 341 344 341 345 346 350 352 349 351 356 357 355 355 354
304 303 302 301 301 302 304 308 314 324 325 324 325 325 321 323 324 326 325 321 319 316 318 318 315 320 319 329 340 339 342 339 346 341 344 346 348 353 349 349 352 352 351 353 352
304 302 302 301 301 302 307 311 310 313 322 320 320 323 322 321 324 325 324 320 316 315 315 314 317 318 322 324 333 332 339 343 342 340 343 346 348 355 350 349 350 349 349 350 349
303 302 302 301 302 304 307 307 311 310 308 311 313 316 319 323 323 322 324 321 319 317 315 317 317 318 321 324 327 334 333 338 335 339 343 347 349 353 352 350 349 348 348 347 347
302 302 303 301 302 312 303 305 310 307 310 313 314 316 316 318 321 323 321 319 319 318 315 315 318 319 325 326 325 326 325 326 337 342 345 348 351 350 351 349 348 347 346 346 346
301 302 304 301 303 303 306 309 306 308 314 317 319 319 320 321 322 323 323 321 317 318 315 315 317 321 324 327 326 327 324 326 336 343 344 343 346 348 348 350 347 346 346 346 345
300 300 304 304 304 306 306 306 307 310 321 320 322 321 319 319 320 322 322 320 322 318 316 318 318 321 326 326 325 327 325 327 335 338 342 349 342 340 347 349 348 346 344 344 344
300 299 304 304 304 303 306 305 310 315 321 320 324 322 323 322 321 320 322 320 320 319 316 318 318 319 320 325 327 323 320 321 323 330 339 340 344 338 349 350 347 346 346 346 345
300 299 302 304 305 304 305 306 313 317 317 320 321 319 320 321 322 321 320 319 320 320 319 318 318 321 322 323 324 320 321 324 327 335 337 333 344 341 338 345 345 345 346 347 346
299 300 302 303 304 305 305 306 317 317 317 317 319 318 320 319 320 322 318 322 318 317 317 316 317 319 320 322 322 321 321 323 326 328 336 335 346 343 338 337 341 341 344 344 346
300 303 305 307 308 306 303 306 311 317 320 322 318 320 320 319 320 321 319 318 320 315 318 316 317 318 320 321 321 321 321 320 319 321 324 328 327 328 330 332 338 341 342 343 346
304 303 303 310 310 306 304 305 308 314 317 314 319 319 320 318 318 319 319 319 319 317 315 316 319 317 320 322 321 321 318 323 318 325 329 326 327 330 330 333 333 339 341 341 343
303 300 306 310 307 304 304 304 308 309 311 312 317 319 318 318 318 318 319 319 320 320 314 314 315 317 319 320 320 321 321 318 318 319 323 324 325 323 327 330 333 336 339 339 340
302 298 308 308 310 304 306 306 309 311 312 313 315 315 315 316 315 317 318 318 319 318 318 314 316 318 317 318 319 320 319 319 323 321 319 321 324 324 326 327 334 335 337 333 338
302 302 305 306 312 311 310 314 315 318 317 318 316 313 314 316 319 316 316 318 318 318 319 315 313 318 317 316 320 320 320 317 316 317 322 325 325 325 326 331 335 335 334 334 338
303 303 304 303 303 308 306 308 313 316 318 318 318 317 317 319 317 318 321 325 325 326 339 328 313 318 321 319 319 322 323 320 319 321 322 324 325 327 331 334 335 337 334 333 336
304 304 306 310 309 309 306 308 314 316 316 317 319 320 320 320 323 320 320 322 328 331 325 314 318 316 321 318 320 321 323 322 322 321 325 325 324 326 330 332 333 337 336 335 333
308 308 305 307 308 306 308 309 314 314 313 315 319 321 320 322 324 325 325 326 330 332 328 316 317 315 321 319 320 321 322 324 324 323 323 324 324 323 328 330 332 334 336 336 336
302 303 306 309 310 309 308 311 312 312 313 313 316 318 325 326 321 323 323 324 329 329 333 323 316 316 321 318 318 319 321 321 323 323 324 325 326 324 330 331 332 331 334 336 335

GFSSW_925_thetae_009.txt.gz
Theta_e
303 303 303 302 303 304 304 304 304 305 306 307 308 309 310 312 317 319 321 321 319 325 329 341 341 349 350 348 345 340 346 347 345 352 351 351 352 354 351 355 351 351 351 347 350
303 303 302 302 303 303 303 303 303 304 306 307 307 308 308 313 318 321 322 321 320 322 333 337 338 342 339 332 338 343 347 346 343 346 350 352 352 356 356 355 353 354 351 351 351
305 303 302 302 303 303 303 303 303 303 305 306 308 308 308 314 322 319 325 320 320 324 326 330 332 328 326 330 336 342 345 343 343 342 348 352 353 353 355 355 352 356 355 352 352
305 303 302 302 302 302 303 303 304 304 304 306 307 308 310 318 322 318 323 319 319 322 322 323 324 325 325 326 330 338 340 341 341 344 348 352 352 353 352 347 348 352 353 352 352
308 302 301 302 302 302 302 303 304 306 306 306 307 308 315 319 321 320 320 322 323 323 322 323 323 323 324 328 329 332 332 337 341 345 347 349 353 352 352 347 350 352 353 353 352
308 304 301 301 302 302 302 303 304 305 306 307 309 311 318 319 318 319 320 324 326 326 322 322 323 324 326 331 332 330 334 338 342 346 347 349 351 350 350 352 353 354 354 353 352
308 305 302 301 301 301 302 303 305 306 307 310 318 316 320 320 320 319 320 323 326 325 323 321 322 326 329 330 328 340 343 344 343 345 347 349 354 353 350 353 354 354 353 353 352
306 304 303 302 301 301 303 304 306 307 313 320 314 321 323 322 323 323 322 324 323 321 321 322 321 322 324 328 338 342 343 346 344 345 348 346 348 351 352 355 355 353 353 353 352
304 302 301 301 301 301 303 305 309 317 315 316 321 322 327 324 325 326 327 320 319 322 321 321 322 323 324 331 342 341 346 346 347 345 349 347 348 351 353 354 356 354 353 353 353
301 300 301 301 301 302 304 310 317 323 323 323 325 327 326 326 324 324 325 319 320 321 321 320 321 322 326 333 336 343 346 345 348 346 349 349 350 354 354 354 356 356 355 355 355
299 299 300 300 301 302 308 310 317 317 320 325 324 326 324 323 322 325 322 321 319 321 323 321 321 321 325 332 336 340 345 346 346 345 347 349 349 355 354 354 355 357 357 356 355
299 298 299 300 301 307 303 307 310 308 311 311 312 316 318 319 321 323 323 325 322 324 318 320 321 322 325 328 334 342 344 346 344 345 346 348 349 351 355 354 353 354 356 355 355
300 298 299 300 301 309 304 306 306 306 310 313 313 315 317 317 319 321 323 324 325 326 320 320 320 321 325 327 330 339 343 345 345 344 346 349 348 352 354 353 352 351 351 351 352
300 298 300 299 302 302 308 308 306 307 318 320 320 321 321 320 321 321 322 325 322 326 321 321 320 320 324 329 330 333 338 342 344 345 348 346 348 350 352 356 354 352 351 350 350
299 297 299 302 303 307 306 304 306 309 322 321 322 320 322 324 320 322 323 324 326 324 322 323 319 321 323 326 329 333 333 336 341 344 345 349 347 343 351 355 356 354 351 350 349
298 298 301 304 304 302 304 304 310 320 322 321 325 324 323 323 323 323 323 324 325 325 320 324 320 321 324 327 329 328 331 332 338 340 340 340 346 339 353 352 351 351 350 350 348
298 298 300 304 306 304 304 308 317 320 319 321 323 321 321 324 324 323 324 325 328 329 328 325 323 321 322 326 329 329 331 334 338 340 337 337 349 342 343 347 348 348 349 348 348
298 299 301 302 303 304 304 309 316 317 319 319 320 320 320 321 324 322 324 325 327 328 328 328 326 323 323 323 328 329 331 334 337 337 335 337 344 341 342 341 344 346 347 347 347
298 301 303 305 308 304 307 307 312 316 320 322 321 321 321 321 321 323 324 325 326 326 327 326 326 320 322 324 327 328 330 331 333 328 333 336 341 335 338 339 340 344 346 348 348
303 303 302 307 309 305 307 307 309 315 320 317 320 321 322 321 320 321 323 324 326 325 327 324 325 321 322 323 324 326 327 329 330 339 336 333 335 333 340 341 342 343 346 347 349
302 303 306 309 305 308 308 306 308 311 316 315 317 320 322 319 319 320 321 322 321 323 325 326 323 321 321 322 323 324 326 327 330 331 335 335 333 336 341 346 343 343 344 346 348
302 301 306 307 313 308 310 309 308 311 311 311 315 318 318 318 317 318 319 322 321 321 322 323 325 326 324 323 322 324 326 328 330 334 330 332 332 332 335 338 339 341 341 343 348
303 304 302 305 311 313 313 313 314 315 315 316 314 316 316 316 317 319 319 320 320 321 325 321 324 326 325 325 323 323 324 326 328 330 338 331 331 334 333 334 336 339 342 344 346
304 306 307 308 307 311 314 313 314 315 317 318 318 319 321 323 322 323 321 322 323 321 332 328 330 330 330 328 325 324 323 325 326 329 329 330 330 333 335 339 340 341 343 343 344
304 307 308 314 313 314 311 310 312 313 316 317 322 321 322 323 323 323 324 323 323 326 333 332 332 330 331 332 327 325 322 324 327 328 331 329 332 333 340 341 343 343 345 343 344
305 308 306 308 309 312 311 311 313 315 315 316 319 319 320 324 324 324 325 325 328 331 334 324 335 325 326 328 327 325 325 324 325 326 328 328 332 333 337 338 341 342 345 344 344
302 302 304 305 308 310 311 311 312 312 313 315 315 315 318 320 321 323 324 326 329 333 338 340 333 336 334 325 325 326 326 326 326 327 328 330 331 335 334 337 340 343 345 347 346

GFSSW_925_thetae_012.txt.gz
Theta_e
305 302 302 302 303 303 303 304 304 305 307 308 309 309 310 311 313 324 327 324 322 322 346 342 342 345 345 347 346 346 347 345 345 347 349 347 348 349 349 353 351 349 348 348 347
309 304 302 302 303 303 302 303 304 305 306 307 308 309 309 310 321 324 324 323 321 321 339 339 341 344 344 338 340 344 347 345 342 342 349 347 347 351 352 353 352 352 349 348 347
309 307 303 302 302 302 302 302 303 304 306 307 307 308 308 311 326 323 322 321 319 324 331 334 333 339 333 329 333 338 344 344 343 341 346 348 348 349 348 352 350 353 353 350 348
304 302 302 302 302 302 302 302 303 304 305 306 307 308 308 323 322 322 323 320 319 332 329 329 330 329 326 328 331 336 336 337 339 342 346 348 348 349 347 346 347 349 351 350 351
303 301 301 301 302 302 302 302 303 304 306 306 306 307 318 325 323 322 320 321 327 334 325 327 325 327 326 329 330 332 333 333 336 340 345 348 349 349 348 347 347 349 351 351 351
308 304 301 301 301 301 302 302 303 304 305 306 307 311 323 321 321 323 329 333 330 329 324 324 324 325 327 329 331 333 333 334 337 342 346 349 350 350 348 347 350 352 353 351 350
308 305 301 300 301 301 302 303 303 305 306 307 315 318 324 322 321 321 323 326 329 328 326 323 324 325 326 329 331 334 338 342 342 347 348 348 353 352 349 350 354 353 353 351 350
301 300 299 299 300 301 302 304 305 308 310 317 319 324 324 323 323 322 324 325 326 329 325 324 323 325 326 332 333 337 338 343 346 347 349 349 350 350 351 352 354 353 353 351 351
302 299 299 299 300 301 302 305 311 317 315 316 325 328 326 325 327 327 327 326 325 325 323 323 323 326 327 331 336 338 340 341 349 347 350 350 347 350 351 353 355 353 351 351 352
306 300 298 299 300 301 304 306 317 324 323 325 327 330 328 326 328 326 328 324 326 326 324 324 324 326 328 331 337 339 340 340 343 349 350 350 349 351 352 352 353 354 352 351 351
301 299 298 298 299 301 305 312 322 326 327 327 326 328 326 325 324 326 327 323 325 325 323 323 324 325 329 331 334 337 339 341 341 347 349 347 347 351 354 353 353 355 354 352 350
300 299 298 299 300 306 307 312 313 310 315 317 318 319 321 322 322 324 326 326 326 326 324 323 323 325 327 330 332 335 338 339 341 347 348 347 348 348 351 354 353 354 355 355 351
300 299 298 300 301 310 309 313 309 309 315 318 318 318 320 320 322 323 326 327 325 326 324 324 323 324 326 327 332 336 337 339 344 347 347 346 349 348 347 351 352 352 352 354 353
300 300 299 298 307 307 313 311 310 309 319 323 322 323 323 323 323 323 323 326 326 325 325 323 324 323 324 326 331 336 335 337 342 346 349 347 349 344 346 350 352 353 352 351 353
302 299 299 301 305 310 310 307 308 312 324 323 324 324 325 326 325 324 323 326 327 326 326 325 322 322 323 325 328 333 334 337 339 344 345 348 350 343 344 348 350 353 353 350 348
303 301 299 306 307 307 307 308 313 322 323 323 325 326 326 326 325 325 324 325 326 326 326 326 324 323 323 324 327 331 334 336 338 339 345 345 347 342 342 347 344 348 351 352 347
303 301 300 304 308 307 308 310 318 320 321 322 324 326 324 324 326 326 325 325 328 330 328 326 324 323 323 324 325 330 335 341 343 342 343 342 344 343 338 339 341 340 347 351 348
302 301 306 306 307 307 307 310 317 319 320 322 323 324 325 324 325 325 324 325 326 328 328 328 326 325 323 324 327 329 334 339 343 340 340 340 343 340 339 338 337 340 342 349 349
302 304 305 308 308 308 311 311 315 317 319 319 322 325 325 324 323 326 326 325 325 327 329 329 328 325 324 324 326 329 335 334 337 337 338 337 339 338 337 339 340 340 344 347 350
304 305 306 307 310 310 310 311 314 314 317 321 322 322 323 324 324 325 326 326 325 327 329 329 329 327 325 324 325 329 331 335 336 344 341 337 338 340 339 336 336 341 344 346 349
305 306 310 312 311 313 311 311 312 313 314 318 319 322 323 323 324 324 325 325 326 327 329 330 328 326 326 324 325 326 330 333 334 335 338 340 338 336 336 336 335 336 343 343 348
304 306 308 309 315 313 313 314 310 312 312 314 316 318 321 323 323 324 324 324 324 327 330 330 330 329 324 324 324 327 329 333 335 339 336 336 336 334 336 335 334 335 335 339 345
307 306 305 308 310 311 313 313 313 313 313 313 313 315 317 319 322 322 322 321 321 324 328 330 331 332 330 325 324 324 326 329 331 334 342 338 336 333 334 335 337 339 340 341 346
306 306 307 312 310 312 313 316 315 314 314 314 315 315 315 317 319 320 321 321 321 322 333 326 329 331 331 330 327 326 324 325 328 334 334 334 336 334 333 334 334 334 339 341 348
306 307 310 308 313 316 316 316 315 315 315 317 316 318 317 318 319 320 321 322 325 332 329 325 335 334 330 329 329 327 326 325 326 327 333 332 333 335 335 334 334 334 335 341 349
306 309 308 308 308 309 309 310 314 314 315 317 319 317 318 320 321 321 321 323 323 323 326 329 337 336 335 332 331 331 330 328 325 325 327 328 330 331 333 333 334 334 335 339 349
304 304 304 305 304 306 308 310 311 314 314 314 317 318 320 321 322 324 324 325 327 325 328 331 334 339 338 332 333 334 333 332 330 326 325 327 329 329 332 332 334 334 338 342 348

GFSSW_925_thetae_015.txt.gz
Theta_e
305 303 302 303 303 303 303 303 303 305 306 307 308 308 309 310 312 325 330 326 326 325 334 341 342 340 341 343 344 345 349 348 343 349 343 340 342 344 346 349 347 348 351 351 351
308 303 302 302 302 303 303 303 303 303 305 306 307 308 309 309 320 324 323 324 323 322 336 337 338 337 342 342 344 343 354 348 342 345 344 342 340 344 346 348 349 349 350 349 350
310 307 302 302 302 302 302 302 303 303 304 305 307 307 308 310 327 325 322 321 322 322 329 333 333 338 340 340 338 339 350 346 342 341 345 344 342 342 345 346 348 350 351 350 350
310 307 303 302 301 302 301 302 303 304 304 305 306 307 308 321 326 329 321 320 320 331 332 332 333 337 339 337 334 337 339 338 339 341 342 344 344 342 341 344 345 348 349 349 351
309 302 300 300 300 301 301 301 303 304 305 305 306 306 318 326 325 327 322 321 330 331 333 331 333 333 337 333 334 335 337 336 336 339 341 344 344 343 341 342 344 348 348 349 350
303 300 300 299 300 300 301 301 303 304 305 306 306 308 323 323 322 327 324 331 331 331 328 329 331 331 333 332 334 336 336 336 337 339 341 344 344 345 342 343 346 350 349 349 349
302 300 300 299 300 300 301 302 303 305 307 308 308 317 323 324 322 322 328 328 328 328 330 326 328 328 329 331 332 335 336 339 338 339 342 343 345 345 343 346 348 350 350 348 348
300 300 300 299 300 300 301 303 305 308 312 314 316 323 325 324 324 323 323 324 326 328 327 326 324 327 329 331 333 334 337 341 339 340 343 345 348 344 345 347 348 349 350 349 348
301 300 299 300 300 300 301 304 307 318 316 318 327 328 327 325 326 324 323 325 326 326 328 326 326 326 328 329 333 336 338 339 340 340 346 346 354 346 346 346 346 348 348 349 349
302 300 299 300 300 301 303 309 313 323 324 326 328 331 328 329 327 327 327 327 327 328 327 327 326 327 327 331 335 339 339 340 346 341 346 345 350 348 349 347 345 347 347 348 349
302 301 300 300 301 302 307 316 324 330 328 330 331 328 327 326 328 327 327 327 327 327 326 325 325 325 328 332 334 337 339 338 341 341 344 346 346 347 350 349 348 348 347 347 347
303 303 299 299 301 306 311 317 317 313 316 319 321 323 325 326 327 327 328 325 326 328 326 325 325 326 329 331 333 335 338 339 340 340 343 345 346 347 351 350 350 349 349 348 347
304 304 302 301 302 313 311 316 313 313 317 320 322 322 323 323 324 326 327 328 325 327 326 325 325 326 328 331 333 335 337 338 340 346 345 345 347 346 346 350 350 349 350 349 347
304 304 303 299 308 309 315 314 312 312 320 323 323 323 323 323 323 324 325 328 328 326 327 326 326 325 326 329 332 335 335 337 338 344 349 342 348 348 345 346 350 352 350 351 348
304 303 303 301 306 312 311 310 311 315 324 326 325 325 326 326 328 327 325 326 329 328 327 327 326 326 325 327 330 332 335 337 337 342 349 342 344 343 344 345 346 349 351 351 349
303 303 302 306 309 311 310 310 313 321 325 326 327 327 328 328 328 327 326 326 327 328 328 327 327 326 326 326 329 330 333 336 337 338 344 346 345 347 346 345 344 345 349 351 351
303 302 303 305 309 311 309 312 317 321 325 326 326 326 327 327 327 327 326 326 327 329 330 328 327 327 326 325 327 329 332 337 340 340 341 342 344 350 344 342 342 341 344 348 351
302 303 307 308 310 310 309 312 317 322 323 325 325 327 327 327 327 327 327 327 326 328 330 330 329 328 326 325 326 328 331 335 342 341 340 339 343 342 343 340 340 339 339 342 349
303 307 308 309 311 309 314 313 317 320 324 324 325 326 327 327 326 327 328 327 327 327 330 331 331 329 327 326 325 327 330 332 336 338 340 340 339 340 341 341 340 339 338 339 347
305 308 309 310 311 311 313 315 317 318 321 321 324 325 327 327 326 327 328 328 327 327 329 330 332 330 327 327 326 325 328 332 338 345 345 339 340 341 341 341 339 339 338 339 344
307 310 312 312 313 316 316 314 315 316 317 319 321 324 325 326 328 327 326 327 328 327 327 328 331 331 330 328 327 325 327 331 333 337 340 342 341 338 342 341 339 339 337 338 341
308 312 310 311 314 315 316 317 315 316 317 317 317 321 324 325 325 327 327 327 327 328 328 329 330 333 330 330 328 327 326 328 336 341 337 340 339 338 337 338 337 337 337 338 339
310 312 309 308 311 311 313 315 316 316 317 317 316 317 320 323 325 326 326 326 326 327 329 329 331 334 334 329 328 328 327 327 329 334 344 341 338 337 337 337 338 337 337 338 339
309 311 311 311 312 310 311 313 315 317 316 317 316 316 316 319 322 324 325 325 325 325 334 330 332 333 335 333 329 328 326 326 328 332 335 336 337 337 337 336 336 336 337 337 337
308 310 310 312 313 312 314 317 316 319 318 317 317 317 317 317 319 320 322 324 324 327 326 327 332 333 332 332 331 328 326 325 327 329 333 333 335 337 337 337 336 336 336 336 336
308 309 309 310 311 311 311 313 310 311 314 316 318 318 318 318 318 319 320 324 325 324 325 327 331 332 332 331 330 330 330 328 327 326 327 329 331 333 335 339 337 335 336 336 336
306 306 308 307 308 309 308 310 311 311 312 315 316 318 322 320 321 322 324 322 323 326 328 329 331 332 335 334 334 333 331 331 331 330 328 329 329 330 333 336 337 337 337 337 336

GFSSW_925_thetae_018.txt.gz
Theta_e
310 307 303 302 303 303 303 303 303 304 305 305 306 308 308 308 310 323 330 326 327 325 324 340 341 342 342 340 343 349 348 351 350 344 340 341 340 345 348 347 347 351 350 350 349
309 305 301 301 301 302 302 302 302 303 305 306 306 307 308 308 317 323 322 324 325 324 327 332 338 340 339 340 343 346 356 348 348 345 342 341 340 342 344 345 347 352 350 349 348
303 301 300 300 300 301 301 301 302 303 304 306 306 306 307 308 324 326 323 322 323 323 324 328 332 337 336 340 342 344 347 345 344 344 343 343 341 340 344 345 347 353 352 350 348
302 301 300 300 300 300 301 301 302 303 304 305 306 307 307 318 325 327 321 321 320 324 326 327 331 335 337 341 340 343 343 342 343 343 346 344 340 340 343 343 345 351 351 351 349
303 301 301 300 300 300 301 301 302 303 304 306 306 306 316 324 325 324 321 321 323 328 328 331 332 334 336 340 339 336 336 341 337 337 340 344 342 340 341 343 345 348 349 351 350
303 301 300 300 300 300 301 301 302 304 305 306 307 308 322 321 322 326 326 331 326 328 328 330 331 333 335 337 337 335 335 337 336 337 338 344 343 341 340 342 344 347 348 349 350
303 302 300 300 300 300 301 302 303 304 305 309 311 316 320 321 324 326 325 326 327 329 328 328 330 332 333 334 335 334 335 336 337 337 339 343 344 343 341 341 345 347 347 348 349
303 301 300 300 300 300 301 302 304 305 308 315 315 321 321 320 323 323 324 327 327 328 328 328 327 329 331 331 332 332 333 336 338 338 340 341 348 342 342 341 344 347 347 347 348
304 303 301 300 301 301 302 304 307 309 317 317 325 327 326 325 326 326 325 324 325 326 328 328 328 326 329 329 330 332 335 336 339 339 341 342 350 347 343 343 344 346 347 346 349
304 304 303 301 301 302 303 309 312 313 325 325 326 331 332 329 328 326 324 324 325 327 326 328 328 327 326 329 331 333 335 336 341 341 341 351 352 344 344 344 344 344 346 348 347
303 304 303 301 301 302 306 315 324 327 327 331 331 326 327 328 328 328 327 325 327 327 327 329 327 328 328 329 331 333 337 337 341 342 340 352 352 348 347 346 344 345 345 347 348
303 303 303 302 303 304 309 319 319 315 316 318 321 327 330 328 329 329 327 328 327 327 328 327 327 327 328 330 330 333 335 338 341 344 345 345 355 350 350 347 345 345 344 344 344
302 303 303 302 304 311 313 313 317 314 316 318 320 320 325 329 328 328 328 329 327 326 328 326 326 326 326 329 331 333 335 337 339 342 342 342 343 347 347 347 347 346 346 344 345
302 302 302 301 311 309 313 316 313 314 317 321 323 322 322 323 324 325 327 329 328 326 327 328 327 326 325 327 331 333 334 335 337 342 346 343 348 351 347 351 349 348 348 348 346
302 302 303 301 305 311 314 313 312 315 322 328 326 326 325 323 325 325 325 326 329 328 326 327 327 326 325 326 329 333 334 335 335 339 347 349 348 349 349 351 352 349 348 348 350
302 303 303 306 308 311 312 312 314 318 323 327 327 326 324 324 324 329 325 325 326 328 328 327 328 327 326 326 327 331 333 334 335 337 342 345 347 348 349 348 345 348 349 350 349
302 303 303 306 309 310 311 313 316 320 326 327 328 328 327 326 325 328 326 324 326 328 330 329 328 328 327 326 327 327 329 336 338 340 341 341 349 349 347 347 345 345 347 350 351
303 304 308 309 310 312 312 313 318 323 322 327 327 328 327 328 327 327 329 327 326 327 328 330 330 328 328 327 327 327 328 335 340 340 339 340 342 347 348 346 344 346 346 347 351
304 308 310 310 311 312 314 315 319 321 324 325 326 326 328 328 328 328 328 328 327 327 330 330 330 330 328 328 327 327 327 329 332 335 338 339 339 338 342 347 343 342 343 342 349
305 308 313 312 312 313 314 316 319 318 320 322 324 325 327 328 328 328 329 329 328 327 328 329 331 330 330 328 328 327 328 327 329 337 342 340 343 344 344 349 346 344 342 341 341
307 312 311 312 312 315 318 317 317 317 318 318 318 320 323 327 328 328 328 329 329 328 328 327 331 331 331 330 329 327 327 327 328 331 337 342 342 343 348 350 348 345 342 341 341
308 311 312 313 314 315 316 317 316 318 319 319 319 319 320 321 325 328 329 328 329 329 328 328 328 333 331 331 330 328 328 326 328 336 332 336 341 339 343 343 345 343 343 341 342
308 309 308 309 313 313 313 313 314 316 318 319 320 319 319 320 323 324 327 328 329 328 329 331 329 334 331 331 332 330 328 328 327 329 335 336 338 338 343 340 343 343 342 344 347
308 309 310 311 312 311 312 314 314 314 316 317 320 320 320 320 321 323 324 325 327 329 335 332 329 332 333 334 332 332 330 329 328 328 331 334 337 339 344 344 341 343 342 343 348
307 309 309 310 311 311 312 315 315 317 317 317 319 320 320 322 319 319 320 322 325 331 330 328 333 332 330 330 332 332 330 329 330 331 332 332 336 340 340 346 343 344 341 343 348
307 308 309 310 309 310 309 310 310 312 314 314 316 318 319 322 323 322 322 324 326 327 328 327 333 332 333 331 331 333 332 330 329 328 330 330 331 333 337 340 345 338 340 344 345
305 306 309 310 308 308 308 308 310 310 312 314 314 316 318 317 316 317 317 320 323 327 331 330 329 335 334 332 333 334 334 332 328 328 327 329 332 334 334 336 341 344 341 344 343

GFSSW_925_thetae_021.txt.gz
Theta_e
306 302 301 300 301 301 301 301 302 303 304 304 306 306 307 307 309 315 324 321 322 322 323 337 341 341 344 348 348 347 354 357 350 349 340 342 348 349 350 353 353 351 354 353 351
302 301 301 301 300 300 301 301 301 302 303 304 305 306 306 307 312 318 316 317 322 325 326 327 333 339 339 342 348 349 354 347 345 346 342 344 349 348 350 352 353 353 352 353 352
301 301 301 300 300 301 301 301 301 301 303 304 305 306 306 307 323 320 324 321 320 322 327 325 325 330 337 337 339 345 345 346 346 344 342 339 340 341 344 354 352 354 354 353 353
302 301 300 300 300 300 301 301 301 302 303 304 304 305 306 315 318 324 320 322 322 323 325 324 323 325 329 334 335 343 341 340 340 345 339 339 336 342 342 349 350 349 347 353 352
303 302 300 300 300 301 301 301 301 302 303 304 304 306 310 323 322 320 321 320 320 321 327 325 323 326 330 333 334 338 340 340 339 341 340 340 341 343 345 350 350 349 348 350 351
303 303 302 301 301 301 301 302 302 302 303 304 306 311 320 317 316 319 321 321 325 328 326 325 326 327 331 332 333 336 336 334 337 340 341 341 341 341 346 351 352 351 349 348 346
304 303 302 302 301 301 301 302 303 303 304 306 313 318 321 316 319 323 323 325 327 327 325 326 327 328 329 331 332 333 334 332 334 334 340 344 347 342 344 348 352 351 350 349 347
304 303 303 302 302 302 302 303 304 305 307 311 319 321 322 316 318 319 322 322 327 326 327 327 327 326 327 328 330 330 328 329 332 334 337 342 349 344 340 347 350 349 350 350 348
304 304 304 304 303 303 303 303 306 311 310 317 321 324 326 324 321 320 323 323 326 327 328 328 326 325 324 326 326 326 328 329 331 335 338 342 346 341 338 345 346 348 347 348 348
304 303 302 302 303 304 303 307 315 314 322 324 325 328 329 327 326 324 324 324 323 324 324 326 325 324 323 323 327 326 328 328 331 336 342 344 343 343 341 339 345 346 346 346 347
304 302 302 301 303 304 304 310 317 321 325 330 327 327 323 326 327 327 326 325 322 321 322 323 324 325 324 322 325 327 328 330 331 338 347 347 345 343 339 340 340 345 345 345 346
304 303 302 301 304 306 310 314 314 315 314 315 317 322 326 328 330 328 326 322 322 321 324 323 325 325 326 325 325 326 328 329 331 339 345 349 347 344 339 339 340 343 344 345 345
303 303 302 302 305 312 307 310 314 313 311 313 315 316 317 320 326 328 325 324 323 324 326 324 326 328 326 326 327 326 327 329 332 339 343 350 351 347 339 342 342 342 343 344 344
304 303 302 303 310 306 310 314 313 313 312 316 318 318 317 318 323 328 328 326 327 325 325 325 326 326 326 325 325 327 328 330 331 335 343 347 355 349 342 345 345 343 341 342 344
304 303 303 303 305 309 312 312 312 313 319 324 322 322 318 318 323 327 328 326 327 327 323 324 326 326 325 323 323 326 329 330 331 332 342 342 342 349 347 348 347 343 342 341 341
304 303 303 305 306 307 309 310 312 315 320 323 324 321 319 318 320 323 326 323 324 327 326 324 324 325 325 325 324 324 327 329 330 331 337 340 342 345 348 348 346 345 345 343 341
304 303 303 306 307 309 310 312 313 316 323 326 325 324 321 320 320 320 322 322 321 324 324 327 326 324 326 324 322 323 321 327 330 332 333 336 341 346 344 343 347 347 345 345 344
304 303 305 308 309 310 311 313 315 321 319 322 323 324 324 323 322 322 322 321 321 322 323 324 327 327 326 325 322 322 321 324 329 332 332 332 341 343 342 341 346 346 343 345 345
303 305 307 307 310 311 312 315 316 318 320 319 319 322 325 326 326 323 322 324 322 321 322 324 326 328 327 327 325 323 321 322 321 326 330 332 332 332 342 341 343 341 341 343 341
304 307 309 310 313 311 313 315 316 317 317 316 317 319 320 319 319 326 324 324 324 323 322 324 327 327 328 326 325 323 324 321 322 323 328 330 332 336 336 343 342 341 341 341 340
306 308 308 309 312 313 314 315 316 316 316 318 319 319 319 319 319 319 320 327 326 326 324 323 324 326 327 327 325 324 323 321 320 322 325 330 331 331 337 344 343 341 340 337 342
306 308 308 308 309 313 314 314 313 315 315 316 318 319 319 320 319 319 320 320 325 327 326 324 323 324 325 326 327 325 324 321 323 323 325 323 326 329 330 340 342 341 339 337 337
305 306 306 307 309 311 312 313 313 312 312 313 314 315 317 319 320 320 320 321 321 321 326 326 325 324 325 325 326 326 325 323 322 321 323 328 327 326 327 338 339 341 341 339 339
306 307 307 308 309 310 310 312 313 313 314 314 315 316 317 319 320 321 321 321 321 320 336 332 326 325 326 326 328 330 327 326 323 323 323 322 322 324 335 339 334 338 338 339 341
307 307 306 308 310 308 309 312 311 311 311 311 315 316 316 318 320 321 321 320 320 323 325 322 328 326 325 326 328 327 330 327 325 323 324 323 323 324 326 340 338 338 338 337 341
306 306 306 307 307 308 308 308 308 309 311 312 312 315 315 319 320 318 316 317 319 319 318 319 329 329 328 327 326 326 329 330 327 326 326 326 326 326 328 338 339 338 337 333 336
304 305 306 306 306 307 308 308 309 310 311 311 310 311 313 313 314 314 313 314 315 318 319 320 323 329 328 329 330 327 326 329 330 328 327 326 325 326 327 332 338 341 336 335 336

GFSSW_925_thetae_024.txt.gz
Theta_e
304 301 301 301 301 301 301 301 301 302 302 302 303 304 306 306 307 311 320 315 317 321 327 340 349 350 355 349 349 346 350 356 349 349 353 351 355 353 351 354 351 353 351 349 348
306 303 302 301 301 301 301 301 301 301 302 303 303 304 305 306 311 318 317 316 315 321 327 348 345 344 353 351 350 347 348 351 344 343 349 349 353 353 356 356 356 353 350 348 348
308 303 302 301 301 301 301 301 301 301 301 302 303 304 305 307 320 316 322 323 318 317 327 326 334 338 339 346 350 349 349 345 345 344 345 350 353 351 356 358 355 356 353 349 349
306 304 303 302 302 301 301 301 301 301 302 302 302 304 306 314 313 320 321 321 318 318 323 327 322 320 324 335 346 346 346 343 343 343 341 347 351 353 352 352 350 353 352 350 350
305 304 304 304 303 303 302 302 302 302 302 302 304 306 312 320 318 318 320 321 321 320 328 325 321 320 324 325 327 337 337 342 343 341 338 338 342 353 351 350 350 352 352 352 351
305 304 304 305 305 305 304 303 303 303 303 303 306 313 316 309 314 315 317 319 321 327 327 323 323 321 323 326 328 331 332 333 336 340 339 339 340 346 350 350 352 354 354 352 351
304 304 303 304 305 304 304 305 305 305 305 306 309 317 320 310 315 320 320 320 321 323 323 325 323 324 324 327 328 330 330 330 329 333 340 339 345 354 351 349 351 354 354 353 351
304 304 303 303 303 303 304 306 307 306 309 309 315 320 318 314 316 314 317 320 324 323 327 326 325 323 324 325 325 327 326 327 328 341 341 337 344 354 350 350 349 351 354 353 351
303 303 303 302 301 302 304 307 308 313 311 314 320 320 320 321 322 320 316 319 324 323 326 326 323 322 323 323 322 323 326 326 326 337 343 341 343 342 351 351 351 350 349 350 348
303 303 303 302 302 302 304 308 316 320 323 323 324 323 320 323 328 322 319 319 320 322 324 325 322 322 320 319 324 325 325 325 326 331 342 342 343 341 352 352 352 351 350 349 348
304 304 303 303 303 303 307 312 309 313 323 324 324 325 322 324 325 323 321 321 321 321 321 320 323 325 322 321 322 324 325 325 326 329 342 342 342 340 351 351 351 351 350 349 348
304 304 304 303 303 306 309 311 314 311 309 312 317 319 321 322 326 327 323 321 320 320 318 320 321 322 323 322 322 322 324 325 325 327 341 343 343 339 344 347 349 348 348 348 348
304 304 304 304 304 309 305 308 311 310 307 310 312 313 314 318 322 324 322 320 321 318 319 319 321 323 325 325 323 322 322 323 325 327 347 344 345 345 340 337 341 345 345 346 346
304 304 304 303 305 304 308 310 310 310 308 312 312 313 313 315 316 320 324 322 320 321 319 320 322 323 324 326 324 321 323 324 325 327 336 342 344 346 343 337 339 342 343 345 344
305 304 304 303 304 306 306 309 310 309 319 321 318 316 313 315 318 320 322 322 323 322 321 323 324 324 325 325 325 323 323 325 326 326 327 331 342 342 344 344 339 339 343 343 343
304 304 304 304 304 306 307 308 310 311 317 319 320 316 315 315 318 322 324 324 323 324 322 323 322 323 324 324 325 324 321 322 325 326 328 329 340 341 343 344 340 341 340 342 343
303 304 303 304 306 306 309 308 308 313 317 322 317 316 315 315 317 318 327 327 325 322 326 326 324 322 324 322 322 320 317 320 323 325 328 326 337 340 340 343 341 343 342 340 342
303 303 304 305 305 306 310 307 311 315 315 316 316 317 319 316 316 317 317 328 325 319 319 325 326 324 322 322 323 319 318 320 322 325 326 325 334 337 337 341 342 343 342 340 340
303 304 305 306 308 307 306 312 311 313 315 315 316 316 317 318 317 316 317 318 325 320 320 319 323 324 325 324 322 321 318 318 317 321 323 326 328 328 333 337 342 344 343 342 340
304 305 305 308 307 309 308 312 311 313 314 315 316 316 317 317 318 317 316 318 319 319 319 319 320 320 323 324 325 321 319 319 313 320 321 322 327 330 330 336 337 342 344 343 342
304 302 305 306 304 306 310 310 313 313 313 314 314 314 315 317 317 317 318 317 319 320 320 320 319 321 323 322 324 324 321 317 317 317 320 321 323 323 326 329 335 343 344 344 344
303 303 304 304 302 303 311 310 311 312 312 313 313 313 312 315 314 316 318 318 319 319 318 318 318 320 320 321 324 324 323 318 321 318 318 321 323 327 324 326 334 339 341 342 343
301 300 305 305 304 304 306 310 310 311 312 313 313 312 314 315 317 316 319 319 316 319 319 323 318 320 319 319 319 322 323 322 314 315 320 322 321 321 321 325 337 338 338 336 335
301 303 299 300 303 306 307 310 310 310 310 310 311 314 315 315 315 318 319 317 316 317 323 317 322 321 324 323 321 321 324 322 321 322 321 321 321 322 322 326 328 327 336 336 337
302 301 302 303 304 306 306 308 309 309 309 309 310 313 314 316 317 318 318 316 315 318 315 315 317 320 320 322 323 324 325 324 322 323 323 323 318 318 319 319 322 325 331 336 335
304 305 301 305 303 304 305 307 310 310 309 311 311 311 311 312 313 314 315 313 314 314 313 313 317 318 324 325 323 324 325 325 324 324 322 320 320 318 319 319 325 329 335 333 336
303 304 305 304 303 302 303 304 305 307 310 310 309 310 309 308 310 309 309 310 311 313 314 314 316 317 322 323 323 325 325 325 325 325 323 322 321 320 322 325 328 331 333 332 329

GFSSW_925_thetae_027.txt.gz
Theta_e
311 310 307 304 303 302 302 301 301 301 301 301 302 304 305 305 306 310 314 314 315 325 341 351 350 352 352 353 348 344 346 351 351 351 353 353 356 351 350 352 349 350 348 347 349
311 309 308 306 305 303 302 302 302 302 301 302 302 303 304 305 311 317 316 315 315 324 348 354 352 355 356 352 351 347 345 345 342 343 351 354 354 353 354 352 354 351 348 349 349
310 308 307 308 308 307 305 304 303 303 302 303 302 303 304 309 318 312 319 322 315 323 329 346 348 351 355 348 351 346 351 345 344 346 349 353 354 352 354 354 354 352 350 349 348
309 307 306 306 308 308 307 305 303 303 303 304 303 303 308 314 312 318 320 324 316 322 335 339 330 343 338 346 349 351 347 347 345 343 344 352 351 354 352 351 350 347 348 348 348
305 304 304 304 303 304 304 303 303 304 305 304 306 305 315 318 312 318 318 323 317 327 326 324 322 332 323 322 340 351 347 342 344 344 342 349 352 354 353 349 349 348 348 348 347
304 303 303 303 303 303 302 302 303 305 306 306 310 311 314 306 313 315 314 323 320 327 325 323 322 319 321 322 325 327 334 333 333 335 342 351 352 351 353 350 352 351 349 348 348
304 304 303 304 303 303 302 303 305 307 307 309 312 315 318 308 314 317 316 317 322 321 323 324 323 321 319 321 323 327 329 329 328 329 338 346 351 354 349 351 354 353 351 350 348
305 304 304 304 304 303 303 304 307 308 313 313 314 318 313 311 313 314 316 317 318 324 322 323 324 319 323 323 324 325 325 327 329 336 335 341 346 350 349 352 355 354 353 352 350
304 304 304 304 304 304 304 306 310 316 311 314 318 318 315 317 322 316 314 315 317 324 324 324 321 321 322 323 321 320 327 326 326 336 340 338 342 352 350 352 355 355 354 353 351
305 304 304 304 304 304 306 311 315 322 322 321 322 320 317 319 327 324 320 316 319 318 321 323 321 320 317 318 325 324 324 324 325 329 340 340 342 353 351 352 355 354 354 354 352
305 305 305 304 304 305 306 312 308 310 318 320 323 321 319 321 324 321 317 316 318 320 320 321 323 322 322 319 321 324 324 324 325 329 340 340 340 354 351 350 350 354 354 354 353
305 304 304 304 303 308 305 306 308 308 308 310 310 312 316 319 319 319 318 317 318 318 319 319 324 323 322 321 321 322 322 323 323 328 337 338 341 342 352 352 350 350 351 352 352
304 304 304 304 304 306 305 308 306 307 305 308 310 311 312 315 318 318 318 318 319 318 317 322 320 320 323 323 322 320 321 323 323 324 337 340 342 341 352 352 351 350 348 348 348
303 303 303 303 304 303 306 306 307 308 307 312 311 310 312 316 317 318 323 320 319 320 318 317 318 321 321 323 322 321 320 322 323 324 324 338 346 342 348 354 352 350 349 348 347
302 303 303 302 304 304 305 306 309 305 320 321 314 313 311 314 316 317 321 321 320 320 317 318 319 319 321 322 321 324 323 322 323 323 324 328 339 336 342 348 345 346 347 347 347
302 302 302 304 303 304 305 305 307 310 316 318 316 314 313 314 314 318 320 321 320 319 319 321 320 319 320 322 322 323 323 320 322 320 323 325 327 328 343 342 341 338 343 345 345
301 302 302 304 304 304 304 305 308 311 315 318 315 315 315 314 315 319 321 322 322 322 321 320 320 321 321 321 321 321 317 321 319 321 324 321 326 327 332 340 340 339 338 342 343
301 302 303 304 306 304 306 305 309 314 312 314 315 314 317 316 315 315 322 323 323 320 322 323 325 321 319 321 322 319 319 317 319 320 323 322 327 327 331 335 339 339 338 338 341
302 302 304 306 305 305 304 309 309 311 314 315 315 315 316 316 315 316 314 324 325 318 321 321 324 322 324 320 322 320 319 318 316 319 318 322 323 325 329 333 335 338 337 338 339
302 303 304 304 303 306 306 310 310 312 313 313 315 314 314 315 316 315 316 316 316 322 318 317 320 318 322 322 319 321 315 319 310 321 321 318 321 323 328 329 332 339 338 339 339
303 300 303 303 304 304 308 308 310 310 311 312 313 313 313 313 314 314 316 317 318 319 317 316 316 320 319 320 324 322 319 316 314 313 320 319 320 319 324 327 330 334 339 340 339
300 301 303 303 300 299 305 306 309 310 310 311 312 312 313 314 315 313 314 316 317 318 319 317 311 320 321 319 321 322 323 316 317 317 315 320 320 322 322 324 325 327 334 337 340
298 297 304 303 304 304 305 308 309 309 309 310 311 310 313 314 314 317 318 317 316 316 321 320 318 316 316 317 317 319 321 321 319 315 322 319 319 317 320 323 328 328 333 334 338
301 302 298 298 301 305 305 307 309 308 309 309 310 313 313 314 313 316 317 317 314 315 320 314 314 317 319 318 318 318 320 321 320 321 323 321 320 320 319 319 321 326 330 333 335
303 302 299 302 302 303 303 306 310 310 309 308 309 310 312 314 316 316 315 314 312 315 312 312 317 316 318 319 320 320 319 320 320 322 323 323 317 317 318 318 318 319 320 327 330
304 304 304 303 304 302 302 306 308 306 307 310 310 308 309 310 311 311 311 312 312 312 310 310 317 315 319 319 321 322 321 321 321 322 320 321 317 316 318 317 318 318 319 325 331
303 303 304 305 304 304 303 303 303 305 307 309 307 307 308 309 308 307 307 307 309 311 310 312 315 316 319 318 320 323 322 322 322 322 322 321 320 317 317 317 317 318 319 324 325

GFSSW_925_thetae_030.txt.gz
Theta_e
311 311 311 311 310 310 310 308 306 304 303 302 302 303 303 304 306 310 311 312 314 315 351 352 350 348 352 352 347 342 345 348 352 353 352 352 354 351 348 350 348 347 347 345 348
310 310 310 310 310 309 309 309 308 305 304 303 303 303 303 306 313 315 315 313 313 318 354 352 351 350 354 355 351 346 345 347 342 343 350 354 353 352 352 350 353 349 347 347 348
310 310 309 310 310 309 307 306 305 305 303 304 305 304 304 311 315 310 317 321 312 317 343 349 350 352 356 350 352 347 353 345 344 347 347 353 354 351 352 352 352 351 349 348 348
308 306 306 307 308 308 306 303 303 303 304 306 306 306 310 314 312 319 319 323 313 329 346 349 350 355 352 353 351 351 347 347 346 342 350 353 351 353 348 348 347 347 347 349 347
306 304 305 305 305 307 306 305 304 304 305 307 309 310 315 316 310 318 317 323 331 341 344 345 352 350 333 337 348 352 346 344 344 343 342 349 353 353 352 348 347 346 348 349 348
305 305 304 304 305 305 305 306 305 304 305 307 312 313 312 304 311 312 316 318 342 336 336 328 334 334 325 326 337 333 342 341 338 332 339 347 352 351 352 348 347 348 349 348 348
306 306 305 305 305 304 304 304 305 306 307 310 313 313 317 305 312 312 320 318 326 331 322 324 322 328 321 322 320 323 325 326 327 327 333 344 353 354 350 350 349 348 348 348 347
305 305 305 304 304 304 304 306 308 310 314 316 315 316 309 309 310 311 320 324 320 326 323 325 323 319 320 321 321 323 324 326 326 328 328 347 351 352 349 351 352 350 349 348 347
305 305 304 304 304 303 306 307 315 316 313 315 315 315 311 315 318 312 313 315 325 324 323 322 321 320 320 321 320 320 325 324 326 327 338 344 341 347 349 352 353 352 350 349 348
304 303 303 303 303 303 307 314 322 321 318 319 319 317 315 317 321 321 314 313 318 319 322 322 318 319 316 318 319 322 322 323 325 329 337 339 339 346 350 353 354 353 351 351 349
303 303 303 302 303 304 306 310 306 308 309 322 321 318 318 319 321 317 315 315 317 318 319 320 322 323 320 318 320 322 323 325 324 326 338 338 339 352 351 352 354 353 353 352 351
302 302 302 302 302 306 307 306 305 305 307 308 308 311 317 316 317 318 316 315 317 319 318 318 323 322 321 319 321 321 322 322 322 323 334 334 337 350 352 353 352 354 353 353 351
302 302 301 302 302 303 305 305 304 306 305 308 308 310 310 312 314 316 314 315 317 317 319 322 320 322 323 321 322 320 322 322 324 323 330 336 337 342 352 350 350 352 351 351 351
303 302 302 301 302 303 303 304 304 306 306 311 309 310 313 311 313 316 316 318 318 320 315 318 319 323 322 323 320 319 319 322 322 321 323 332 334 339 344 353 350 348 351 352 351
303 303 302 302 303 303 303 304 304 303 319 319 311 311 311 313 315 315 319 319 318 318 317 319 317 320 322 323 320 324 320 320 320 320 321 325 331 333 338 354 353 350 348 347 347
302 302 302 303 303 303 304 304 304 312 318 318 313 312 312 312 313 316 318 320 317 319 318 318 317 319 318 319 320 321 321 317 317 317 322 321 327 323 343 344 351 351 350 349 347
302 302 303 303 304 304 305 303 308 312 313 317 314 314 314 314 313 316 318 321 320 319 319 319 319 319 317 319 319 320 318 321 321 321 324 319 323 326 329 340 344 347 347 347 347
302 302 302 304 303 305 305 304 310 312 312 313 314 313 315 314 315 315 317 321 320 319 319 320 320 320 318 318 319 318 317 319 322 321 323 318 323 323 323 333 338 340 342 341 344
302 302 303 305 303 304 302 306 308 310 313 313 313 314 314 314 315 315 314 320 322 317 321 318 320 321 319 319 320 317 320 316 316 316 316 318 319 322 324 325 334 337 337 338 337
303 301 302 303 303 304 305 308 308 310 310 311 313 312 313 312 314 312 314 316 318 318 315 318 322 319 320 319 319 317 315 320 311 321 320 318 318 324 326 327 327 334 336 337 337
302 298 302 303 303 302 304 306 308 309 310 310 311 312 311 313 313 312 313 317 316 318 317 314 315 318 319 321 322 318 317 314 316 314 319 318 320 316 322 325 326 328 335 336 335
298 299 302 303 300 298 303 304 307 309 307 309 310 312 313 314 314 313 317 317 315 316 321 320 310 318 318 318 321 322 321 314 318 317 312 315 320 318 318 323 325 326 328 334 335
297 297 303 302 302 301 303 305 306 309 308 308 309 312 312 313 313 316 316 316 314 316 321 318 315 315 316 317 317 319 320 316 318 314 319 319 321 320 318 320 321 322 323 327 334
298 300 297 299 298 303 303 303 307 308 310 308 308 310 311 312 312 314 316 315 312 316 318 314 313 315 319 319 318 317 318 319 320 321 322 320 319 319 319 319 319 322 325 329 332
298 301 302 300 301 304 302 302 307 307 306 308 311 308 308 311 311 312 312 311 311 313 310 311 316 316 317 317 318 319 319 319 318 321 322 323 322 320 318 318 319 320 324 324 329
300 304 303 303 303 304 302 302 304 304 305 307 311 308 306 308 309 309 308 310 310 310 309 308 315 315 317 318 318 319 319 320 320 318 318 321 320 316 318 317 318 319 319 320 322
303 303 302 304 303 304 303 303 303 303 304 308 307 307 306 308 306 305 304 305 307 309 309 309 313 315 318 317 318 319 318 319 319 318 319 319 320 318 317 317 318 319 318 319 319

GFSSW_925_thetae_033.txt.gz
Theta_e
311 309 306 306 307 308 307 306 305 305 305 305 304 304 304 303 305 311 313 312 313 321 342 347 348 349 353 354 350 344 350 355 350 354 352 356 357 351 349 351 348 349 348 346 347
311 309 307 306 306 306 307 306 305 304 304 305 305 305 305 305 312 314 313 312 312 319 346 347 347 349 353 355 355 348 355 353 346 348 346 355 355 354 353 351 350 351 347 346 347
309 308 307 306 306 307 307 310 307 305 305 305 306 309 306 311 315 313 318 318 311 320 341 345 347 349 353 355 358 356 357 352 345 346 349 355 355 353 354 353 350 353 350 348 347
310 309 308 307 306 306 306 304 305 305 306 306 309 311 310 314 315 316 320 325 314 340 345 347 349 350 352 358 357 356 353 351 348 347 352 355 354 355 353 348 346 349 348 348 348
307 306 306 305 305 305 304 304 304 305 306 308 311 313 314 316 311 313 316 321 341 341 344 347 350 350 353 353 354 359 352 346 347 345 343 352 354 355 354 348 348 349 348 349 348
305 305 304 304 304 303 303 304 306 305 306 310 312 314 313 307 309 311 317 328 342 340 341 343 348 348 346 342 348 341 347 342 333 336 338 345 347 353 353 349 351 350 349 348 348
304 303 303 303 303 302 303 305 306 308 308 311 314 314 316 310 310 311 322 333 340 336 339 337 342 342 336 328 331 328 327 328 328 330 332 336 343 354 351 351 352 351 349 348 348
303 302 302 303 302 301 302 306 316 316 314 315 315 314 312 308 309 324 327 327 340 332 331 332 329 340 325 323 324 326 327 330 329 329 330 336 336 344 351 353 353 351 350 350 349
302 302 302 302 302 302 304 306 318 315 318 317 315 317 312 315 313 310 316 324 337 331 324 326 325 327 323 325 324 324 327 329 330 329 335 339 337 341 351 353 354 352 351 350 350
303 303 302 302 302 303 305 314 320 318 317 318 317 317 313 316 317 312 313 322 326 327 325 323 324 325 324 324 325 324 325 326 329 331 337 339 341 344 352 354 355 353 351 351 351
303 303 303 302 302 302 308 308 310 312 308 325 323 317 320 318 320 316 312 319 320 322 321 323 323 325 324 323 322 322 324 328 328 328 337 339 341 343 352 354 355 355 353 352 351
302 302 302 302 302 303 307 307 304 303 309 310 308 312 316 317 319 318 313 316 318 319 320 324 323 322 322 323 323 322 323 326 327 326 329 333 339 341 351 355 355 356 355 353 351
301 302 302 302 302 303 304 304 303 304 309 311 310 312 313 314 317 319 316 316 318 319 320 322 322 322 323 324 324 324 322 323 326 327 328 333 333 339 348 352 353 354 353 353 352
302 302 301 302 302 303 304 303 304 304 313 316 312 313 312 315 317 317 317 318 318 320 321 321 322 323 323 324 325 323 323 322 324 326 330 332 336 339 341 353 354 353 355 354 353
301 301 302 302 303 305 304 304 304 304 318 318 312 311 313 318 317 317 317 319 321 320 321 322 323 323 324 323 325 323 323 323 323 326 328 329 333 335 342 351 354 353 353 353 352
301 301 302 303 303 303 304 304 304 313 318 319 313 313 315 315 315 317 318 320 321 322 321 322 320 323 325 324 325 325 324 325 325 326 328 329 330 334 335 341 347 351 351 352 353
301 301 302 303 304 303 304 306 313 316 316 318 317 316 316 316 315 318 320 321 323 323 324 323 321 322 323 325 325 325 325 327 327 327 328 330 330 333 333 336 336 346 351 351 351
301 302 303 304 304 302 305 307 313 313 314 314 315 316 317 316 317 317 320 322 324 323 324 324 324 322 322 324 324 326 325 324 326 326 326 328 330 331 330 331 336 338 344 349 351
302 302 302 302 302 302 308 305 311 313 312 312 314 317 317 315 315 317 320 322 324 323 324 324 323 322 321 322 324 324 327 324 323 322 324 326 328 328 329 331 334 339 340 345 349
303 300 302 302 303 305 306 308 310 310 310 312 314 314 316 315 317 317 320 319 321 321 321 324 326 324 322 322 323 323 324 323 325 324 325 326 327 328 333 332 332 335 338 341 343
301 303 302 303 302 306 307 307 307 308 310 311 312 313 314 315 315 316 319 317 316 320 322 322 323 323 324 324 324 322 324 324 324 324 324 324 324 328 332 337 336 334 336 338 340
300 303 302 303 304 304 305 304 306 308 309 310 311 313 315 315 315 317 320 319 314 319 324 321 321 326 325 324 324 324 324 325 325 328 325 324 324 326 328 329 333 333 335 336 340
303 301 302 302 305 305 304 305 305 308 310 310 311 312 313 315 316 317 318 315 315 319 321 320 323 328 326 324 322 325 325 325 325 326 328 325 325 326 325 326 329 331 333 334 336
304 304 303 302 302 303 303 305 305 306 308 310 311 309 311 314 314 315 315 314 312 315 317 318 320 325 328 327 323 325 324 325 325 328 327 327 325 326 327 327 329 330 331 332 335
304 304 303 304 303 304 304 304 306 306 304 307 309 310 309 312 312 313 312 312 312 313 313 317 321 319 319 318 319 321 322 322 325 327 329 327 328 327 327 328 329 330 332 334 334
305 305 303 302 304 305 304 304 304 304 304 304 310 310 308 311 310 311 309 311 312 313 313 313 316 317 317 316 318 321 321 321 322 323 323 325 327 327 326 328 331 331 333 335 331
304 304 303 303 304 305 305 304 304 304 304 306 306 306 306 308 306 307 307 307 308 310 311 313 314 315 316 317 318 321 321 322 322 322 323 325 324 325 325 327 328 329 332 335 333

GFSSW_925_thetae_039.txt.gz
Theta_e
312 311 307 307 308 309 309 309 308 310 311 309 310 307 307 308 307 318 318 317 318 317 332 334 343 348 350 353 354 355 360 356 349 352 351 349 349 349 350 352 352 352 354 352 350
310 306 304 304 306 306 305 306 308 308 308 309 310 310 308 308 316 317 317 318 316 315 336 335 341 347 351 351 352 355 360 356 347 347 349 350 347 348 350 351 352 354 352 351 350
305 304 303 303 303 304 306 306 308 307 307 308 309 309 308 310 322 321 319 317 315 319 326 335 339 346 349 347 349 351 356 355 345 347 347 347 349 346 348 351 352 356 355 351 351
303 303 302 302 301 302 303 303 305 305 306 307 307 306 308 318 323 329 320 318 316 322 323 334 339 347 348 348 347 351 349 350 346 346 349 349 348 348 347 346 349 351 352 351 352
302 302 301 301 301 301 301 302 302 304 304 309 312 309 316 321 319 326 317 322 320 321 324 334 338 343 347 344 346 349 349 349 348 346 346 349 350 354 349 345 348 350 351 352 351
301 301 301 301 301 301 301 302 304 308 310 317 315 313 318 322 319 319 321 325 320 326 325 330 335 339 343 343 345 346 347 349 345 345 343 345 346 347 351 348 351 351 353 352 351
301 301 301 300 300 301 301 302 307 313 317 317 318 315 322 323 319 316 317 327 325 327 327 329 331 339 342 342 342 346 346 348 347 344 340 341 344 347 350 351 353 353 352 352 352
300 300 300 300 301 301 302 304 312 320 318 316 315 317 326 324 322 318 319 326 328 329 328 329 331 338 341 342 340 346 345 346 342 341 339 338 343 341 345 354 354 353 352 352 351
300 300 300 300 301 302 303 306 318 318 316 316 320 322 328 319 319 321 321 326 329 332 332 331 334 338 339 342 341 338 345 346 341 339 339 338 341 341 343 351 355 355 354 352 351
300 300 300 301 301 303 306 309 315 318 321 322 323 325 324 324 322 318 320 327 333 334 334 333 335 338 340 342 341 336 341 341 341 340 339 339 340 342 342 348 352 356 355 354 351
301 301 301 301 302 307 309 313 318 326 324 328 328 326 326 324 320 318 325 327 333 335 336 334 337 341 336 341 339 335 339 339 342 339 340 340 341 341 342 347 351 355 356 355 353
302 301 301 301 306 308 310 312 311 309 313 313 314 316 322 324 325 319 325 326 335 337 334 335 338 334 332 333 338 339 338 340 339 338 339 340 340 339 341 348 350 353 355 355 354
302 301 301 302 307 309 310 309 309 310 313 314 316 316 320 325 327 325 321 324 335 336 331 330 331 330 327 331 336 336 337 337 338 338 338 338 340 341 340 345 350 351 352 353 354
302 301 302 304 307 309 310 307 309 310 315 317 319 319 319 322 326 326 319 324 334 336 330 327 327 326 326 327 329 331 332 333 334 337 341 337 340 340 339 343 347 351 352 352 353
302 302 303 307 310 311 307 307 308 311 318 321 320 319 321 321 327 326 322 323 327 328 332 329 325 326 326 326 326 328 328 331 332 334 336 338 340 339 339 340 344 345 350 351 352
302 303 304 307 308 307 307 307 311 316 317 322 319 320 321 322 324 327 325 322 325 326 329 329 326 326 326 326 326 327 327 328 330 331 336 336 337 339 338 340 341 342 343 348 351
302 304 305 306 308 306 307 310 312 312 318 322 321 322 322 323 324 327 326 322 326 326 327 327 328 327 326 327 326 326 327 327 328 332 333 334 336 338 337 337 339 340 342 344 349
302 306 308 307 306 306 308 312 311 311 317 316 316 318 320 323 324 326 327 328 323 326 327 328 328 327 327 326 327 326 326 327 330 329 329 331 336 336 336 337 337 339 341 343 346
306 309 308 306 306 307 311 310 310 313 312 312 314 321 322 324 324 326 326 328 327 324 326 329 329 328 327 326 327 329 329 327 328 329 329 329 331 332 334 336 337 338 340 341 344
308 309 309 306 306 308 311 309 308 308 308 309 311 316 321 323 324 325 326 326 328 326 327 330 333 330 327 327 327 329 329 327 328 333 332 330 332 332 334 335 336 337 338 339 342
309 310 308 306 308 310 309 308 308 307 307 308 309 312 316 318 321 325 326 325 325 327 328 330 333 333 331 328 328 328 330 329 328 329 330 333 332 332 335 335 335 337 338 338 339
310 312 308 306 310 309 309 308 306 307 307 308 309 311 312 315 320 322 325 325 319 323 328 329 331 334 332 329 328 329 329 331 330 333 329 331 332 331 332 333 335 335 337 338 339
312 311 308 307 309 309 309 307 307 307 307 307 309 311 313 316 319 322 323 321 318 323 328 330 331 335 335 331 329 329 329 330 330 330 333 331 332 332 331 331 334 335 337 339 340
311 311 310 309 309 308 308 307 307 307 306 307 309 310 311 313 314 319 321 319 317 318 320 324 330 334 337 335 331 330 330 329 330 333 332 332 331 332 332 333 334 335 336 337 338
310 309 308 310 309 308 308 307 307 309 307 307 310 311 310 313 314 317 318 318 318 319 321 324 332 332 333 333 332 331 329 329 330 331 332 331 332 333 332 333 332 333 334 335 337
309 309 307 309 308 307 307 308 307 307 306 306 308 307 308 312 312 314 314 316 318 319 319 322 327 331 334 332 331 331 332 330 330 330 331 331 332 332 333 332 332 332 332 332 333
305 304 308 308 308 308 309 307 306 306 307 307 308 307 307 309 309 310 311 313 313 315 317 320 324 331 334 332 331 332 331 332 331 330 330 332 332 332 333 333 332 332 333 333 333

GFSSW_925_thetae_042.txt.gz
Theta_e
309 307 304 304 304 305 308 309 306 308 308 307 310 307 308 308 309 317 317 315 317 318 315 331 329 342 349 353 350 350 367 368 355 352 351 348 352 351 350 357 355 355 356 353 350
306 303 302 302 303 305 306 306 307 305 304 308 307 308 307 309 317 318 316 318 317 318 319 328 332 343 351 351 351 355 361 360 353 348 351 348 347 350 350 351 357 356 354 351 350
301 301 301 301 301 301 302 303 305 307 303 304 306 307 306 311 322 321 321 318 318 318 320 328 332 343 350 348 350 351 356 352 353 349 349 348 345 347 349 352 357 358 356 352 350
301 300 300 300 300 301 301 302 303 302 304 306 305 307 306 318 325 326 318 320 318 318 321 327 333 339 348 349 348 351 348 349 349 349 350 352 349 348 346 349 354 353 352 352 351
301 300 300 300 300 300 301 302 302 303 307 308 309 314 315 321 320 322 319 320 320 318 323 326 335 339 347 347 347 347 349 350 351 350 350 350 350 347 347 348 352 352 352 352 351
300 300 300 300 300 301 301 302 302 306 314 318 317 316 317 324 324 322 325 327 321 319 324 324 333 337 343 346 346 346 346 348 351 345 350 351 351 347 348 346 351 352 352 351 351
301 300 300 300 300 301 302 304 304 309 318 319 319 316 318 323 324 320 322 327 324 321 322 324 327 335 339 344 343 344 346 347 348 344 344 342 353 352 349 347 349 351 352 351 350
302 301 300 300 301 302 304 307 308 311 318 317 321 318 322 326 324 323 318 321 324 322 322 325 325 332 337 340 343 343 345 349 346 346 343 340 344 352 348 350 351 351 351 352 349
303 302 301 301 301 306 309 311 311 312 320 318 320 320 328 326 326 325 321 319 327 326 326 327 327 330 333 341 345 344 347 349 347 345 344 340 341 341 350 350 353 352 351 351 352
302 302 301 301 302 308 310 312 312 315 321 321 323 326 326 328 326 325 324 321 327 329 331 330 330 330 333 341 349 347 344 346 347 342 341 341 340 342 342 351 353 355 353 352 351
302 301 301 301 303 308 308 312 312 323 314 321 327 325 327 328 325 324 324 323 327 330 334 334 333 336 335 338 341 342 341 339 343 344 341 341 341 343 343 344 354 353 355 353 352
302 302 301 301 304 309 310 312 310 310 312 313 314 315 318 324 326 324 322 323 328 332 334 335 336 334 334 336 339 341 340 336 339 341 342 341 341 339 344 345 353 355 356 355 352
302 302 302 303 306 311 312 309 308 310 312 311 313 315 315 318 323 327 322 325 329 333 335 336 334 333 334 336 336 341 340 337 338 341 342 341 342 342 342 342 347 353 353 354 354
302 302 302 303 308 311 310 308 308 310 312 315 317 318 316 317 322 328 322 328 329 332 336 335 334 333 334 336 333 339 339 338 338 340 344 340 343 345 340 343 348 350 351 354 355
302 302 304 303 308 312 308 308 309 311 316 321 320 321 320 317 324 326 327 326 328 332 335 337 334 333 334 334 332 331 332 337 338 337 338 339 340 341 341 342 348 349 351 351 354
302 303 305 309 310 310 307 308 310 313 314 321 321 320 322 319 319 323 328 326 327 329 334 336 332 330 328 330 328 328 331 332 333 335 338 337 340 343 341 343 341 346 351 351 353
302 305 306 308 310 307 307 310 311 312 314 316 315 316 317 321 322 320 328 329 324 326 338 335 335 329 327 327 327 327 327 330 331 334 335 334 336 340 339 341 341 346 346 351 352
303 307 309 310 308 307 308 311 312 311 312 312 311 312 316 320 323 324 324 329 324 324 330 332 334 333 327 327 328 327 326 329 333 332 331 333 336 337 337 338 338 342 343 345 349
306 310 312 310 308 308 311 313 311 310 310 309 308 311 314 317 320 324 326 328 328 323 331 331 331 331 330 327 328 327 328 327 327 329 329 330 332 332 336 337 338 337 342 344 347
308 311 313 310 308 310 312 311 310 309 308 307 307 309 309 312 315 320 324 326 328 324 326 329 331 330 330 329 327 328 328 327 328 332 334 330 335 335 336 339 338 339 339 343 345
311 314 311 310 309 312 312 310 310 309 307 307 308 308 309 312 315 317 323 324 325 327 327 326 330 330 331 330 329 328 329 328 327 328 331 333 333 336 339 338 339 339 340 341 346
310 315 312 309 311 311 310 310 307 309 308 308 308 308 312 314 316 319 323 325 325 322 326 329 327 331 331 331 329 329 328 330 332 335 331 334 332 333 336 337 338 338 340 340 343
312 314 312 310 311 310 310 309 308 309 309 309 308 307 308 310 314 319 320 320 320 321 323 325 331 332 332 334 331 330 329 329 331 330 336 334 331 334 335 338 338 338 339 342 344
312 314 312 310 311 310 310 309 308 307 309 309 310 309 309 310 311 316 316 317 318 320 328 322 329 333 335 336 334 333 329 330 329 333 332 333 333 333 333 332 338 340 341 342 347
310 311 310 311 310 311 311 309 309 310 309 308 308 311 312 310 311 313 315 315 317 322 322 325 332 332 333 333 334 330 329 330 331 333 334 332 333 335 336 336 337 339 341 343 347
310 309 307 309 310 310 311 311 310 308 308 307 308 310 311 310 310 311 311 313 318 317 317 322 329 331 334 333 333 335 331 330 330 330 331 332 332 335 336 337 338 341 340 342 343
308 306 306 307 309 310 310 309 309 309 308 307 308 308 308 308 308 308 308 310 313 314 316 320 325 329 334 334 334 336 334 331 331 331 331 334 335 336 337 337 338 337 337 335 334

GFSSW_925_thetae_045.txt.gz
Theta_e
306 305 304 304 303 303 303 302 302 304 307 303 303 304 307 308 308 315 318 311 312 318 323 331 327 329 346 353 354 354 363 366 363 353 352 350 356 355 353 355 354 352 353 350 341
303 302 301 301 302 302 303 304 306 306 303 304 305 305 307 311 314 317 314 314 314 317 318 320 329 327 338 353 354 353 360 361 353 352 350 347 350 357 358 359 358 355 351 347 345
301 300 300 301 301 301 301 301 307 305 302 304 307 305 306 309 321 320 323 316 315 316 317 318 324 328 341 348 350 351 360 353 352 350 350 348 348 347 358 362 358 357 353 349 350
301 301 301 300 300 300 301 301 303 303 303 308 310 311 312 316 322 321 319 321 316 318 319 319 322 329 339 350 349 352 353 349 348 347 350 350 347 348 357 359 354 353 351 349 350
302 301 301 300 300 300 301 302 303 305 306 316 317 313 314 318 318 321 321 320 320 318 319 318 322 329 335 345 347 347 349 348 347 346 350 347 346 350 357 356 353 351 351 350 349
302 302 301 301 300 301 303 305 307 308 308 318 320 316 316 319 321 323 324 322 324 320 319 318 324 329 333 338 345 345 347 348 346 347 348 344 347 346 356 353 354 353 351 350 349
302 302 301 301 301 302 307 308 308 309 309 317 321 317 317 314 321 324 324 323 322 319 317 319 323 325 333 338 341 344 346 350 350 350 352 348 349 348 354 353 354 354 352 350 349
302 302 301 301 301 303 307 309 310 311 310 319 320 320 320 318 322 322 322 327 321 320 318 320 324 322 325 334 339 342 344 345 347 347 348 350 353 350 350 354 355 354 353 352 349
302 302 302 301 301 303 308 310 311 312 314 318 321 321 323 324 323 324 323 325 324 323 321 320 321 322 323 331 336 339 345 344 347 344 347 349 350 350 346 352 355 354 353 351 350
302 302 302 302 301 304 307 310 310 319 322 321 322 322 322 325 327 326 324 322 321 323 323 322 322 324 322 328 336 340 343 342 346 346 346 342 340 349 348 348 352 353 351 350 352
302 302 302 302 302 307 308 310 308 314 314 308 310 318 312 324 321 326 325 324 319 325 326 326 326 327 324 327 331 340 343 343 341 344 343 342 339 351 347 352 356 356 351 350 349
302 302 302 302 302 308 311 309 307 308 307 309 310 311 312 313 317 321 326 324 321 325 326 329 330 327 328 328 329 337 342 343 340 339 341 339 339 340 348 355 354 355 352 350 349
302 302 303 303 304 310 310 308 308 308 307 309 310 311 311 312 314 317 321 324 321 324 326 330 332 331 331 329 330 334 338 340 340 336 336 340 341 340 348 351 347 352 353 349 349
303 304 304 304 307 308 311 309 308 308 308 313 315 315 315 313 314 318 321 323 323 323 326 329 331 333 333 331 331 335 336 339 340 338 342 341 344 339 341 351 353 356 356 350 349
304 304 305 305 307 310 310 309 308 309 313 318 314 315 312 313 314 318 319 321 322 323 327 330 333 333 333 333 332 335 334 336 338 339 338 342 342 341 337 340 353 356 353 349 350
303 305 306 307 308 310 309 308 308 310 314 313 312 311 310 311 316 320 318 322 321 322 328 329 333 332 332 332 332 333 333 331 336 338 340 335 342 342 340 339 354 354 352 351 352
303 307 308 307 310 309 309 308 310 311 312 311 308 308 308 310 313 314 317 322 325 323 329 329 330 333 332 332 331 332 330 330 330 334 337 330 333 333 337 337 340 348 351 349 351
302 309 311 311 311 311 308 308 313 312 309 309 308 308 307 309 311 312 313 320 325 324 326 329 331 332 333 330 330 331 330 327 332 333 333 328 331 332 331 333 337 345 349 351 350
303 310 312 313 313 310 309 311 312 309 309 308 307 306 306 307 310 311 313 317 324 327 325 325 327 334 334 329 326 327 326 323 323 326 326 327 327 327 329 330 331 335 348 349 349
306 311 314 312 311 310 310 312 311 309 308 307 306 307 307 308 311 311 313 316 318 323 318 323 322 331 333 333 327 324 323 323 322 324 326 326 328 329 327 328 330 331 340 346 349
308 313 311 311 311 311 311 312 311 309 309 309 307 306 306 308 311 312 314 315 319 319 318 321 322 322 327 332 332 324 324 323 321 322 325 329 329 327 328 329 329 331 332 340 347
308 312 313 310 312 311 311 310 308 308 308 309 309 308 308 308 308 309 311 313 316 316 317 319 323 323 323 326 330 327 324 323 324 324 323 323 326 330 331 330 330 331 332 337 344
309 312 311 309 311 312 311 311 309 308 307 309 309 309 308 309 312 314 315 314 315 315 316 319 322 328 325 324 325 328 325 324 323 324 325 325 325 331 330 331 330 333 332 335 342
310 311 310 309 308 309 310 311 311 310 310 309 308 308 309 309 310 313 311 314 313 313 317 321 322 323 329 326 327 329 328 325 324 326 325 328 327 331 332 332 333 334 336 335 342
309 310 308 309 308 308 309 309 312 312 310 309 309 308 310 309 310 311 311 311 310 313 315 315 319 324 329 329 330 331 328 327 325 325 329 327 330 331 337 336 337 336 337 340 340
309 310 307 307 307 308 309 310 310 309 310 310 308 308 307 310 310 309 308 309 311 312 313 312 319 324 333 332 331 333 332 328 327 326 326 328 326 332 333 336 336 336 336 338 340
308 307 306 307 307 309 310 310 311 310 310 310 310 307 308 307 307 307 307 307 308 313 312 311 316 322 331 332 334 336 334 329 328 328 327 327 328 333 335 336 333 333 333 332 331

GFSSW_925_thetae_048.txt.gz
Theta_e
308 304 303 303 303 304 306 308 307 307 310 307 303 305 310 309 308 312 317 312 311 330 331 332 335 337 348 350 353 344 359 360 362 360 357 353 358 354 352 355 353 351 348 344 342
304 303 302 302 302 303 304 306 309 306 303 304 305 309 311 311 313 316 316 315 312 313 330 333 331 328 340 351 354 360 360 358 353 351 351 353 356 356 356 357 355 352 347 342 342
302 302 301 301 301 301 302 305 304 303 304 306 308 313 312 311 319 321 322 319 315 314 319 329 328 324 327 337 354 358 358 355 351 350 350 349 356 356 358 360 355 354 345 339 338
302 302 301 301 301 301 301 303 305 306 307 307 313 317 313 314 323 320 319 321 315 314 317 318 317 324 328 340 346 353 352 351 348 347 349 350 346 359 358 356 352 349 341 337 337
302 302 302 301 301 301 302 304 306 307 308 307 315 318 314 317 315 321 322 322 316 320 319 318 317 319 328 336 342 350 351 351 349 347 348 345 348 356 358 353 350 347 343 342 346
302 302 302 301 301 301 303 305 307 308 310 309 317 316 315 317 315 319 319 323 318 323 319 317 317 318 327 329 341 345 348 347 349 345 347 349 347 351 357 353 351 349 350 349 348
302 301 302 302 302 302 304 308 309 309 311 310 318 317 317 315 315 320 322 323 321 320 318 317 317 322 325 331 331 335 342 346 348 347 349 348 349 363 356 354 353 351 350 350 348
302 302 302 302 302 302 306 310 311 310 312 312 320 318 318 314 315 317 318 324 325 319 317 318 317 319 321 322 323 336 338 347 350 349 350 347 351 360 355 354 355 352 350 350 348
302 303 303 303 303 303 307 311 309 314 321 318 320 319 321 318 322 324 319 324 323 321 317 318 317 319 321 321 321 331 337 341 349 349 351 349 349 359 355 354 355 352 351 351 348
302 303 304 305 304 303 310 310 307 318 322 320 322 321 317 320 315 315 323 323 320 318 318 317 315 317 319 318 325 331 339 339 342 349 350 352 347 356 355 355 355 353 352 351 349
304 304 304 306 305 306 310 309 304 303 311 306 306 320 313 310 310 316 318 323 322 320 319 318 318 320 320 320 322 330 335 338 340 342 350 348 350 350 356 355 356 355 353 352 350
303 303 304 306 305 308 309 306 306 307 303 306 307 307 307 308 309 311 317 322 320 324 321 323 322 320 324 322 322 325 329 336 339 339 342 347 349 349 355 355 355 355 354 353 351
302 302 303 307 305 307 309 309 309 308 303 306 308 308 308 308 309 310 313 319 322 320 324 324 327 325 326 326 324 325 327 329 339 338 337 343 345 351 349 353 353 353 352 351 349
302 302 303 306 306 308 309 308 308 307 304 309 311 311 309 310 311 314 313 317 322 321 319 324 325 327 328 327 326 326 326 328 334 338 340 339 347 343 349 353 353 353 352 351 349
301 303 305 307 308 308 308 309 309 306 307 313 308 309 307 307 309 314 313 316 320 321 319 322 326 327 328 328 328 327 327 328 332 336 337 338 342 342 348 358 353 349 346 345 349
301 302 308 308 307 308 309 309 306 307 312 310 307 307 306 306 308 311 312 313 318 320 321 322 324 326 328 329 330 329 330 331 331 332 338 337 339 340 353 357 353 348 347 346 349
301 303 311 309 307 310 311 304 306 308 308 308 305 305 305 307 308 310 311 312 316 323 322 322 322 325 329 330 330 330 329 334 333 334 335 333 333 336 348 352 351 349 350 349 349
301 307 311 312 312 312 311 304 310 310 307 306 305 304 306 309 309 309 311 311 318 319 321 321 322 323 326 330 332 330 329 331 337 332 331 327 334 334 330 335 350 349 350 351 345
301 309 312 311 311 311 303 306 308 309 307 307 304 304 305 306 309 310 310 313 315 317 319 320 321 326 327 328 330 330 330 324 322 322 325 327 327 326 326 326 348 351 352 352 348
303 308 310 310 311 309 304 308 308 309 307 306 307 304 304 305 308 310 310 311 311 315 315 318 321 322 327 327 329 328 325 327 318 328 324 323 324 330 326 325 325 350 353 352 348
305 305 311 309 310 303 305 307 308 307 307 308 308 306 306 306 307 307 309 308 313 315 314 314 316 322 322 322 330 325 327 325 324 318 325 322 325 321 324 324 324 335 350 350 348
304 306 310 309 306 304 307 308 309 309 308 308 308 308 308 306 309 309 312 312 311 315 315 315 319 323 323 322 321 332 321 321 323 320 318 320 325 325 323 324 324 325 346 348 348
303 304 309 307 305 306 306 309 309 310 310 308 308 307 306 307 309 312 311 310 312 314 316 315 322 323 323 320 320 321 328 320 317 317 319 323 324 321 323 325 327 327 327 346 348
303 306 303 302 302 306 307 309 310 310 310 309 308 306 307 307 308 310 311 312 311 310 312 315 319 320 324 323 321 322 323 322 321 321 321 321 323 323 324 325 330 325 327 334 346
302 304 304 305 305 305 306 307 310 310 308 308 309 308 308 308 307 309 310 309 308 311 312 313 317 314 315 317 320 322 327 325 321 321 323 322 324 323 322 326 329 329 329 338 347
304 305 301 303 305 306 307 309 311 311 310 310 310 309 309 306 307 307 307 308 309 309 310 310 313 312 313 321 325 327 331 330 324 323 323 321 323 322 327 330 334 336 335 339 346
306 306 305 307 307 308 308 309 309 309 310 310 309 310 309 307 305 304 306 307 309 310 310 311 310 311 319 326 330 332 326 331 326 323 322 324 322 331 334 339 340 328 330 335 338

GFSSW_925_thetae_051.txt.gz
Theta_e
306 305 303 302 303 305 307 305 304 303 303 304 305 307 313 312 310 313 315 312 312 326 323 319 336 341 347 351 354 344 356 360 357 359 358 354 358 356 351 353 351 348 347 344 345
302 302 302 302 303 304 303 303 304 306 307 307 307 308 316 315 313 315 316 316 312 328 332 343 340 338 348 351 354 357 358 356 353 354 354 357 356 356 356 355 352 348 344 343 344
302 301 301 301 302 302 302 303 304 306 307 309 307 313 317 312 317 318 322 318 314 329 323 333 333 327 330 343 353 356 359 356 352 351 349 352 353 355 357 357 352 349 345 343 343
301 301 302 302 302 301 302 303 306 307 307 309 308 316 312 314 319 320 322 321 315 328 328 325 323 323 327 336 342 357 356 355 348 349 350 349 351 358 357 356 349 345 343 342 342
302 302 302 302 302 302 303 305 308 309 309 311 310 315 314 314 311 315 318 324 317 316 320 318 318 322 328 331 338 351 351 352 353 349 346 347 348 358 357 353 345 343 343 343 340
303 304 304 304 304 303 304 308 310 309 311 314 314 316 316 311 312 319 318 322 323 319 318 315 316 318 323 327 341 343 346 347 348 349 346 347 352 357 356 350 345 343 342 340 337
304 304 304 306 305 304 305 311 310 308 319 312 316 316 316 313 315 314 316 323 323 317 316 317 316 319 320 329 328 333 338 337 339 347 348 348 348 356 354 350 347 342 340 337 342
302 302 304 305 307 305 307 310 309 309 320 315 319 318 318 315 317 320 320 316 323 320 317 317 317 317 321 321 321 332 331 336 337 347 347 346 351 360 353 351 350 345 340 339 342
301 301 302 303 307 305 309 309 308 313 319 320 320 317 320 318 317 313 311 319 324 322 318 317 315 315 320 321 319 322 333 338 338 346 350 348 350 359 353 351 351 350 349 347 346
302 301 302 304 307 306 308 308 307 317 319 319 320 315 314 311 309 309 314 320 319 319 317 316 313 314 316 317 330 323 333 335 336 348 350 350 348 360 355 354 353 351 351 351 348
301 301 301 305 306 307 308 307 302 302 306 305 305 311 308 309 309 310 311 320 318 316 316 315 314 316 316 320 321 327 334 337 337 338 350 351 350 362 356 355 355 352 350 350 349
301 301 301 307 306 307 308 305 306 307 303 305 305 305 306 307 307 309 311 321 321 319 317 316 317 316 317 319 320 321 322 328 332 335 348 350 352 358 358 356 354 353 351 351 349
301 301 302 309 306 307 308 308 308 308 301 304 306 307 307 307 308 310 311 315 320 321 320 320 321 318 320 320 321 320 321 323 329 336 340 342 351 350 359 356 354 352 351 349 350
301 302 303 309 306 306 307 308 309 306 302 307 306 307 306 307 310 311 311 312 318 321 321 320 320 321 319 322 321 320 321 323 327 332 339 337 345 351 357 359 356 354 353 351 350
301 301 306 307 307 306 308 311 309 304 307 309 305 308 305 305 306 310 311 312 315 315 318 321 323 322 323 323 323 324 322 324 325 328 334 334 338 345 353 361 358 355 353 352 350
300 301 310 310 307 307 309 311 305 306 309 307 306 305 306 306 307 308 310 314 315 320 317 318 318 322 323 325 324 325 326 325 327 327 334 332 336 336 353 353 356 354 353 352 350
300 305 311 311 308 310 311 303 305 306 307 307 305 303 305 308 308 309 314 317 319 323 321 321 321 320 323 324 325 326 324 327 331 332 334 329 334 336 343 345 348 352 352 350 348
300 305 310 309 309 309 309 303 309 310 306 306 305 303 305 307 308 309 309 314 316 317 319 321 324 321 321 325 325 326 325 328 333 333 336 328 333 334 339 342 344 347 349 348 345
301 306 310 309 309 309 302 305 307 309 307 305 306 303 303 306 307 308 309 309 317 315 319 321 321 317 318 322 326 327 330 326 326 320 327 330 326 328 335 342 344 346 347 346 346
303 305 308 309 309 307 302 307 307 308 307 306 307 305 306 304 306 306 308 311 313 314 314 317 320 317 319 321 324 328 325 329 322 329 326 323 326 334 327 329 344 347 348 346 345
304 303 308 308 307 302 306 305 309 309 309 307 307 307 307 306 307 306 308 311 310 313 314 315 316 319 320 321 322 325 329 327 327 324 334 324 325 320 326 326 335 341 344 346 346
301 305 307 307 303 302 306 307 308 308 308 307 307 307 307 306 308 308 311 311 310 313 315 315 318 322 322 321 319 319 325 320 331 328 318 328 331 321 321 321 331 341 344 346 346
302 301 307 306 304 304 305 308 308 309 309 308 308 306 306 306 308 310 310 311 311 312 314 316 319 319 322 318 319 319 321 325 320 318 322 331 330 320 319 320 321 324 331 342 347
302 304 301 299 300 304 305 307 309 309 309 308 308 306 306 307 306 307 311 311 309 309 315 314 317 318 321 319 316 318 317 317 318 325 320 323 326 320 320 320 320 321 324 336 345
299 302 302 303 303 303 304 306 310 311 309 308 309 310 309 307 306 306 308 309 310 311 312 313 315 315 314 314 314 315 316 316 319 320 324 323 317 318 319 320 322 328 325 326 332
303 304 301 302 303 306 305 308 309 310 309 310 310 310 309 307 305 305 306 305 308 309 310 310 313 312 314 313 313 315 316 318 319 324 318 318 319 317 332 339 341 338 327 325 333
304 305 305 308 307 309 309 310 309 309 309 310 310 309 309 308 306 303 302 302 305 307 309 311 311 313 314 314 318 323 324 325 325 322 326 321 326 332 342 342 340 341 338 330 339

GFSSW_925_thetae_054.txt.gz
Theta_e
302 302 303 303 303 304 303 303 305 306 306 307 307 307 309 313 312 313 313 314 313 316 320 347 344 345 347 350 353 343 352 356 357 359 358 353 355 355 350 350 349 347 346 345 345
303 303 303 303 304 303 303 303 304 306 307 307 309 308 312 316 313 314 310 313 314 316 329 346 340 342 347 351 355 355 353 353 351 353 356 357 358 355 355 353 350 348 345 344 345
303 304 304 304 304 303 303 303 305 307 308 308 311 309 315 312 314 314 325 324 315 333 324 333 335 342 346 348 354 357 358 354 352 351 351 354 355 354 356 356 350 349 347 344 346
303 303 304 305 306 305 303 304 307 309 309 310 311 313 314 314 316 319 315 322 314 335 335 332 334 328 334 340 349 357 355 356 349 349 348 352 353 357 355 354 347 344 344 344 345
302 302 303 303 306 306 304 306 309 309 308 313 311 315 314 311 309 319 319 320 323 337 330 322 331 322 335 334 340 355 352 351 353 352 347 347 355 358 356 349 345 343 344 344 343
302 302 303 303 307 307 304 308 309 308 315 315 311 314 315 309 313 314 325 321 328 329 323 317 326 321 325 330 339 341 347 347 346 346 348 346 349 356 353 345 345 343 344 344 343
301 302 302 303 306 307 306 309 309 308 319 314 315 316 315 313 313 316 326 322 323 323 317 318 318 321 320 327 326 332 333 334 336 341 347 345 349 358 349 345 345 345 344 344 343
301 301 302 302 306 305 308 308 308 309 318 317 317 317 316 316 317 314 311 319 320 320 316 317 317 317 320 321 320 327 330 338 337 340 346 346 352 358 348 345 346 345 345 344 341
301 301 302 302 307 306 307 307 308 319 317 319 320 317 315 312 316 309 309 316 323 320 318 317 315 315 318 320 321 319 336 338 341 340 348 348 350 357 350 345 345 345 344 342 340
301 301 302 303 306 307 307 307 311 319 318 318 319 314 311 308 309 308 313 317 322 320 320 315 312 312 313 317 328 325 327 335 339 339 347 349 351 357 352 347 344 343 342 340 340
301 301 302 305 306 307 308 306 301 303 304 304 304 305 306 307 308 309 311 319 316 317 317 313 313 315 315 319 322 324 330 334 334 335 349 349 352 360 354 351 349 345 342 340 339
301 300 301 307 306 307 308 303 305 306 304 303 303 304 305 306 307 309 311 321 318 318 314 314 315 314 314 314 320 321 322 328 330 334 347 347 350 360 356 353 351 350 349 347 345
300 300 304 309 306 307 307 306 308 307 301 303 305 306 305 306 308 309 309 312 320 319 316 315 316 315 315 316 317 319 320 321 329 330 337 346 348 358 358 354 352 350 349 349 349
300 300 310 311 306 306 306 307 310 306 301 306 306 306 305 304 308 309 309 310 315 321 320 318 318 317 316 317 317 316 320 323 322 327 332 339 344 345 360 359 356 353 351 349 348
300 301 310 310 308 306 309 310 307 302 305 307 306 306 303 305 305 307 311 312 313 314 318 322 320 320 317 316 317 317 319 320 321 326 327 328 336 334 352 363 358 355 352 350 348
299 301 309 310 308 308 308 310 303 304 307 306 305 304 305 305 307 307 314 313 316 319 316 315 317 320 321 319 318 321 323 321 323 322 329 326 332 335 352 356 358 355 353 351 349
300 302 309 309 307 307 309 301 304 305 306 306 305 303 304 306 307 307 315 315 316 319 319 320 318 317 319 320 320 321 321 323 326 329 330 327 328 332 332 346 352 355 354 352 350
302 304 309 308 306 308 306 303 307 310 306 305 305 303 304 305 307 307 310 312 314 315 317 320 322 319 318 319 321 322 321 322 327 328 331 326 331 332 330 336 347 348 351 350 350
303 306 309 306 307 308 302 304 306 307 307 305 305 303 304 305 306 306 308 311 315 313 318 318 320 317 317 319 320 323 324 321 324 322 326 331 327 328 329 333 339 342 345 350 350
303 304 307 307 306 305 303 307 306 308 308 305 306 305 306 304 305 305 307 312 313 312 312 316 318 316 317 318 319 321 322 326 322 332 327 326 326 334 331 333 337 341 343 346 348
304 303 306 307 307 302 305 305 308 308 308 307 307 306 306 306 306 305 306 311 309 313 313 314 314 317 318 320 320 320 322 325 324 324 328 328 328 323 330 331 332 339 342 344 346
300 304 306 306 302 299 303 304 306 308 307 307 306 306 306 305 307 307 308 310 312 312 314 315 316 319 318 317 318 319 321 322 330 329 324 324 328 322 325 326 328 329 340 343 345
301 300 306 305 304 301 302 306 307 308 308 307 308 306 305 305 307 309 309 312 311 312 313 314 318 315 319 317 316 318 315 314 314 319 328 331 329 322 319 320 321 325 330 337 342
300 303 300 298 298 303 305 305 307 308 308 308 307 307 306 306 306 306 309 311 309 308 314 313 311 315 318 317 314 316 316 315 315 317 326 328 328 323 325 320 319 320 320 325 342
298 301 301 302 303 305 304 305 307 309 309 307 308 309 309 309 307 306 306 308 310 312 312 309 310 311 312 314 315 314 315 315 315 316 319 324 324 323 322 322 318 321 325 325 325
302 303 300 301 304 307 307 306 308 309 309 309 310 310 310 311 309 308 306 306 309 308 309 307 309 312 313 313 313 315 315 315 316 317 317 319 319 323 338 338 339 339 340 341 329
303 304 305 308 309 309 309 310 310 309 309 309 310 310 309 308 306 305 304 301 303 306 307 308 309 314 313 312 313 319 317 321 321 319 322 321 321 326 339 337 335 335 338 341 342

GFSSW_925_thetae_057.txt.gz
Theta_e
304 304 305 305 305 305 303 303 304 306 307 307 308 311 312 313 313 314 312 312 312 312 341 350 347 346 347 350 353 343 357 361 356 357 359 354 357 355 350 351 349 348 348 346 346
302 302 303 303 305 306 305 304 305 308 309 308 309 313 312 315 314 314 309 316 313 317 343 344 342 344 348 352 355 355 361 358 349 353 357 357 358 356 355 353 352 350 346 345 346
302 302 302 303 305 307 306 305 306 309 308 307 311 313 316 313 314 315 318 319 322 321 337 341 337 341 346 351 355 355 363 355 352 351 356 358 358 355 357 358 353 352 349 346 346
302 302 302 303 305 307 307 304 308 308 308 312 312 312 315 314 316 314 320 320 317 326 337 331 336 338 340 347 352 360 357 357 354 351 351 354 353 358 356 355 351 349 347 346 347
301 302 302 302 306 307 306 306 308 309 308 317 312 314 314 313 311 315 324 324 327 332 331 328 332 333 332 339 346 356 355 353 353 352 351 350 354 358 357 353 349 348 346 346 346
301 302 302 302 306 306 306 308 308 308 312 315 312 314 315 312 311 315 325 326 329 333 327 329 330 330 331 339 341 346 350 352 350 350 349 352 350 356 355 350 349 348 347 346 345
301 301 302 302 306 306 307 307 307 307 317 313 315 316 315 313 316 313 324 325 327 328 328 326 328 329 325 328 332 337 344 340 344 346 351 347 352 355 352 350 351 349 347 345 345
301 301 302 303 306 307 307 306 307 313 314 317 318 318 317 314 315 311 314 324 326 323 320 318 319 326 322 323 324 327 334 349 346 344 344 348 356 355 351 351 351 350 348 346 344
300 300 301 304 306 307 307 308 312 314 316 319 319 318 311 310 310 309 310 316 321 326 318 318 318 320 321 325 325 329 327 338 347 342 349 350 355 357 351 352 351 350 349 347 345
300 300 302 307 306 307 307 309 312 314 316 319 318 316 311 309 308 308 311 321 323 321 317 317 321 320 320 323 322 326 328 337 347 347 345 351 353 358 351 352 352 350 349 348 346
300 300 305 309 307 308 307 306 309 309 308 307 307 307 309 307 309 310 315 321 321 317 315 317 318 322 319 320 322 327 330 330 342 344 347 349 349 360 355 352 352 350 349 349 347
299 300 306 311 307 308 308 309 308 307 310 305 305 305 306 306 309 310 313 322 324 323 317 317 317 317 317 317 320 323 328 333 333 337 346 348 349 354 358 355 352 351 349 349 346
299 300 304 310 306 307 306 307 308 306 307 308 307 308 307 307 309 309 311 313 323 323 320 319 318 317 316 316 318 321 324 328 333 335 337 346 348 351 358 356 354 349 347 346 345
301 301 304 309 306 306 306 307 308 306 309 309 308 307 308 306 309 309 314 312 314 325 322 323 321 318 318 318 317 319 320 324 327 329 342 342 353 350 354 361 357 355 351 347 345
304 302 304 309 308 308 307 307 305 303 308 308 308 306 307 308 309 309 314 316 316 317 322 325 322 321 320 319 318 318 318 318 323 329 330 334 347 347 350 362 360 357 354 352 349
306 303 307 309 308 307 307 307 304 309 308 308 308 306 308 308 308 310 315 315 317 320 320 319 322 323 322 320 318 318 321 320 319 322 332 335 337 343 347 355 358 357 355 354 352
306 304 308 308 308 307 307 305 309 309 308 308 308 306 307 308 308 311 316 316 318 318 321 321 320 320 323 323 321 320 320 324 325 322 329 333 336 337 339 344 350 355 356 354 353
306 307 307 306 306 307 304 310 309 310 308 306 307 306 307 307 307 309 312 313 314 318 322 323 319 320 321 323 324 322 323 323 327 323 320 328 335 336 334 334 341 347 351 353 354
305 307 307 306 306 306 311 312 310 309 309 308 307 307 306 307 307 308 310 314 315 312 315 323 323 319 319 320 322 324 325 323 323 327 326 322 329 332 334 336 336 338 349 353 354
304 304 307 306 306 305 312 309 310 310 310 308 308 308 308 307 308 308 308 313 315 312 313 315 314 318 319 320 321 324 324 326 325 325 327 325 327 330 336 336 337 337 345 350 352
303 309 307 306 305 310 312 310 309 309 309 309 308 308 308 308 308 307 307 311 311 311 314 315 313 312 316 323 324 324 325 326 327 326 326 326 327 330 332 338 338 338 340 344 349
303 309 306 306 310 306 309 307 306 309 309 310 309 308 308 307 307 308 308 309 311 311 312 315 313 314 315 319 319 320 324 325 329 331 330 329 326 329 333 335 336 337 340 341 345
305 305 305 306 311 309 307 307 307 309 309 309 309 308 307 307 309 309 310 312 312 312 313 315 315 315 310 314 319 321 320 322 324 327 333 331 328 328 330 330 334 336 336 342 347
306 308 306 305 304 308 306 308 309 308 310 309 309 308 309 309 308 309 309 310 311 310 313 314 314 313 313 312 314 318 318 317 320 328 330 332 331 329 329 331 332 331 331 333 341
305 307 304 309 309 308 307 307 308 309 310 309 310 309 310 310 310 309 308 308 309 311 313 313 311 310 309 309 310 313 314 317 318 323 327 329 331 332 333 333 332 333 332 334 333
308 309 305 307 306 308 308 309 310 310 310 309 310 309 311 312 311 310 308 308 310 311 312 312 310 310 310 308 312 313 313 315 316 319 321 323 326 325 332 339 339 342 343 344 345
304 305 307 307 307 310 311 310 311 311 309 309 310 310 309 309 309 309 309 308 308 309 311 311 311 310 308 314 315 317 316 316 319 322 321 327 328 331 335 341 337 336 336 339 342

GFSSW_925_thetae_060.txt.gz
Theta_e
302 302 303 302 304 307 306 304 305 306 309 309 309 313 315 314 313 316 314 315 314 313 345 345 346 345 345 350 353 352 360 362 357 358 362 357 361 357 354 356 353 352 352 350 348
301 302 302 302 304 307 307 306 304 308 309 308 310 314 315 314 317 316 314 312 312 327 343 345 346 344 346 350 355 357 362 359 352 355 357 357 360 359 358 357 356 353 350 348 348
301 301 302 302 304 307 307 306 305 308 308 308 313 311 312 315 318 320 318 324 318 324 335 340 340 342 343 347 353 355 361 355 353 355 356 357 359 357 358 360 356 357 353 349 348
301 301 302 302 305 306 305 305 307 308 308 312 315 311 312 318 320 318 319 320 322 325 332 334 337 339 340 345 347 353 353 356 354 352 356 358 357 358 357 357 354 353 351 349 350
301 301 301 302 306 305 306 307 307 307 308 316 313 311 318 319 314 318 326 327 328 325 332 335 335 334 333 336 339 348 352 354 353 352 352 352 355 358 358 356 352 351 350 350 350
301 301 301 303 306 306 306 306 306 307 312 315 312 312 319 316 315 318 326 326 322 323 331 329 330 329 329 331 334 339 341 348 352 354 352 354 353 356 357 354 354 352 351 350 349
300 300 301 306 306 306 307 306 307 308 315 313 316 318 319 318 317 317 325 325 327 325 329 326 327 328 326 329 333 334 342 342 346 353 354 352 355 355 356 354 355 353 351 349 348
300 300 301 309 307 307 307 307 310 314 311 316 318 321 318 315 317 316 320 325 329 328 325 327 324 328 325 325 324 328 331 339 345 350 351 351 356 354 355 356 356 354 352 350 348
300 300 301 310 307 307 307 311 314 310 314 319 323 320 315 312 313 312 314 324 326 323 324 324 323 327 328 324 323 325 329 333 353 350 351 352 355 357 354 356 357 355 352 350 349
299 300 301 310 307 308 308 309 309 319 319 320 319 320 313 313 312 312 315 323 326 325 320 321 323 324 324 324 326 326 328 332 348 351 351 354 355 357 355 356 357 356 353 351 351
301 301 302 310 307 308 311 311 317 314 313 312 312 312 312 312 313 315 320 324 324 328 322 320 323 323 323 323 324 326 328 330 341 348 352 353 353 359 356 356 357 357 355 352 351
306 304 302 309 307 308 311 313 312 311 314 311 310 311 310 310 314 314 319 325 323 325 322 320 320 322 323 322 322 323 329 332 332 343 351 352 352 351 358 355 356 357 356 353 351
307 306 302 309 306 310 311 310 310 310 313 312 311 311 311 311 313 313 317 322 326 324 322 322 322 320 320 322 322 322 324 329 332 335 342 350 353 352 353 356 354 354 354 353 352
306 306 303 309 308 311 311 310 310 310 313 312 311 310 311 311 312 312 316 317 322 327 325 323 323 321 320 321 321 322 321 322 329 334 341 345 356 352 351 358 357 355 355 354 352
306 306 305 309 312 313 311 310 309 308 312 310 311 310 311 312 312 313 316 318 319 321 326 326 324 324 322 322 321 321 321 321 322 330 334 340 350 348 349 355 359 357 354 353 352
307 305 309 311 312 310 310 309 308 313 312 311 311 310 312 312 311 313 315 317 319 320 322 324 325 325 325 324 322 322 321 321 321 321 330 335 342 347 349 350 352 356 354 353 351
307 306 309 310 312 309 310 310 314 313 311 312 312 311 311 312 311 313 315 316 317 318 319 321 322 324 325 325 325 322 323 326 325 322 320 328 336 340 342 346 347 351 354 354 354
306 307 308 308 309 309 311 315 316 313 312 310 310 311 311 311 311 311 313 314 316 316 317 320 320 320 323 326 326 324 325 326 328 326 323 322 329 335 337 339 344 347 352 354 355
305 310 311 310 308 308 315 318 316 313 312 312 311 312 312 310 311 311 312 313 315 315 316 319 319 322 323 323 326 327 327 325 326 327 327 324 323 328 334 337 339 342 347 350 352
307 311 310 309 308 311 316 314 314 312 312 312 313 312 313 312 311 312 312 314 315 313 313 315 315 318 322 322 324 326 327 327 327 329 331 329 327 324 333 337 338 340 340 346 349
308 315 309 309 309 315 317 315 313 312 312 313 313 313 313 312 311 312 312 312 313 313 313 313 313 314 315 322 323 325 327 328 327 327 329 330 328 327 328 331 337 338 340 341 348
309 314 309 310 315 314 315 312 307 312 311 312 312 312 312 312 312 312 311 311 311 312 312 313 313 315 314 316 323 323 326 327 330 331 328 330 329 327 328 329 333 337 339 340 342
311 311 309 312 316 314 312 311 311 311 312 312 312 311 310 311 312 311 311 311 312 311 312 314 312 314 314 313 315 319 323 327 327 329 332 332 330 329 330 333 331 333 336 340 341
312 316 313 312 311 312 312 312 312 310 311 311 312 311 312 312 312 312 311 310 312 311 313 312 310 313 314 314 314 320 324 324 326 330 331 332 332 331 330 331 334 336 336 337 340
312 312 310 314 311 312 311 312 312 311 310 310 312 311 311 312 311 311 311 310 310 310 312 313 313 312 311 310 310 312 314 317 321 326 330 330 331 333 331 330 331 333 336 336 334
314 313 311 309 310 310 311 311 311 311 310 311 311 311 312 314 312 313 311 311 311 310 312 313 314 311 311 310 309 309 311 314 316 322 324 326 329 330 333 333 338 338 342 342 341
309 308 311 309 311 313 312 311 312 311 311 310 310 311 311 311 311 310 310 310 311 311 313 312 312 312 311 309 311 313 314 317 318 320 322 326 327 329 331 334 341 340 339 340 340

GFSSW_925_thetae_063.txt.gz
Theta_e
302 301 302 302 304 306 307 307 305 305 308 309 308 310 313 313 312 317 317 319 318 313 334 337 338 342 345 348 349 354 363 364 360 360 365 357 360 357 355 357 355 354 355 352 349
301 301 302 302 303 306 306 306 305 305 308 308 308 313 310 311 318 320 318 314 315 314 337 339 341 344 347 348 349 359 365 363 355 357 363 358 359 359 358 357 356 355 353 350 349
301 301 301 302 303 306 305 306 306 308 308 308 311 313 310 316 323 322 316 314 315 324 337 340 341 343 345 345 349 354 364 357 356 357 356 358 359 356 357 357 356 357 354 350 349
301 300 301 302 304 306 306 306 306 307 306 307 315 312 311 320 327 323 317 318 318 328 337 339 340 342 342 344 346 352 351 354 356 356 355 357 355 356 358 357 353 354 353 351 351
301 300 301 303 306 306 306 306 306 306 307 311 315 312 319 324 320 319 325 324 327 322 333 339 339 339 339 340 343 348 349 354 354 353 355 356 354 355 356 354 353 353 353 351 351
301 300 301 304 308 306 307 307 307 307 309 314 312 311 323 323 317 319 326 330 327 321 331 335 335 336 335 335 337 339 344 350 354 354 353 353 352 354 356 355 355 354 354 351 351
300 300 301 304 309 306 307 307 309 310 313 312 315 320 324 321 318 319 326 327 328 322 330 333 331 334 331 330 331 336 340 343 348 354 354 352 356 354 356 355 357 355 354 351 349
300 301 301 304 309 307 308 308 312 310 310 315 317 325 322 316 318 319 325 327 325 324 326 332 328 329 330 328 328 333 336 342 345 350 353 354 359 351 356 357 358 355 354 353 350
304 304 302 303 309 307 309 308 311 310 312 319 326 327 319 314 317 316 323 327 329 330 327 328 328 328 329 328 328 328 335 338 340 343 350 355 358 351 354 356 358 356 354 353 350
307 307 304 303 309 308 309 309 318 314 322 323 322 323 316 316 316 316 318 324 331 326 329 328 328 328 330 330 328 327 329 333 338 350 351 356 359 360 357 355 358 357 354 353 352
307 308 306 303 309 309 312 315 323 322 318 316 316 315 316 315 316 320 322 326 328 327 325 327 328 326 328 329 328 327 328 331 336 351 352 353 356 362 356 355 358 358 355 354 353
307 308 307 304 307 310 312 316 314 314 317 314 314 314 313 315 317 320 324 325 327 331 327 324 324 325 325 326 325 325 327 329 333 341 351 352 354 354 355 355 357 358 356 354 353
307 307 306 307 307 312 314 314 313 314 316 315 314 314 314 315 316 317 321 326 325 328 330 327 325 324 325 325 325 325 326 328 333 334 346 351 356 354 361 355 356 356 356 352 353
307 307 305 308 309 314 315 313 313 313 318 315 313 313 314 315 315 315 318 322 325 327 324 325 325 324 324 324 326 327 325 325 328 335 340 345 359 360 354 357 356 357 357 355 352
307 306 306 308 314 316 314 314 313 313 318 314 313 312 314 314 316 316 316 319 320 323 326 326 325 325 325 324 324 326 325 324 324 326 335 339 346 357 355 361 356 356 356 355 354
307 306 309 314 314 314 313 313 312 316 315 313 313 313 314 314 314 315 316 317 318 320 322 324 327 325 325 325 324 325 324 325 325 324 326 335 341 349 351 351 354 355 355 355 354
306 307 309 312 315 313 313 316 318 316 316 315 315 314 314 315 315 315 317 317 317 319 318 319 321 324 326 326 325 325 326 327 327 326 325 325 335 341 346 349 349 353 354 354 354
306 308 313 312 313 313 314 319 319 317 316 314 313 314 314 315 315 314 315 316 318 317 319 319 321 321 322 326 327 326 327 329 332 329 327 326 326 334 338 344 346 347 351 353 353
307 312 314 313 313 312 318 322 321 318 316 316 315 315 315 314 313 315 315 316 317 318 317 317 318 322 322 322 325 328 328 327 328 329 330 328 326 326 333 338 345 347 350 351 353
312 313 314 313 313 314 320 318 319 316 315 316 316 316 316 316 314 315 316 316 317 316 315 316 319 321 320 322 325 326 328 328 327 332 333 330 330 327 327 332 337 342 345 348 353
313 319 314 314 314 319 321 320 318 315 315 316 317 317 317 316 316 315 316 315 314 315 315 315 316 318 317 321 324 324 327 329 330 329 331 333 331 331 329 329 334 338 342 345 351
315 319 314 314 320 318 320 316 309 315 315 315 315 316 316 316 316 316 315 315 314 314 315 316 315 317 317 317 317 319 322 322 331 333 330 330 331 331 331 329 332 337 339 340 343
317 317 314 316 321 319 316 315 314 315 315 315 315 314 314 314 315 315 315 314 313 313 314 315 316 318 317 316 317 317 322 325 326 327 333 331 331 331 330 330 330 331 334 340 342
318 321 317 316 316 316 317 315 315 313 314 314 314 314 314 314 314 315 314 313 313 313 314 313 316 318 317 317 317 318 317 322 325 328 328 331 331 331 331 332 333 333 334 337 342
317 316 315 317 316 316 316 315 315 315 313 313 314 313 314 315 314 314 313 313 312 312 313 313 314 314 314 314 315 315 317 321 323 328 331 329 331 332 332 331 333 335 336 337 339
318 318 314 316 314 314 313 315 312 312 313 314 313 313 312 315 314 316 314 314 314 314 313 312 313 314 317 315 314 314 314 315 320 324 326 328 331 331 331 333 332 334 337 342 342
313 312 316 311 313 314 313 314 314 313 313 312 313 313 313 313 312 313 312 312 312 312 313 315 318 315 316 314 314 314 313 313 315 318 321 325 328 329 331 333 338 337 341 341 341

GFSSW_925_thetae_066.txt.gz
Theta_e
301 301 301 301 304 305 306 306 306 305 305 308 308 308 312 311 310 316 316 319 319 317 316 327 332 338 345 347 348 352 367 370 364 369 366 357 359 356 355 356 355 356 354 351 349
301 300 300 301 305 305 306 306 306 307 307 308 308 311 312 311 318 318 320 318 319 317 322 332 335 338 345 347 349 354 367 365 359 359 355 357 359 357 357 357 358 358 353 350 349
301 300 300 301 306 306 306 306 306 306 306 307 307 314 311 315 324 325 320 318 316 315 326 336 335 341 344 346 347 350 357 363 360 357 355 354 358 355 357 359 358 359 354 350 349
301 300 300 301 306 308 306 306 306 306 306 306 308 314 311 319 332 324 317 316 312 318 323 337 338 342 345 347 346 349 350 352 354 356 359 362 358 361 357 356 355 355 351 351 350
301 301 301 301 306 309 306 307 307 307 307 307 312 312 317 326 324 322 320 317 322 320 326 341 341 342 343 342 343 346 348 349 354 356 356 350 359 361 351 347 354 353 351 351 350
301 303 303 302 304 309 306 308 308 309 308 313 313 312 319 328 319 320 327 331 324 320 331 339 340 339 340 339 340 343 343 348 352 355 358 355 359 357 357 355 356 354 352 350 350
305 306 306 303 303 309 307 308 309 313 310 310 314 318 329 325 319 319 325 328 327 321 325 335 337 337 337 337 333 334 339 341 345 355 356 353 357 358 357 355 355 356 353 351 350
307 308 308 306 303 309 308 309 309 311 311 314 316 323 331 317 319 319 323 328 329 326 322 330 334 333 334 334 330 331 334 340 340 346 354 354 362 355 356 356 356 357 353 352 350
307 307 308 308 304 309 308 309 309 310 315 316 325 328 328 316 318 319 322 327 327 325 326 329 333 333 329 332 330 330 332 337 339 344 349 356 362 358 356 359 356 355 354 353 352
307 307 308 308 304 309 309 311 313 314 321 323 324 324 322 318 318 317 319 326 330 328 330 329 331 330 329 330 332 329 331 333 337 340 346 351 360 358 353 355 356 355 355 353 351
307 307 307 308 306 308 309 316 322 326 322 324 321 321 318 317 317 320 320 324 330 331 332 330 332 332 332 328 330 329 328 330 332 335 344 347 357 354 351 351 350 355 357 354 352
307 307 307 307 307 309 310 318 316 316 317 319 317 316 316 316 318 322 324 327 329 331 326 330 332 331 326 329 329 330 330 328 329 332 346 357 356 351 349 348 349 354 354 355 352
307 307 307 304 307 309 315 316 315 315 316 317 315 316 316 316 318 319 324 326 327 328 330 326 326 327 327 326 327 327 327 327 328 331 343 346 359 355 348 350 354 354 351 352 354
307 307 306 305 311 316 318 315 315 315 318 317 315 315 315 315 316 317 319 323 327 328 327 329 328 327 325 326 327 327 327 326 327 328 334 337 356 358 356 359 351 348 353 351 353
306 306 307 307 311 318 316 315 314 315 321 316 315 314 316 315 317 317 317 320 322 325 326 327 327 327 327 326 326 326 327 327 326 326 328 333 338 355 358 354 355 349 353 350 352
306 306 308 315 314 317 315 316 314 317 318 315 315 314 314 315 316 317 318 318 319 320 322 323 325 326 326 325 325 325 325 327 327 326 327 327 333 339 359 353 348 349 353 352 350
308 306 308 312 317 315 315 317 318 318 318 316 316 314 316 316 315 315 317 317 317 318 318 317 320 325 327 326 325 326 325 327 329 328 328 326 326 334 342 350 347 349 354 354 353
307 305 310 314 315 315 316 320 321 320 318 316 315 315 315 316 316 316 316 317 318 319 318 321 321 319 323 327 327 326 326 328 331 329 328 329 328 328 330 350 351 351 352 352 355
307 314 314 316 315 315 319 323 323 320 319 318 317 316 315 316 315 316 316 316 318 320 320 319 318 320 321 322 325 327 329 326 327 328 330 329 329 328 329 331 352 348 350 349 352
311 317 317 316 316 316 320 323 321 318 317 318 318 318 318 318 317 317 316 317 317 318 318 318 318 319 320 322 323 323 325 328 328 332 334 330 333 331 331 331 335 350 353 352 351
315 321 317 316 317 320 323 322 320 317 316 317 319 319 319 319 318 318 317 317 316 317 317 317 317 317 318 321 322 323 325 327 328 330 331 332 332 333 337 332 333 350 349 346 348
319 321 316 317 321 320 321 317 311 317 317 317 317 317 317 317 318 318 318 317 316 316 316 317 316 318 317 318 319 319 324 325 330 333 332 331 331 331 333 333 332 333 347 345 348
322 320 317 318 321 320 318 317 316 316 316 316 316 316 316 316 316 316 316 316 316 315 316 316 317 318 318 318 318 318 318 320 322 324 333 335 331 330 332 333 334 332 334 346 350
322 321 320 319 318 318 319 317 317 314 316 315 315 315 315 315 315 315 315 315 314 314 316 313 314 317 320 320 319 319 318 318 319 323 324 325 330 334 333 332 334 334 335 337 347
319 318 317 318 318 317 318 318 317 316 315 315 316 314 314 315 315 315 314 315 314 316 313 313 314 314 314 315 315 316 317 318 319 320 326 326 326 331 335 336 334 339 341 338 338
319 320 317 316 316 316 316 316 315 314 315 315 315 315 314 316 315 315 314 315 315 315 316 315 314 313 313 314 315 317 317 317 317 319 320 322 326 328 332 334 335 339 345 346 347
317 316 318 314 316 316 315 316 314 314 314 313 313 314 314 314 313 313 312 313 313 314 314 315 318 318 318 314 313 316 316 317 316 317 319 324 325 328 329 334 334 338 341 344 345

GFSSW_925_thetae_069.txt.gz
Theta_e
301 301 300 301 302 307 306 306 306 306 307 307 308 308 310 312 309 313 316 315 315 318 317 326 326 331 341 351 350 350 363 368 368 358 356 353 359 356 355 356 355 353 352 350 348
301 301 301 301 301 307 307 306 306 306 306 306 307 307 313 311 314 318 314 316 317 319 316 322 325 331 338 347 349 352 363 364 355 356 358 355 358 358 359 360 358 354 350 349 348
301 301 302 302 302 306 308 306 307 307 306 306 306 306 313 314 322 324 317 319 318 319 316 324 328 333 339 342 347 350 355 356 357 356 359 360 362 358 359 363 357 355 352 349 349
301 303 305 305 303 304 308 306 307 307 307 306 306 311 312 318 332 323 321 320 319 317 316 323 331 334 341 343 344 348 348 350 357 356 359 363 360 359 358 358 355 351 350 349 349
304 306 307 307 305 303 308 307 308 309 309 307 310 313 316 323 322 321 319 317 317 313 318 321 337 338 341 342 343 345 346 347 349 355 358 359 359 351 355 355 353 350 349 349 348
306 307 307 308 307 303 307 307 308 309 312 312 311 312 316 325 321 322 327 319 321 320 319 321 339 339 339 341 340 340 342 343 351 355 355 358 359 356 355 354 354 351 350 348 347
307 308 308 307 308 304 307 308 308 309 311 311 314 316 325 327 320 322 326 330 323 322 319 327 336 340 337 338 336 335 331 332 341 356 357 359 364 364 358 355 354 352 350 348 347
307 308 308 307 308 306 307 308 308 309 311 314 316 322 329 324 317 320 320 326 329 324 319 326 330 334 333 333 334 332 326 330 332 342 354 358 369 363 357 358 354 353 351 350 348
307 308 308 307 307 306 307 308 310 312 310 315 322 323 331 317 317 318 320 326 329 327 322 320 322 330 332 328 329 331 328 329 331 333 344 354 365 362 354 356 357 353 351 350 349
307 308 307 307 308 305 308 310 312 314 318 323 322 325 325 320 318 317 318 323 327 326 325 323 325 330 331 326 329 331 326 326 328 333 336 357 364 354 349 356 357 355 352 350 350
307 307 307 307 307 304 307 310 319 320 318 326 324 327 319 317 317 317 318 323 327 325 325 327 327 331 330 327 326 328 329 328 327 330 334 354 360 353 347 353 360 356 352 351 351
307 306 306 306 305 306 307 313 314 314 314 316 319 319 316 316 317 321 321 320 328 331 330 330 329 329 330 329 329 327 328 328 328 326 343 360 361 354 348 355 355 352 353 351 351
306 306 306 306 305 309 310 315 315 315 314 315 316 315 314 315 315 321 322 324 327 330 328 324 329 330 330 330 326 325 326 326 327 326 340 355 359 356 352 351 353 355 351 350 350
306 307 306 306 311 313 316 315 315 315 314 318 314 314 315 315 314 318 319 320 324 326 326 326 325 325 328 329 326 322 324 326 325 323 323 338 358 356 351 353 356 356 349 346 349
307 308 306 307 308 313 316 315 315 314 320 316 314 314 315 313 316 316 317 318 321 323 324 325 326 327 327 326 323 323 325 324 325 323 323 323 324 358 351 355 355 352 348 347 346
308 308 306 315 314 317 316 315 316 315 319 315 314 313 313 313 314 317 317 316 317 316 317 319 320 322 324 326 325 324 323 322 322 322 324 321 322 358 356 355 349 348 346 349 347
309 307 305 309 316 315 315 315 317 317 317 315 314 313 313 314 315 315 316 315 314 315 316 317 315 317 320 324 323 323 323 322 323 323 325 323 322 320 355 352 347 347 350 349 347
310 306 307 312 314 316 315 317 324 320 317 316 315 314 314 315 315 316 316 315 316 316 316 316 318 316 318 322 326 324 321 322 326 325 325 323 324 323 341 351 347 347 347 349 351
310 312 313 315 316 316 316 323 320 319 318 318 317 315 314 315 315 315 316 315 317 316 318 317 318 318 318 319 323 325 325 322 322 323 324 325 324 324 324 347 348 345 345 354 352
312 315 318 317 317 316 319 322 318 317 316 317 318 318 318 317 316 315 315 316 318 317 315 316 316 316 317 317 319 321 322 321 321 325 326 326 326 328 329 333 348 345 353 346 347
316 321 317 316 318 319 321 320 318 316 317 317 317 318 318 318 318 318 317 316 316 316 316 315 315 315 316 316 316 318 319 321 321 323 325 325 325 324 327 328 335 348 349 343 345
318 321 317 318 321 322 317 316 312 316 316 316 317 316 317 316 317 317 318 316 315 314 315 314 313 314 315 315 316 315 315 315 322 324 326 328 329 326 324 325 337 346 350 345 348
319 321 318 318 319 319 318 317 314 314 315 315 316 315 315 315 316 316 316 316 315 315 316 313 314 315 316 314 316 316 316 315 314 317 319 323 326 327 330 332 336 340 345 346 344
320 320 318 317 317 317 319 318 316 315 314 315 315 315 315 315 314 315 315 314 314 315 317 314 312 313 314 314 313 316 316 315 314 313 315 318 321 322 330 331 331 332 343 344 345
321 317 316 316 317 315 316 316 315 315 314 315 317 315 315 316 314 315 314 314 315 318 314 312 311 311 311 312 312 313 314 316 316 315 316 317 318 319 331 330 332 337 342 345 347
318 320 316 316 316 315 316 316 315 314 315 314 315 313 314 314 314 314 313 313 314 314 315 314 315 314 316 315 312 312 313 315 316 316 316 316 317 319 320 328 330 332 337 342 344
317 319 320 315 316 315 315 315 314 314 314 313 313 313 314 313 312 311 311 310 310 311 313 313 314 316 316 315 315 315 313 313 314 315 315 315 315 316 318 319 334 341 338 341 341

GFSSW_925_thetae_072.txt.gz
Theta_e
301 301 303 303 302 302 307 306 305 306 306 306 306 307 306 311 311 314 315 310 313 329 325 325 328 327 332 348 350 351 361 368 366 357 356 354 359 356 354 355 353 353 350 347 347
301 303 305 306 306 303 305 307 306 307 307 306 306 305 306 312 314 316 311 310 315 317 316 321 322 327 331 346 351 355 357 363 357 355 360 356 357 358 358 357 355 354 348 346 347
302 305 307 307 307 305 303 307 306 307 309 307 306 306 311 312 320 325 323 313 315 317 317 318 324 328 332 337 347 351 358 354 356 356 358 360 362 358 360 360 356 355 350 348 347
304 307 308 308 307 307 304 306 307 308 310 308 306 308 311 317 330 324 317 316 317 318 317 317 324 330 334 339 341 346 347 350 350 357 360 362 357 357 359 360 353 350 348 347 347
306 307 308 308 307 307 307 305 307 308 311 311 311 313 316 321 320 321 320 318 319 316 316 317 327 334 334 338 341 342 344 345 345 356 360 357 353 357 357 355 352 350 348 347 347
307 307 308 308 307 307 307 305 307 308 311 310 310 312 314 322 324 320 320 318 317 314 318 317 323 336 338 336 339 340 340 338 338 360 360 359 356 352 355 354 353 351 349 347 347
307 307 308 308 307 307 307 305 307 307 309 312 314 318 321 320 323 321 324 322 316 316 316 317 319 328 337 337 336 337 333 329 353 358 357 355 361 361 355 355 354 351 349 348 346
307 307 307 307 307 307 307 305 308 308 309 312 316 321 323 328 325 324 326 327 321 322 316 318 321 327 334 333 329 329 327 326 337 357 357 356 368 360 356 357 354 351 350 348 346
307 307 307 306 306 306 306 306 309 310 311 311 320 321 327 320 316 316 321 320 328 324 322 319 320 318 324 330 325 325 331 330 327 351 359 358 366 357 356 357 356 352 349 349 346
306 306 306 306 306 306 305 308 312 313 316 321 322 322 321 324 317 318 317 321 327 325 324 321 319 322 324 326 328 329 329 324 325 326 354 359 364 359 360 358 357 354 351 348 348
305 305 305 305 305 305 306 310 309 314 319 320 323 323 320 317 317 317 317 321 324 323 323 323 323 325 328 328 326 326 326 326 327 327 326 357 363 361 356 354 358 355 352 349 348
306 307 307 306 305 306 307 310 313 313 311 314 318 319 320 317 315 316 318 319 325 324 323 327 326 325 327 328 328 327 326 325 324 327 350 361 364 355 356 357 357 357 354 351 348
307 307 308 306 307 312 311 313 315 314 311 312 313 314 315 313 314 319 317 317 326 328 328 328 329 328 328 328 329 327 325 325 325 342 352 355 359 354 349 355 356 356 354 351 349
308 308 308 306 312 311 313 316 315 314 309 314 314 313 313 312 313 319 320 319 322 327 328 325 324 324 327 328 327 326 322 323 324 321 321 342 362 356 352 357 358 357 352 352 350
309 309 307 310 311 312 316 315 315 312 316 315 312 313 312 311 314 314 316 317 319 320 318 320 325 325 326 324 325 326 325 322 323 321 320 322 323 338 351 355 358 357 352 352 349
309 309 306 311 311 315 315 315 314 311 317 313 312 312 312 312 313 315 316 315 315 315 315 314 317 320 322 324 323 323 322 319 317 318 320 320 320 335 352 352 352 357 355 352 347
310 309 305 307 313 314 315 311 313 314 315 313 312 311 310 311 312 313 315 314 312 312 314 315 316 315 316 318 320 321 317 319 321 320 320 318 320 320 345 348 347 353 354 351 346
310 308 307 311 314 313 313 313 319 318 316 315 315 312 310 312 313 314 313 311 315 312 311 315 315 315 315 315 319 323 317 319 323 322 321 319 322 322 330 344 344 344 349 349 347
315 311 315 317 316 314 310 317 316 315 315 315 314 313 314 313 313 313 313 313 315 312 314 313 316 315 317 315 315 322 323 318 319 318 320 320 321 322 322 337 346 343 346 350 350
316 315 316 317 316 314 312 315 315 315 315 314 315 315 315 315 315 312 313 314 315 313 311 314 314 313 316 314 314 312 314 319 315 323 324 322 323 323 323 333 341 346 345 347 351
317 315 317 316 317 311 312 315 314 314 314 314 314 314 314 314 314 313 313 314 314 313 311 310 311 313 313 312 314 312 312 311 315 318 322 322 321 325 329 337 339 344 345 344 351
312 312 315 316 311 310 310 313 313 312 312 313 313 312 313 313 313 313 314 314 314 313 314 311 308 311 313 312 314 313 312 309 312 314 318 322 324 324 329 331 340 345 342 344 348
312 314 315 316 312 311 312 313 313 312 313 313 313 312 311 311 313 313 313 314 314 313 313 312 309 311 312 311 310 312 311 311 309 308 314 317 318 318 327 335 340 344 345 345 345
312 312 309 307 307 312 314 313 314 313 313 313 312 311 311 312 309 312 313 314 316 316 318 311 307 309 311 312 310 311 311 311 310 311 311 313 314 313 318 326 331 341 344 344 343
310 310 309 312 311 310 310 312 314 314 312 311 313 313 311 312 311 312 311 311 312 315 312 308 308 311 310 313 313 314 314 312 311 312 314 313 312 312 315 317 331 336 341 344 347
312 313 309 309 309 310 310 311 313 313 312 312 312 313 310 311 312 312 310 309 310 308 311 309 312 313 314 314 313 312 312 313 313 312 313 313 314 325 325 332 337 337 341 343 344
316 316 308 310 310 310 311 313 313 313 312 312 312 311 312 312 310 309 308 307 307 309 308 309 310 311 313 314 312 311 310 312 312 313 321 328 324 323 325 328 327 330 335 338 340

GFSSW_925_thetae_075.txt.gz
Theta_e
301 304 305 306 307 306 304 305 306 306 307 307 306 305 305 306 311 313 314 310 311 322 321 329 330 329 336 346 348 351 362 366 363 361 359 355 360 356 354 355 352 353 348 348 348
303 305 307 307 307 307 307 303 306 306 307 309 307 305 305 311 314 316 312 309 317 326 331 332 328 327 330 341 350 355 358 362 356 353 359 357 360 354 361 356 355 351 347 348 347
305 307 307 308 308 307 307 305 305 306 307 309 306 306 310 312 320 324 323 310 322 326 321 324 323 328 331 335 350 353 359 355 356 357 353 357 359 355 359 360 355 350 349 347 346
307 307 308 308 308 307 307 307 304 307 307 310 310 309 311 316 324 324 316 310 315 317 316 316 322 328 333 338 338 347 347 353 351 357 358 358 352 356 356 360 354 346 347 346 346
307 307 307 307 307 307 307 307 305 307 307 310 310 311 315 319 316 320 313 314 317 318 316 317 326 330 333 334 337 343 343 341 343 346 359 353 352 352 353 353 352 347 347 346 345
307 307 307 307 307 306 306 306 305 306 307 310 313 312 313 312 322 321 315 317 319 316 315 318 324 329 334 335 337 340 340 339 336 357 355 355 355 351 356 355 355 351 348 346 344
307 307 306 306 306 306 306 306 305 306 307 310 315 319 320 313 324 321 320 319 319 316 315 315 319 327 335 339 335 336 339 330 358 359 358 350 354 359 355 356 357 352 348 347 345
306 306 305 305 305 305 305 306 305 307 308 311 317 321 320 325 325 320 319 319 317 316 316 316 318 324 331 331 329 328 325 327 357 356 353 354 365 359 354 356 356 352 349 348 347
306 305 305 306 306 305 305 305 308 309 310 312 320 320 326 324 322 322 323 326 319 319 316 318 319 319 321 325 324 323 331 330 328 353 357 356 362 357 357 355 356 352 350 348 347
306 307 307 307 307 305 304 311 312 312 318 320 322 320 319 322 316 315 321 323 325 321 321 319 317 318 322 325 332 329 329 326 325 353 357 360 360 359 356 356 355 353 350 348 347
307 308 308 308 306 305 308 312 307 310 321 314 318 319 320 319 316 316 315 323 323 323 324 320 321 323 324 326 328 327 326 326 325 325 325 357 359 358 356 355 356 353 351 349 348
308 309 308 308 306 308 309 310 312 312 310 313 318 319 320 319 315 316 317 322 324 325 322 323 324 322 325 328 328 328 327 326 324 333 338 359 362 357 358 355 356 355 351 349 347
309 309 309 306 310 311 310 313 314 312 309 311 312 314 314 314 313 315 315 318 324 325 323 325 328 327 327 327 328 327 326 326 326 332 353 356 364 361 355 355 355 355 353 350 347
309 309 309 309 310 313 313 314 314 311 308 313 313 313 312 311 312 315 318 320 322 326 326 326 326 328 326 327 326 327 324 325 324 320 321 346 364 359 352 354 354 356 355 352 347
310 310 308 311 313 312 314 315 315 310 315 315 311 312 309 310 313 314 315 316 319 319 320 326 322 324 323 323 324 326 324 323 322 320 319 324 327 342 351 355 356 357 355 353 351
310 310 306 309 309 314 313 315 313 311 315 313 312 311 310 311 312 314 314 313 313 314 313 314 315 321 323 324 322 323 323 317 314 315 319 319 319 324 352 353 351 355 355 354 349
313 310 306 307 312 312 312 310 312 315 314 316 311 311 310 311 312 314 314 311 312 311 313 314 315 313 313 316 318 317 316 318 320 319 319 317 319 319 341 346 346 350 354 354 348
314 311 312 313 313 312 312 310 316 317 315 314 314 310 312 311 311 312 311 310 313 310 311 313 315 314 314 315 316 321 316 317 322 320 320 316 320 321 319 323 339 344 348 351 350
315 313 314 317 316 314 309 312 314 314 314 314 314 314 314 314 311 312 312 312 312 311 313 313 315 314 315 313 314 317 318 317 315 315 319 319 320 321 328 335 338 342 346 352 352
317 317 316 314 315 313 310 313 313 313 313 312 313 313 313 313 314 311 312 313 313 312 310 312 314 312 314 313 312 311 312 316 314 321 324 320 320 328 331 335 340 343 343 347 350
317 311 314 314 315 307 310 312 313 311 313 313 312 312 312 312 312 312 312 314 313 313 310 309 309 312 311 312 312 311 311 309 311 314 319 321 323 322 329 332 343 344 344 342 347
313 311 315 314 310 304 308 311 312 311 311 312 311 311 311 310 311 312 313 313 313 312 313 309 306 310 312 309 311 310 309 307 310 313 312 318 322 314 315 327 339 343 343 342 346
312 312 314 314 311 309 311 312 312 312 311 312 312 311 309 311 312 312 313 313 315 313 311 311 308 311 310 308 308 309 309 308 306 305 311 313 315 314 318 318 331 341 344 344 345
307 310 307 305 304 310 311 311 313 313 312 311 311 310 310 310 308 312 312 312 312 316 318 309 304 309 311 311 309 312 313 309 308 309 311 312 312 317 325 329 335 339 341 344 345
305 308 307 310 309 309 309 311 313 313 310 309 312 311 310 311 311 311 310 309 310 311 310 305 308 311 310 312 312 313 312 312 310 311 312 312 311 325 325 329 329 333 338 341 341
312 313 306 306 306 308 308 311 313 312 310 311 311 312 310 311 311 312 310 310 309 308 307 306 311 312 311 312 311 312 310 311 311 311 312 315 319 321 321 325 325 327 332 335 338
315 313 307 307 307 309 310 312 313 311 311 311 311 310 312 311 310 308 307 307 308 309 307 306 307 309 311 311 310 307 309 310 311 317 316 321 322 320 320 324 323 323 323 325 328

GFSSW_925_thetae_078.txt.gz
Theta_e
304 306 307 307 308 307 307 306 304 306 306 307 308 306 305 305 310 313 314 310 311 317 322 328 335 333 343 345 347 350 360 365 362 361 361 355 362 357 352 354 351 350 347 347 348
306 307 308 308 308 308 307 307 305 305 306 307 308 306 305 310 313 315 311 311 312 318 333 332 330 327 333 341 348 355 359 360 355 355 358 358 354 356 353 356 351 351 348 348 348
307 308 308 309 308 308 307 306 306 305 306 308 309 306 309 312 317 321 322 310 324 325 326 324 325 327 333 339 348 355 360 355 355 355 356 357 353 355 358 360 352 353 350 348 348
307 308 309 309 308 307 306 306 306 305 306 308 309 311 311 315 323 323 320 311 329 328 324 321 324 329 336 338 338 352 348 352 352 355 355 357 355 357 357 357 352 349 347 348 347
308 307 307 306 306 306 306 306 306 305 306 309 310 309 315 316 313 319 312 324 329 316 316 317 324 328 336 335 337 344 346 342 344 347 355 351 354 354 357 354 348 348 347 347 346
309 308 307 305 305 305 305 305 305 304 306 309 314 312 313 310 320 319 310 314 317 318 315 320 323 327 331 334 337 339 340 338 336 347 353 352 351 353 350 354 349 348 347 347 345
308 306 305 306 306 305 305 305 305 304 306 309 317 319 318 310 324 318 315 316 318 317 312 317 323 327 332 339 334 334 338 336 357 356 356 351 355 357 353 356 352 349 347 346 345
307 307 307 307 307 307 305 305 304 305 307 310 319 320 320 323 325 319 317 319 319 316 316 316 318 323 328 330 325 326 325 328 359 355 354 351 360 361 355 358 355 350 348 346 344
306 307 308 308 308 307 305 306 309 308 308 314 321 320 324 322 324 321 321 319 318 316 316 317 317 320 319 323 326 323 331 329 334 354 355 354 359 356 355 358 356 351 349 347 344
307 308 308 308 308 306 305 313 316 313 317 319 321 319 318 320 316 322 320 320 320 318 318 317 315 317 320 325 337 330 328 325 326 356 356 356 357 356 358 354 356 353 349 348 347
309 308 309 309 307 307 308 313 305 309 321 312 312 314 318 318 315 315 323 323 321 320 322 318 318 320 321 324 327 327 325 326 325 324 326 349 356 359 358 355 356 354 350 348 347
309 309 309 308 308 309 309 309 312 310 310 314 318 317 317 318 316 313 322 323 324 325 320 320 320 321 322 325 328 328 327 327 326 333 336 357 359 357 355 354 355 354 351 349 347
310 310 309 307 311 311 310 312 312 311 309 310 313 314 312 315 314 312 316 321 324 322 321 322 325 323 325 326 328 327 326 326 327 327 352 354 358 360 357 353 352 353 351 348 347
310 310 309 308 310 312 312 313 313 310 307 313 312 312 311 310 312 315 316 319 323 324 321 324 325 328 327 328 325 328 323 326 326 319 320 344 346 356 355 355 354 353 353 350 346
311 311 308 306 312 311 313 313 312 308 313 314 311 311 308 309 312 313 314 316 319 322 325 328 323 325 324 323 324 326 323 324 323 319 318 325 332 341 349 352 351 352 352 353 349
312 311 306 309 309 313 312 313 310 309 315 313 311 310 310 309 311 313 313 310 313 312 314 316 314 320 323 322 323 322 318 313 312 313 318 319 321 319 350 351 349 348 349 353 351
313 310 309 308 310 311 312 309 312 315 313 315 313 309 309 310 311 312 312 311 312 313 313 313 314 312 313 315 317 316 316 317 318 318 319 314 318 323 320 326 338 341 349 352 352
314 312 313 314 314 314 312 309 315 315 314 312 313 312 313 311 312 311 311 311 311 309 309 312 314 313 312 313 316 317 316 317 321 319 319 316 319 326 329 333 339 340 343 350 352
317 316 313 312 312 313 307 311 313 313 312 313 312 313 313 313 311 311 311 311 311 310 313 312 314 312 313 312 312 318 315 313 314 314 317 317 324 322 322 330 340 343 341 347 351
318 316 313 314 314 310 308 312 313 312 312 311 313 312 313 313 313 311 312 312 312 310 308 311 313 311 312 311 311 311 311 317 314 321 323 319 324 322 316 317 326 341 342 342 342
314 309 314 313 312 306 309 311 312 311 312 312 311 311 311 311 311 312 313 313 315 312 308 308 308 311 310 309 308 309 309 308 310 312 319 324 322 315 314 320 321 339 341 343 342
310 311 314 312 308 302 308 310 311 311 310 311 311 310 310 309 311 313 315 313 313 311 312 309 306 309 311 309 307 307 308 306 312 314 310 316 316 311 323 329 334 339 342 342 343
309 308 314 311 309 307 309 311 311 310 310 311 311 310 309 309 312 312 313 312 311 316 313 311 308 308 311 308 308 310 309 306 304 305 311 318 317 313 325 329 328 332 340 339 342
305 309 306 303 301 308 310 310 312 311 310 310 310 309 309 309 308 312 311 311 310 315 316 308 306 308 309 309 308 313 312 309 306 310 309 311 312 319 325 328 326 327 333 339 339
304 307 305 308 308 307 308 310 312 312 309 308 311 310 310 310 310 311 310 309 309 310 309 304 310 310 310 311 311 312 311 311 311 310 311 310 315 323 322 325 324 323 325 329 336
312 309 303 305 305 308 307 310 311 311 310 310 311 311 309 310 310 312 310 309 309 308 306 304 312 310 311 311 310 311 310 310 310 311 310 312 319 319 320 322 322 322 322 326 329
313 310 306 306 306 308 309 311 312 310 310 310 310 309 310 311 308 308 307 305 307 309 306 306 306 307 310 310 308 309 309 309 312 315 312 313 318 318 318 321 320 320 320 322 324

GFSSW_925_thetae_081.txt.gz
Theta_e
307 309 308 308 309 308 308 309 309 305 305 306 308 307 306 306 308 312 313 310 311 315 325 338 335 345 344 349 347 351 364 365 362 361 362 357 361 355 351 353 350 349 348 346 344
308 309 310 309 309 309 308 307 307 307 305 306 309 306 306 309 314 314 309 310 311 319 332 332 330 342 348 350 351 357 361 362 355 356 359 356 357 357 354 355 354 351 347 346 345
309 309 307 308 308 308 307 306 306 306 305 306 309 309 309 313 317 318 322 311 312 326 331 326 328 338 346 347 352 356 361 356 355 355 356 355 354 355 357 359 353 353 349 346 345
309 308 308 307 307 306 306 305 306 306 304 306 309 309 311 315 320 319 321 310 320 327 325 324 328 330 345 349 346 357 352 352 354 356 356 357 353 356 354 358 350 349 347 346 346
310 308 307 307 307 306 305 305 305 305 305 307 310 311 314 316 314 318 314 322 334 326 323 323 327 333 341 346 342 351 351 346 346 354 356 355 356 356 357 351 349 347 348 346 346
307 307 309 309 309 309 308 306 305 305 304 307 313 314 314 312 321 319 319 332 322 319 320 323 327 331 339 340 344 341 343 341 340 340 354 355 354 353 357 350 350 349 349 348 347
308 308 308 309 309 310 309 306 305 305 305 308 311 318 319 312 326 318 327 326 319 316 319 320 327 332 336 340 337 335 338 350 356 353 355 350 357 356 356 350 352 350 349 349 348
308 309 309 310 310 311 308 305 304 304 305 311 318 320 321 323 325 320 319 318 318 316 316 317 323 329 332 332 329 331 330 336 359 357 354 354 362 359 355 351 353 351 350 349 348
308 308 309 310 312 310 306 314 310 307 308 315 319 321 324 322 326 321 318 319 317 316 316 317 320 327 324 333 336 331 342 333 357 356 357 356 357 361 357 353 353 351 349 348 348
309 309 310 310 310 309 310 317 316 313 318 321 321 321 320 323 322 321 321 318 318 318 318 317 318 327 329 335 346 340 334 330 345 359 356 358 357 359 358 359 354 352 350 348 348
309 310 310 310 308 309 312 314 312 317 321 315 315 315 317 318 319 322 320 322 319 320 320 318 325 328 334 333 331 331 331 332 329 333 339 342 346 354 359 354 357 353 351 350 348
311 311 310 308 309 310 310 313 313 311 314 314 318 317 317 317 315 322 323 326 323 321 321 319 324 326 330 328 331 332 334 332 329 342 333 354 357 355 356 356 355 355 352 352 349
312 311 310 307 311 311 310 312 311 311 314 313 315 315 315 318 315 318 323 326 327 324 321 320 324 326 328 329 333 333 336 332 331 328 354 355 359 359 358 356 357 356 352 350 350
312 310 307 309 310 311 312 311 311 310 314 314 314 315 314 315 313 315 321 326 327 329 324 323 327 329 327 330 331 337 329 331 330 328 328 350 340 360 357 359 356 357 356 353 351
312 309 306 309 312 312 313 311 309 309 315 314 314 311 310 312 317 316 315 320 327 327 326 327 329 333 334 332 329 332 327 330 329 328 325 337 342 333 355 357 356 353 354 353 351
312 309 308 309 310 312 311 312 309 315 315 315 312 311 312 312 313 314 315 315 316 322 323 320 318 325 329 327 328 325 323 322 322 324 328 328 335 340 341 342 344 346 350 351 353
313 313 313 311 313 313 313 312 317 318 316 317 315 312 312 312 314 315 316 316 318 325 328 317 316 315 316 324 324 325 327 328 329 327 329 322 333 342 338 339 345 346 344 345 351
315 314 312 312 311 313 310 316 320 316 316 315 314 315 314 314 315 315 316 317 315 314 317 323 320 316 315 316 323 327 327 327 330 329 328 322 334 334 322 326 333 343 345 346 348
317 316 312 312 313 311 316 318 316 315 314 315 315 316 316 315 316 316 315 316 315 314 321 319 317 315 314 314 316 321 324 320 323 320 327 325 328 328 327 334 338 345 347 347 346
316 314 313 312 311 311 316 314 315 313 313 313 316 315 317 315 316 316 316 315 316 314 312 315 317 314 314 314 315 319 316 324 324 328 328 330 329 327 334 340 342 343 344 347 348
312 317 313 312 311 314 315 314 314 313 313 314 314 314 314 315 315 316 316 315 315 316 313 313 316 316 315 314 314 317 319 319 322 322 328 331 327 326 338 339 338 339 343 345 351
312 317 313 312 316 311 315 313 311 313 312 313 313 313 313 314 315 317 316 315 313 314 315 313 315 316 314 312 311 312 314 316 326 326 323 326 323 330 335 336 334 336 341 341 345
315 313 313 311 316 315 313 313 312 313 313 313 313 312 312 313 317 316 315 312 314 316 316 314 314 317 315 315 314 315 314 313 313 318 326 326 321 329 334 335 333 334 337 337 337
313 315 314 311 308 313 313 314 314 311 311 312 313 312 313 314 314 315 314 313 311 317 315 312 313 316 316 317 315 315 313 313 315 321 320 320 319 326 333 334 332 334 334 334 333
311 312 309 314 313 312 312 313 313 313 311 311 313 312 313 315 315 315 313 313 313 312 313 313 316 315 314 313 313 313 312 312 314 315 319 318 320 327 330 330 329 330 332 332 331
318 314 309 310 309 313 312 313 313 312 313 312 313 312 313 314 313 315 313 313 313 313 312 312 316 315 315 313 312 313 312 312 312 312 314 315 320 324 326 326 326 326 327 328 329
312 308 314 310 313 314 313 313 313 312 312 312 311 312 313 312 311 311 310 310 311 312 312 313 315 316 315 313 311 312 312 311 312 315 314 313 320 322 323 323 322 323 322 323 324

GFSSW_925_thetae_084.txt.gz
Theta_e
309 309 308 308 309 309 310 310 309 307 305 306 309 309 306 305 305 316 315 314 313 333 342 337 336 344 346 349 351 353 366 365 362 363 364 359 360 354 352 355 352 351 350 344 341
310 310 308 307 308 308 308 308 308 307 306 305 307 311 307 306 317 316 315 310 311 334 337 331 335 344 349 351 354 359 364 360 354 357 361 360 357 354 356 356 355 354 347 343 341
310 310 308 307 309 308 306 308 307 307 306 306 307 312 311 315 320 320 322 309 312 327 331 327 331 342 345 350 354 358 361 355 354 354 356 357 356 352 355 359 356 355 350 344 343
309 308 310 310 307 309 309 308 308 306 306 305 309 308 314 320 321 324 321 310 315 330 329 327 331 339 341 352 353 360 355 352 354 353 353 355 354 355 355 359 353 351 347 344 345
309 308 309 310 309 310 310 309 307 306 306 305 309 310 318 320 318 328 316 312 324 330 328 328 329 330 337 345 348 357 352 348 345 351 352 355 356 357 356 353 350 349 346 345 345
309 308 309 309 311 311 311 309 306 305 305 305 309 315 319 317 325 325 322 326 325 326 324 325 325 328 332 341 347 347 348 344 343 341 353 357 356 355 356 351 350 348 347 345 345
309 311 310 310 311 312 311 309 305 305 305 306 310 319 321 320 328 321 327 325 322 322 324 323 325 329 333 337 339 343 345 348 347 348 355 353 358 361 355 352 351 348 347 346 345
310 310 311 312 311 311 309 309 308 305 304 307 311 322 323 325 325 324 325 323 320 321 322 322 326 331 334 338 340 342 342 347 354 356 355 356 364 362 354 354 353 349 348 348 347
310 310 312 312 312 308 309 316 310 306 306 311 322 324 324 326 324 321 322 322 320 320 320 321 326 330 333 337 341 343 349 343 359 357 356 357 364 358 354 354 355 352 350 349 348
311 312 313 312 310 308 313 316 317 318 320 321 322 325 324 326 324 322 320 320 320 320 320 321 325 329 331 335 342 346 347 341 354 356 355 354 360 361 357 355 356 353 351 350 346
312 313 312 311 308 309 316 317 321 324 319 318 317 320 323 323 323 323 323 320 320 321 322 321 325 326 329 332 339 341 343 343 351 352 346 345 354 362 361 359 356 353 352 350 344
313 311 311 308 310 310 315 318 316 315 319 318 318 318 319 320 322 323 323 325 322 323 323 321 324 324 330 335 337 340 340 337 338 337 335 340 342 358 361 357 358 356 353 350 345
312 311 308 309 312 313 315 315 313 314 319 317 317 318 319 319 322 324 326 326 324 323 323 322 323 326 331 338 336 340 340 336 338 335 341 346 351 352 355 355 354 353 354 351 347
312 309 306 311 313 315 317 314 313 314 319 317 316 319 318 319 321 323 324 328 327 325 323 322 326 327 331 335 335 338 339 335 333 333 346 345 363 359 355 358 357 356 355 354 352
311 308 307 311 316 317 315 313 312 314 321 316 318 316 318 318 318 321 323 327 329 328 325 325 326 331 333 333 333 334 335 336 334 334 332 337 344 356 357 358 359 355 356 355 352
312 312 312 313 313 315 314 315 313 319 319 316 315 316 316 317 320 320 322 321 326 328 327 328 325 332 333 333 333 332 332 333 334 334 335 334 340 346 349 351 349 348 349 354 354
314 313 313 312 318 314 315 318 321 321 318 317 316 316 316 317 319 321 321 323 327 330 329 325 328 324 325 336 333 331 331 334 338 335 334 333 337 347 340 337 344 349 348 346 354
314 314 314 314 314 315 317 321 322 318 319 317 316 315 317 318 320 320 321 324 321 323 328 324 323 322 320 327 333 331 330 331 337 335 333 331 340 336 335 340 345 348 349 348 349
317 317 317 314 313 314 320 321 321 318 317 318 316 315 317 318 320 322 322 321 319 320 327 327 322 318 318 320 322 330 332 328 329 332 332 332 335 333 337 342 345 349 349 352 350
320 320 317 314 313 316 320 319 319 316 316 317 317 318 318 318 319 319 320 319 319 318 319 323 322 319 317 318 321 327 328 329 328 333 334 332 339 338 341 344 345 347 348 350 352
319 321 316 314 314 320 321 319 317 315 315 318 318 318 318 318 319 320 319 318 318 319 319 320 322 320 319 321 323 324 327 327 328 329 332 336 334 334 342 341 343 344 343 345 347
318 320 316 315 320 319 319 318 311 316 316 317 317 318 319 319 320 320 319 318 317 319 319 319 322 322 321 317 317 320 325 327 330 331 330 331 332 334 339 339 340 343 339 338 340
318 318 316 317 319 319 317 316 316 316 317 317 317 317 318 320 321 319 318 315 317 319 321 319 321 323 320 318 318 321 320 322 325 328 330 329 332 334 338 340 340 341 339 334 333
317 317 317 318 317 318 317 316 315 314 315 316 317 317 319 320 320 320 318 315 316 317 316 317 319 323 323 323 321 320 319 319 323 328 330 329 334 336 337 338 340 338 338 335 331
317 315 315 317 316 315 315 315 316 315 314 316 316 316 318 320 320 319 318 317 316 316 317 319 322 320 319 318 318 317 316 317 322 324 328 328 331 334 334 334 335 336 335 336 335
318 316 315 315 316 315 314 315 315 314 315 314 316 315 317 319 319 319 318 319 319 317 318 317 321 319 319 316 316 316 316 315 316 319 322 325 330 329 330 331 331 331 331 332 332
317 314 317 313 317 315 315 314 313 314 313 313 314 315 316 315 315 315 315 316 317 318 318 319 319 320 319 316 315 315 316 315 316 316 319 323 328 327 328 327 327 327 327 327 328

GFSSW_925_thetae_087.txt.gz
Theta_e
312 312 309 309 308 309 311 309 309 307 307 306 307 307 307 306 306 312 315 318 318 315 339 338 341 339 345 349 352 355 367 364 363 365 367 361 360 356 354 355 354 353 347 343 343
312 312 311 309 309 308 308 309 308 308 307 306 306 308 307 308 317 318 318 315 313 326 342 338 337 340 347 350 355 360 366 359 357 359 363 362 357 357 358 357 356 352 344 343 343
311 310 309 310 311 308 308 308 308 307 306 307 305 308 310 313 324 321 318 313 311 334 335 331 333 341 346 351 357 357 361 354 355 356 357 361 358 353 358 361 356 351 346 344 344
309 310 309 310 311 311 309 309 307 307 306 306 305 308 310 320 328 332 321 311 312 332 334 329 331 339 344 347 356 361 355 353 352 353 353 357 354 354 354 359 353 350 345 344 345
310 310 310 310 311 312 312 312 309 306 305 305 306 308 319 323 324 331 318 310 319 333 330 329 330 338 342 343 356 357 355 349 349 352 353 355 358 356 358 354 353 350 345 344 344
312 312 312 312 313 313 313 312 309 306 305 305 307 309 321 322 325 327 321 318 321 330 329 328 330 334 334 340 352 352 353 348 345 348 355 358 357 356 356 353 352 350 346 344 344
313 313 313 313 314 313 313 311 307 305 305 305 308 319 324 323 326 323 321 319 325 329 329 327 326 328 333 338 348 348 350 347 346 349 356 354 358 361 355 353 351 349 346 345 343
311 311 313 314 314 313 310 308 312 307 305 305 310 321 329 325 325 325 325 324 325 326 325 324 325 327 332 337 343 350 349 353 349 355 355 355 368 359 354 353 350 348 346 344 343
312 313 313 313 312 310 307 314 309 307 305 309 322 325 327 326 325 326 325 324 324 324 324 324 325 329 333 338 342 348 353 354 356 355 356 360 367 358 355 354 350 348 347 345 345
313 313 312 311 310 308 312 317 317 316 318 320 323 325 328 325 324 325 324 322 323 324 324 323 327 331 332 340 343 345 348 351 356 356 353 357 364 360 357 355 354 349 348 346 346
313 312 311 310 309 310 316 320 326 326 320 323 320 323 324 324 324 324 322 322 323 324 324 323 326 328 330 332 338 340 343 347 356 351 353 355 358 364 357 357 356 355 351 349 347
312 311 309 309 310 312 316 322 319 318 322 320 318 322 324 325 324 325 324 323 323 325 325 323 325 327 327 330 335 341 342 343 350 349 347 350 356 361 359 357 357 355 352 351 348
311 307 307 311 312 313 319 318 317 317 321 321 318 320 322 325 324 325 324 324 323 324 326 325 325 326 326 330 337 342 343 343 343 341 339 342 357 363 359 358 356 355 353 351 348
311 306 306 311 314 317 319 317 316 317 323 320 317 320 322 322 322 324 325 327 323 324 325 325 326 326 327 334 336 340 339 338 340 343 346 345 354 358 362 360 359 355 355 353 350
312 311 308 311 317 318 319 316 316 318 326 318 318 321 321 321 324 324 325 327 327 324 326 325 326 326 329 334 333 334 339 338 337 339 342 346 359 361 360 364 361 360 357 354 351
313 313 313 315 316 317 316 318 317 320 324 318 319 319 320 321 323 325 326 328 329 329 325 326 325 328 329 331 331 335 337 339 337 337 339 338 347 364 357 356 354 355 356 356 354
314 313 313 316 321 319 318 320 322 324 322 319 318 318 320 320 322 324 326 325 330 331 329 330 327 330 332 333 332 335 337 341 341 339 338 334 343 355 347 348 349 350 351 353 355
316 314 319 318 318 318 320 324 327 324 321 320 317 318 318 320 322 324 324 324 328 330 328 329 330 331 332 335 334 335 335 337 339 338 334 334 347 345 343 347 348 350 351 349 350
316 318 320 319 318 318 323 325 327 322 319 319 317 319 318 320 322 323 324 325 325 326 328 327 327 325 326 330 330 335 334 330 331 334 333 339 342 343 345 347 350 349 352 358 350
320 322 322 319 318 319 324 320 322 319 318 320 319 319 320 320 321 323 324 323 323 323 324 328 327 323 322 324 327 329 332 333 331 335 335 341 344 345 346 349 348 348 351 354 355
319 322 321 319 319 323 326 323 320 317 319 321 320 319 320 321 321 323 323 321 321 323 323 325 327 324 322 324 328 329 331 332 331 332 335 342 344 343 347 347 348 345 343 345 352
321 322 318 318 324 322 323 321 313 319 319 319 320 320 319 319 321 321 321 322 320 321 323 325 325 326 324 324 323 325 329 331 333 333 331 335 343 342 342 345 345 342 339 342 343
320 319 318 320 323 320 318 317 318 319 320 320 320 320 321 320 320 320 320 318 320 322 324 322 324 327 325 323 323 324 326 328 329 330 334 333 344 341 340 343 344 341 339 337 339
320 320 318 319 319 319 319 318 318 317 318 319 319 320 321 322 322 321 321 319 319 318 320 321 323 326 326 326 324 325 325 325 328 331 332 335 344 343 342 344 341 340 337 335 334
319 317 320 321 318 318 318 317 317 317 317 319 320 320 322 322 321 321 321 319 319 319 321 320 322 323 323 320 323 325 324 323 326 328 330 339 342 341 339 341 340 337 337 337 336
320 318 317 318 318 318 315 317 317 316 318 317 319 318 320 324 324 322 321 321 322 321 322 321 323 322 322 319 319 320 319 319 323 325 328 334 339 335 335 335 336 336 335 334 334
318 318 320 315 319 317 316 316 315 315 314 315 316 317 319 319 319 320 321 321 322 323 322 323 322 324 321 320 318 319 320 320 320 322 326 334 336 334 334 332 332 332 331 330 330

GFSSW_925_thetae_090.txt.gz
Theta_e
312 311 311 309 309 311 309 309 309 309 311 308 305 306 308 307 305 311 314 315 317 320 318 326 327 332 341 348 351 354 368 368 364 368 369 360 361 357 354 356 355 353 345 344 343
313 312 311 309 311 309 309 309 309 309 309 308 306 305 308 310 315 316 318 316 317 319 327 331 337 340 343 349 353 360 368 362 359 362 365 360 359 360 360 360 354 346 344 343 343
312 310 311 312 312 313 310 308 310 309 308 307 306 306 308 314 323 322 320 319 315 315 333 337 340 339 346 348 355 361 364 356 357 359 361 359 358 356 360 361 349 347 345 344 343
311 310 310 311 312 312 313 312 310 308 307 306 306 307 308 320 333 328 320 317 312 318 336 337 335 340 345 350 355 362 359 354 355 357 357 359 355 357 357 359 350 345 343 343 343
311 312 313 313 314 315 314 314 311 310 307 305 305 308 318 323 319 329 320 318 312 322 337 336 332 338 343 346 355 356 356 354 354 354 357 355 356 355 359 357 352 345 344 343 343
313 313 313 313 314 314 315 314 311 308 306 305 305 309 319 323 326 328 322 317 316 324 336 333 329 334 341 347 355 354 357 351 351 355 356 358 355 356 356 354 351 346 345 343 342
312 313 314 314 314 315 314 312 306 305 305 305 306 317 323 322 326 326 322 319 319 327 333 329 328 332 335 337 346 356 359 350 348 357 358 356 360 361 356 353 353 348 345 343 342
313 313 314 314 314 313 312 307 311 309 306 305 307 320 326 322 326 324 322 320 320 327 330 328 328 329 331 335 341 353 350 352 348 357 356 356 368 359 354 352 353 347 345 343 342
314 313 314 314 313 310 307 311 311 308 305 305 317 324 324 326 325 325 325 323 324 329 328 326 326 327 329 335 342 349 356 353 352 355 358 359 363 357 355 352 351 348 345 343 343
314 312 311 311 309 308 311 316 309 311 311 317 323 325 324 327 323 326 326 325 326 328 326 325 326 327 329 337 344 347 351 353 356 359 358 361 363 358 356 351 350 348 346 345 344
313 310 309 309 310 310 315 321 325 329 321 322 323 325 327 325 324 326 325 324 325 326 327 326 325 327 329 335 340 342 345 352 351 356 359 362 362 358 356 352 350 349 348 346 345
310 308 308 310 311 310 314 324 320 320 322 322 322 320 324 324 325 324 324 324 324 325 326 325 324 327 329 331 335 340 341 353 350 346 356 362 363 359 358 356 354 353 349 349 346
311 307 308 311 312 312 319 320 317 318 321 324 322 320 326 326 325 325 323 324 324 325 326 326 324 325 327 328 330 335 339 350 352 348 351 358 367 362 358 359 355 352 351 348 348
313 309 307 311 313 319 321 318 317 318 323 324 322 320 323 326 325 324 325 323 324 324 325 326 326 325 327 327 329 333 339 345 351 341 353 353 372 364 363 362 359 356 354 352 349
314 313 311 308 316 317 318 317 317 318 328 321 320 321 322 323 324 324 324 323 327 323 324 326 326 326 326 327 330 334 340 343 344 341 340 343 361 362 344 361 360 358 355 352 349
315 313 313 316 314 319 319 318 318 321 326 320 320 322 323 322 323 325 325 326 327 325 324 326 326 326 328 328 334 335 335 340 341 340 342 345 346 366 355 351 358 356 354 353 352
315 315 313 316 321 320 319 320 322 323 325 323 321 321 322 322 323 325 325 328 330 330 326 326 326 326 327 329 332 333 335 343 342 340 339 342 345 362 351 350 347 360 356 354 353
315 316 316 317 321 320 321 324 331 327 325 324 320 320 321 322 322 326 325 329 328 329 329 326 331 326 328 330 333 332 337 340 342 339 337 336 354 354 344 354 353 353 353 351 349
314 318 319 322 322 319 323 328 330 326 325 321 319 320 320 320 323 325 326 326 326 329 332 328 329 327 331 333 335 332 336 335 336 335 336 345 348 348 352 352 352 353 355 357 353
316 321 324 320 320 321 325 326 325 322 319 320 321 320 321 322 323 325 325 327 326 327 327 329 331 330 329 329 332 333 332 335 336 339 338 348 351 356 354 353 351 351 350 352 353
318 324 323 321 319 325 330 327 320 319 319 323 321 320 321 324 324 328 327 325 324 325 325 327 329 327 326 328 330 331 332 333 334 334 336 348 350 348 353 351 350 349 348 348 346
323 325 320 317 321 324 326 321 314 318 318 318 322 321 321 323 325 326 327 323 321 322 326 327 327 328 325 324 325 329 332 332 335 339 342 353 355 346 348 348 347 345 345 345 341
325 320 318 319 326 325 319 318 319 320 321 319 320 321 321 321 323 324 323 319 320 322 325 325 327 329 327 325 324 326 328 329 331 333 342 341 348 346 347 346 344 342 340 341 341
325 321 319 319 320 320 320 319 318 317 320 321 321 319 321 324 321 322 321 320 320 319 325 324 323 328 329 327 325 325 327 328 329 332 335 345 347 348 346 345 342 340 338 337 338
323 317 321 321 319 319 319 318 318 319 318 320 321 322 322 323 321 324 321 320 320 319 320 321 323 325 327 323 324 324 325 326 327 329 344 347 346 348 344 342 341 339 339 338 338
322 320 318 319 319 319 315 317 318 317 319 318 321 320 321 327 326 324 321 321 320 321 321 321 322 324 324 322 321 324 323 323 324 325 333 342 346 342 340 339 339 338 336 336 335
320 319 322 317 320 318 316 316 316 317 315 317 318 319 322 322 321 322 322 323 324 324 322 322 322 322 325 323 322 321 322 321 322 324 338 344 341 338 339 338 337 335 334 333 331

GFSSW_925_thetae_093.txt.gz
Theta_e
313 312 311 310 310 310 312 309 308 308 308 307 307 306 306 308 307 312 311 311 312 320 319 325 322 322 329 339 348 353 364 368 368 366 369 360 357 356 353 357 348 345 345 345 346
313 313 313 312 310 312 313 312 309 309 307 306 306 306 306 309 316 318 310 312 314 316 319 323 323 325 330 339 347 361 364 366 362 361 364 359 357 357 359 360 358 346 345 343 346
313 312 310 311 312 311 312 313 313 309 308 306 306 306 307 310 324 320 326 314 316 317 319 325 326 330 336 340 355 360 365 359 362 360 357 358 358 356 360 360 349 346 344 343 345
314 314 313 314 313 312 313 315 315 312 308 306 305 305 307 315 332 326 322 315 317 316 317 323 336 339 339 342 358 350 357 358 361 358 356 357 358 360 357 356 348 343 342 343 345
313 313 313 313 314 314 313 314 314 312 309 307 306 305 315 323 319 326 320 317 317 314 319 332 339 335 338 341 358 360 358 355 358 357 357 354 357 359 357 354 354 343 343 341 345
313 313 313 313 314 314 315 314 312 310 308 306 305 307 319 319 328 326 319 317 315 315 323 334 339 330 336 340 353 349 350 355 356 356 356 355 356 354 354 351 353 344 342 340 340
314 315 315 315 315 315 314 313 310 306 306 308 305 315 320 321 329 326 322 318 313 316 329 335 336 328 330 336 347 346 350 355 357 357 355 353 359 359 356 353 345 344 342 340 340
314 313 313 314 313 312 311 308 309 312 309 310 306 319 322 314 322 324 322 320 315 319 328 334 331 326 327 330 347 351 358 362 359 357 356 356 367 359 354 356 347 345 343 342 341
315 314 313 312 311 310 308 309 310 309 310 307 313 320 328 323 323 325 323 320 318 321 324 329 329 325 325 326 328 350 358 360 364 357 357 360 365 358 354 354 351 345 343 341 341
313 312 310 310 310 309 311 312 308 315 314 315 318 323 323 326 325 323 325 321 320 322 326 328 323 323 323 324 331 341 351 354 359 359 353 359 361 358 355 353 350 345 343 341 341
313 309 308 309 310 310 313 320 321 324 323 318 321 327 323 327 323 323 326 325 324 326 326 324 322 323 323 325 328 337 345 353 354 350 355 361 360 359 356 352 348 346 342 341 340
313 308 308 309 310 311 311 319 323 318 319 321 319 321 322 323 323 325 326 323 324 324 324 324 323 324 324 326 328 334 338 358 354 353 354 363 362 358 356 352 348 347 343 343 341
315 312 308 309 311 311 313 319 320 317 317 319 322 322 320 322 324 323 322 322 322 324 324 324 324 325 323 325 328 330 331 353 354 354 356 355 359 361 357 352 352 350 346 343 343
315 313 312 309 313 316 317 319 319 317 317 322 322 323 322 324 325 324 323 322 323 323 323 323 324 324 322 324 325 325 331 342 353 354 357 352 362 351 356 357 354 350 350 347 344
314 315 313 313 310 314 318 317 317 317 325 324 322 321 319 323 325 323 323 322 322 322 322 322 323 324 323 324 324 325 342 347 348 347 357 357 360 361 355 359 356 351 352 348 346
315 313 315 315 316 319 321 320 319 318 326 321 319 320 319 321 323 323 325 323 322 324 321 322 323 323 323 324 324 326 334 341 345 345 347 354 361 362 360 360 359 356 353 350 348
314 314 313 314 318 320 321 319 321 329 326 325 322 321 321 322 321 322 324 322 323 327 327 322 322 323 324 326 325 328 332 335 346 345 345 338 357 358 354 350 352 351 348 352 349
313 313 314 316 317 319 320 323 332 328 325 323 323 322 321 321 321 323 323 322 324 326 326 323 324 324 326 326 327 327 329 332 348 340 337 338 360 354 349 346 351 355 353 350 349
313 316 319 320 321 320 322 330 332 325 324 324 321 320 320 321 321 325 324 323 325 326 330 329 326 325 325 326 325 332 331 328 334 333 334 350 349 346 345 345 351 354 349 350 352
313 317 317 323 323 322 321 325 325 323 322 321 321 320 321 322 325 329 328 324 327 326 327 330 327 327 325 329 332 334 330 330 330 338 342 355 355 357 355 355 354 353 351 348 350
318 320 323 323 322 322 328 326 325 320 320 320 322 321 321 324 327 329 329 328 322 324 322 325 325 329 329 329 331 331 329 330 329 332 341 354 356 353 353 351 351 349 346 344 345
318 325 324 319 324 325 325 325 322 318 318 318 321 321 321 323 326 327 329 326 321 320 324 325 323 327 325 324 328 328 330 329 331 334 341 350 355 348 348 346 345 346 342 341 342
322 323 317 319 326 325 323 321 318 319 319 320 321 322 321 321 326 326 326 323 319 319 322 321 327 329 328 323 322 323 325 324 325 330 340 342 353 349 347 344 342 342 342 339 338
323 326 321 320 321 321 321 319 317 316 319 320 321 319 322 322 322 324 324 321 319 318 325 326 322 330 330 328 322 325 325 325 326 330 340 343 353 349 346 342 340 339 339 338 336
325 318 319 320 318 318 319 319 319 318 319 319 322 322 324 326 326 323 324 320 319 320 320 321 324 323 325 326 321 321 323 324 327 338 338 343 352 348 345 341 339 338 337 336 337
324 322 321 319 320 319 316 317 317 316 318 319 320 320 325 326 325 325 324 323 320 321 321 320 323 321 324 323 321 321 323 324 324 340 339 343 350 343 341 338 339 337 336 336 334
324 322 326 321 322 316 315 316 316 318 316 316 317 321 322 321 319 317 317 318 321 323 322 322 323 322 321 324 323 321 321 321 321 336 342 347 344 341 339 337 336 334 332 329 327

GFSSW_925_thetae_096.txt.gz
Theta_e
313 313 312 311 312 314 314 313 310 308 310 309 306 306 305 306 307 312 312 309 309 326 326 326 325 323 321 328 341 352 364 368 365 364 363 358 356 354 353 348 347 346 348 347 348
315 314 313 313 313 314 315 314 312 310 309 309 307 306 305 307 314 318 309 309 313 317 319 319 323 320 323 330 336 357 364 364 359 358 361 358 356 356 358 353 351 348 347 347 347
315 315 315 315 315 315 315 315 314 313 311 309 307 306 305 308 321 321 323 312 313 315 316 318 323 323 325 330 354 355 364 357 359 358 357 356 357 356 359 356 349 349 348 346 345
315 314 314 314 315 314 315 315 315 315 312 311 307 306 306 313 329 327 322 319 313 315 318 318 321 328 335 340 352 352 349 355 359 358 356 355 354 358 356 356 346 346 346 347 345
313 314 315 315 315 315 315 315 315 314 312 312 310 305 316 320 317 317 321 314 317 317 318 318 328 335 340 343 348 351 350 355 357 355 355 356 358 357 354 351 345 342 345 345 344
315 314 315 315 315 315 315 315 314 313 311 311 309 308 317 310 318 320 320 315 317 315 317 321 336 336 334 347 354 354 357 356 357 356 355 357 357 351 353 352 344 343 345 343 343
314 314 314 314 314 314 313 312 310 310 308 311 312 316 319 315 324 324 318 317 317 313 321 319 330 336 331 328 338 353 355 358 359 356 355 354 359 355 349 351 344 343 341 344 343
314 314 312 312 312 311 310 309 310 312 311 312 310 318 316 311 321 316 322 319 316 313 315 328 331 331 329 325 335 351 355 360 360 356 354 356 365 355 349 354 346 344 341 340 346
315 312 311 310 310 309 310 309 310 309 310 313 313 319 319 321 320 321 322 319 315 314 317 321 326 326 324 324 323 348 359 361 365 356 355 358 362 355 353 354 345 344 341 344 345
314 312 308 309 309 310 315 316 309 317 318 314 317 319 319 324 322 323 322 321 315 316 321 322 324 321 319 320 325 330 354 357 363 360 355 358 361 356 354 355 345 344 340 344 344
314 313 308 309 309 310 311 317 319 322 320 313 317 323 324 322 324 323 323 319 317 321 325 324 320 321 322 321 323 325 329 357 356 357 355 359 361 359 354 354 352 345 340 341 344
314 314 312 309 309 309 310 314 320 316 314 321 318 320 320 320 321 321 323 320 321 324 324 321 321 321 322 323 324 326 334 359 356 353 357 355 362 357 355 353 352 346 340 339 341
314 314 313 312 310 311 313 315 318 318 313 315 319 319 320 318 320 323 322 321 322 323 323 321 323 323 324 324 323 322 325 355 358 349 347 352 359 358 356 353 348 347 342 339 339
314 314 314 313 312 313 313 317 318 316 312 316 318 321 321 318 322 323 322 321 321 321 321 321 322 324 324 324 321 320 324 346 358 355 363 350 361 352 351 355 352 351 349 342 340
313 314 313 314 313 312 320 319 319 313 321 324 321 321 318 322 323 322 323 321 321 321 320 321 322 322 323 322 320 321 325 345 352 349 355 355 352 354 348 357 354 353 350 346 342
313 313 313 314 316 318 318 318 317 314 321 325 320 318 318 319 321 322 321 320 321 321 321 320 320 320 321 322 321 322 342 343 347 344 351 352 358 362 356 356 355 351 349 349 346
314 314 312 313 315 317 317 314 318 323 323 324 322 321 318 318 320 321 323 322 321 323 322 324 322 320 320 321 321 324 325 335 349 348 345 349 358 353 352 353 353 352 350 348 350
313 312 312 313 314 316 317 318 327 327 324 322 322 318 318 318 322 324 321 321 319 321 322 325 326 321 322 321 323 325 325 330 347 341 340 348 357 350 352 353 350 353 353 350 349
315 313 315 316 321 318 316 321 324 325 322 323 319 317 320 321 324 324 325 320 320 321 323 326 323 323 324 324 322 324 329 324 331 330 340 352 350 347 349 351 355 353 348 349 351
316 316 316 316 320 319 316 322 322 323 321 320 320 318 322 324 326 326 328 326 324 322 318 325 326 323 325 324 328 324 327 329 325 335 346 354 353 353 348 354 354 351 349 350 350
317 315 319 322 321 314 320 320 323 322 322 318 320 319 321 325 325 328 329 327 325 322 319 323 322 324 324 326 328 328 328 326 325 327 348 356 357 354 353 354 353 349 347 347 346
316 318 321 321 318 317 321 323 321 317 317 317 320 320 322 324 325 327 329 328 325 323 321 320 319 323 325 321 326 326 327 324 328 331 341 344 358 350 348 348 345 346 344 342 342
316 317 319 321 320 319 320 321 321 317 317 320 321 319 318 322 325 325 327 326 324 317 316 317 319 325 325 319 318 321 324 320 321 328 335 344 356 348 345 345 344 343 341 341 339
317 321 312 309 312 317 321 319 314 314 317 319 320 318 321 320 321 324 325 324 322 317 326 323 316 325 326 321 321 319 320 323 321 334 338 345 353 350 346 345 342 340 339 337 336
318 319 311 312 310 313 312 314 316 317 314 314 319 321 320 323 323 323 322 319 319 319 319 319 319 320 320 321 322 319 319 324 333 332 333 351 351 343 343 342 340 338 337 336 336
319 319 318 314 313 312 310 313 313 313 314 315 319 323 322 323 323 323 320 317 320 319 317 314 322 318 323 320 322 319 320 327 334 338 345 347 350 341 339 337 337 337 337 336 335
322 321 320 321 311 309 310 314 315 316 312 314 318 318 318 318 316 316 315 314 315 319 318 318 316 321 323 322 320 318 318 318 330 338 346 349 346 341 341 339 338 335 332 329 327

GFSSW_925_thetae_099.txt.gz
Theta_e
315 315 313 314 314 314 315 313 314 313 314 314 313 309 306 305 306 310 312 308 308 321 322 325 325 324 322 328 340 352 363 365 363 365 360 356 355 354 352 348 346 347 346 346 348
315 315 315 315 315 315 315 315 314 315 314 313 311 310 306 306 312 317 308 308 309 325 327 328 327 322 320 328 335 352 361 363 358 357 359 357 353 356 353 350 350 348 348 349 349
314 314 314 314 315 315 315 315 314 315 315 314 311 309 306 308 318 313 321 308 312 323 321 320 322 321 324 327 346 356 363 356 356 354 355 356 355 356 351 354 349 351 351 348 348
315 314 314 314 314 315 314 315 315 314 314 314 312 307 307 314 312 325 324 315 312 316 317 318 320 323 328 333 352 354 350 356 357 354 356 356 355 359 353 352 347 348 348 348 348
314 314 314 313 313 314 314 314 314 314 314 313 312 309 315 317 311 312 318 315 310 315 318 316 325 331 335 337 346 350 353 356 357 357 354 354 357 357 353 352 347 346 346 347 347
313 313 313 313 313 313 313 313 313 313 313 312 311 311 316 307 310 323 315 311 315 319 317 318 325 332 337 342 349 352 355 352 358 356 354 355 355 354 354 351 347 347 346 346 345
314 314 313 313 312 312 311 310 309 311 311 313 312 316 318 309 322 322 314 315 317 316 314 317 328 336 334 335 347 355 358 357 359 356 356 353 356 355 351 348 348 347 347 345 344
313 313 311 310 310 310 310 309 310 311 313 316 313 317 312 310 317 319 319 317 316 316 318 318 325 331 334 331 332 356 354 361 361 356 355 354 362 352 350 349 346 346 346 345 342
313 313 309 309 310 309 312 312 310 310 314 316 315 318 313 315 320 320 318 318 315 314 313 321 327 327 326 322 322 339 354 358 363 356 356 356 359 351 350 352 345 345 345 344 346
314 313 310 309 309 310 311 317 315 318 318 315 316 317 317 322 321 318 317 319 314 313 316 319 321 322 317 319 327 329 351 358 362 360 357 358 359 350 351 350 348 343 342 343 348
314 314 313 310 309 309 309 315 316 318 318 312 315 316 321 321 321 321 321 319 317 319 322 322 322 322 322 321 323 325 328 359 358 359 357 359 359 353 352 352 346 342 343 346 346
313 313 313 313 312 311 309 311 317 317 316 317 316 318 319 320 319 322 321 317 318 321 323 319 322 319 321 322 324 326 343 359 355 353 356 358 360 356 354 352 347 345 342 344 345
313 313 313 313 313 312 312 313 315 316 315 313 319 318 318 317 319 319 319 319 320 322 323 323 322 321 323 323 323 322 325 357 359 353 351 355 358 360 356 354 353 346 339 343 343
313 313 313 313 313 313 312 314 316 316 311 316 317 319 319 317 320 321 322 321 320 322 321 321 321 323 323 324 321 321 324 341 355 350 355 348 359 353 354 354 354 349 341 343 342
313 313 313 312 313 312 316 316 317 312 323 321 321 319 317 319 321 322 321 319 320 321 319 321 322 322 323 322 319 321 325 345 350 352 347 350 352 352 347 351 354 350 348 338 341
313 313 312 312 313 315 316 317 314 314 327 324 319 320 317 318 321 320 321 319 319 320 320 319 319 319 320 321 319 323 341 344 342 345 352 348 351 357 352 352 354 352 350 344 340
313 314 313 312 313 316 315 313 318 320 321 323 321 319 318 317 319 321 321 320 319 320 319 321 322 320 319 320 318 321 338 347 350 350 348 345 354 349 351 349 352 352 350 346 342
314 315 313 311 312 313 317 316 325 327 324 320 321 316 318 318 323 322 320 320 320 320 320 323 324 321 319 319 319 319 328 337 346 345 345 348 354 351 350 348 349 349 350 351 347
314 314 313 314 317 316 313 318 320 324 321 321 317 318 320 321 323 325 323 321 320 319 321 323 324 322 320 320 320 323 324 323 332 328 341 350 348 348 352 354 352 351 351 351 349
316 316 316 316 320 316 314 318 321 321 320 319 320 317 322 324 323 325 325 325 324 321 315 320 324 323 323 322 324 321 322 327 323 333 343 352 353 351 356 358 352 349 349 349 350
315 317 318 318 320 313 318 316 322 320 321 319 319 320 321 325 325 326 327 325 324 323 319 320 320 324 322 324 327 328 326 322 322 330 339 350 352 352 346 352 351 350 347 347 347
313 316 318 319 315 313 317 320 320 321 317 317 318 319 322 323 325 326 328 326 324 323 319 318 318 324 324 321 319 325 325 323 325 333 338 345 352 350 350 347 346 344 345 343 344
314 313 319 318 317 313 317 321 321 315 316 319 319 319 319 322 323 324 325 326 323 321 316 317 318 325 324 319 318 317 319 320 320 327 340 345 354 349 347 346 345 344 343 341 340
314 312 309 307 309 314 319 319 313 315 315 315 318 317 318 318 318 323 324 323 321 319 325 318 316 322 322 321 321 318 318 320 321 325 336 343 354 352 349 347 343 342 339 337 336
313 315 312 310 311 309 310 313 315 314 313 313 321 319 318 321 322 323 320 318 319 321 318 316 318 320 321 319 321 318 318 321 323 327 333 345 352 349 345 343 340 338 337 335 334
317 317 316 316 311 310 308 312 312 312 312 315 320 321 322 324 322 322 319 317 320 320 317 312 320 319 324 321 320 318 319 322 337 343 344 347 349 344 341 337 337 337 336 334 333
319 318 317 317 307 308 308 312 315 311 312 316 318 317 317 317 315 314 313 314 314 316 316 319 315 322 324 321 319 320 318 317 336 343 344 347 343 341 340 339 337 335 335 331 329

GFSSW_925_thetae_102.txt.gz
Theta_e
315 315 315 314 315 315 315 315 315 315 316 315 314 311 306 306 306 309 312 308 308 318 321 327 325 323 334 333 340 351 362 364 354 362 358 355 355 353 348 347 347 346 345 345 346
314 314 314 314 314 314 315 315 315 315 315 315 313 312 308 306 311 314 308 307 308 316 323 327 326 321 319 327 334 352 361 359 354 356 356 355 354 353 349 349 349 349 346 348 348
314 314 314 314 314 314 314 314 315 315 315 314 313 311 309 308 316 309 319 308 311 326 324 323 323 319 325 327 341 353 361 357 357 353 352 354 354 352 351 351 348 352 350 348 347
314 314 313 314 313 314 314 314 314 314 314 313 312 311 308 314 308 324 322 308 323 324 322 319 318 322 331 333 349 357 354 352 357 352 354 354 354 353 354 350 348 348 348 348 347
314 314 313 313 313 313 313 313 313 314 313 313 312 311 315 314 309 310 317 311 323 322 317 316 322 327 331 337 347 350 353 356 355 352 354 354 353 353 351 349 348 348 348 348 347
315 314 314 313 312 312 313 311 311 311 311 312 312 314 314 305 313 323 323 309 320 319 316 317 324 332 338 340 346 348 353 352 356 356 354 354 354 349 350 349 349 349 348 347 347
314 314 313 312 311 312 312 312 313 314 313 312 313 316 317 306 315 324 318 310 315 318 314 317 327 333 336 336 344 355 358 356 357 356 356 353 358 358 350 350 349 348 347 347 347
314 313 310 310 310 310 311 311 310 312 313 313 312 317 308 310 316 322 316 317 317 315 317 317 326 331 334 330 333 358 355 359 361 356 354 354 362 356 350 352 350 348 346 347 344
313 313 311 309 309 310 312 315 311 312 314 315 315 316 309 314 319 320 317 316 314 315 313 318 323 328 326 321 323 342 357 358 360 357 356 356 359 354 351 350 349 348 347 346 343
313 313 313 311 310 308 309 316 318 317 317 314 316 316 317 321 320 319 318 316 312 311 315 316 318 320 316 318 326 335 352 356 358 356 358 357 357 352 351 348 349 348 346 344 344
313 313 313 312 312 312 309 315 312 314 317 312 313 315 317 319 319 318 318 317 314 315 318 320 323 326 321 320 322 324 346 359 355 357 355 357 357 351 351 348 349 346 345 344 346
313 313 312 313 312 312 310 310 314 316 316 315 316 316 316 318 319 317 320 317 316 319 320 319 325 322 322 321 325 330 354 360 357 353 356 356 359 352 352 348 348 345 345 346 346
313 313 313 313 312 312 312 313 315 315 313 313 317 317 317 316 318 319 316 316 317 322 323 322 324 320 321 322 322 324 335 356 358 356 354 356 360 356 354 350 346 345 342 343 345
312 313 312 313 312 312 311 315 314 314 311 318 318 319 317 317 319 319 319 320 319 320 321 322 322 321 322 323 323 323 324 353 354 353 358 351 360 359 355 355 353 347 341 343 345
312 312 312 313 311 311 315 315 315 310 322 320 320 318 316 318 319 320 320 319 319 320 319 322 320 322 322 322 319 323 324 349 352 351 347 351 351 350 355 358 354 350 347 342 342
311 312 313 312 311 313 315 315 311 315 326 322 319 319 317 317 320 319 321 318 317 319 318 320 318 319 320 320 319 325 344 341 342 345 352 346 348 350 353 355 354 348 344 340 342
311 313 313 313 311 315 313 313 317 321 320 320 320 318 317 316 319 320 320 320 319 319 319 320 321 319 318 319 318 322 333 345 351 350 351 341 351 345 349 348 352 351 348 339 342
313 314 314 312 312 312 315 314 321 325 322 319 320 315 319 319 323 321 319 319 318 318 318 321 323 321 318 319 318 322 326 339 346 347 345 346 352 348 348 349 348 349 348 342 342
315 315 314 313 313 314 312 317 318 321 320 320 316 318 320 321 322 322 321 319 319 317 319 321 324 321 318 317 318 321 328 328 331 328 346 349 347 346 352 351 351 352 351 347 343
316 315 315 317 317 314 312 316 319 319 320 319 319 317 322 323 323 323 322 323 322 320 315 318 322 321 322 322 323 321 319 326 322 333 343 348 349 348 357 356 352 352 351 349 350
315 313 317 317 316 312 317 314 319 319 321 318 318 322 321 323 324 325 326 322 323 322 315 319 319 322 321 322 325 325 325 320 321 327 339 347 347 347 350 354 352 350 349 348 348
311 316 316 316 315 311 316 317 318 319 318 317 317 319 321 322 325 325 326 323 323 322 317 317 317 323 324 321 319 323 324 321 325 333 335 337 346 348 350 349 349 348 347 346 346
312 312 317 315 315 312 315 320 320 314 314 317 318 318 319 322 321 324 325 324 324 317 314 315 317 324 324 317 319 316 317 319 320 331 340 339 343 349 346 347 345 346 345 343 343
311 311 310 306 306 313 318 318 313 313 314 313 317 316 317 318 317 322 323 322 319 320 325 318 316 321 323 319 318 322 316 320 319 324 334 336 350 354 347 344 345 344 341 340 340
310 314 312 309 308 308 310 312 314 312 311 314 320 319 318 320 320 320 318 316 318 320 317 314 319 319 319 318 320 317 317 318 323 323 335 338 348 348 345 343 342 339 337 337 337
316 315 313 314 309 309 306 311 312 312 312 315 319 317 320 320 320 320 316 314 317 317 315 311 319 318 324 321 318 318 324 320 337 335 343 343 349 341 342 339 340 338 336 336 334
317 316 313 312 305 308 308 312 314 311 312 313 317 317 316 316 314 314 313 311 312 313 317 317 317 319 324 320 321 321 318 324 323 341 343 347 342 341 341 339 338 336 333 333 332

GFSSW_925_thetae_108.txt.gz
Theta_e
314 314 315 315 315 315 314 314 314 314 315 315 312 312 311 308 307 317 314 311 311 315 331 330 331 341 344 350 349 352 364 366 363 360 361 355 356 352 349 350 347 346 344 346 347
315 314 313 313 314 315 315 315 314 313 314 314 313 310 308 310 316 315 313 308 307 317 328 328 330 341 348 351 350 355 363 360 356 355 358 356 354 352 352 351 350 346 345 346 346
315 314 314 313 313 313 313 313 313 313 314 313 313 312 308 311 318 313 321 314 307 318 327 325 326 334 340 343 348 353 361 357 355 354 354 354 352 349 353 354 351 351 349 346 345
314 314 313 313 313 313 312 313 313 313 313 313 312 311 310 318 315 323 316 314 308 326 326 324 327 328 341 345 346 358 355 353 354 352 353 355 350 355 350 350 347 347 346 345 345
315 314 314 313 313 313 313 312 312 310 310 310 311 310 318 320 315 315 317 313 316 326 326 325 325 329 347 345 346 354 355 355 352 352 353 352 353 354 352 348 345 345 344 345 343
313 312 312 313 313 313 313 314 313 312 312 310 309 311 318 319 313 326 323 323 321 322 323 323 324 329 343 345 349 348 354 357 352 353 354 353 351 348 350 346 346 345 345 343 342
312 313 313 311 311 311 312 313 313 312 311 310 311 317 319 319 315 329 324 325 322 322 323 322 323 334 343 346 348 350 357 359 358 355 355 350 352 351 348 347 347 346 345 345 345
312 312 313 312 310 309 309 312 310 310 309 308 312 318 319 312 319 323 322 324 322 321 322 322 326 337 342 336 346 354 357 364 358 356 354 352 358 353 350 348 347 346 345 348 347
312 312 312 312 312 311 308 312 315 309 309 312 319 318 317 313 321 318 318 320 319 318 319 320 326 339 339 337 348 351 355 362 363 356 356 357 358 352 352 349 349 347 346 349 349
311 312 312 312 312 312 311 315 317 316 316 317 318 323 321 319 323 318 316 317 319 319 320 320 329 341 341 339 355 354 358 357 363 360 358 358 360 353 350 352 350 349 347 349 349
310 311 311 311 311 311 315 319 323 326 321 323 321 320 321 321 321 320 318 317 317 318 321 321 327 343 345 338 336 348 352 359 360 358 359 361 360 356 351 352 350 350 349 348 348
310 310 310 311 311 311 313 320 320 319 322 321 320 320 319 320 324 323 318 320 318 317 322 323 325 333 343 336 333 343 349 360 358 356 355 354 360 351 350 350 351 349 348 347 347
309 310 310 312 311 313 316 318 316 317 323 321 320 321 322 320 324 324 321 320 319 319 323 323 324 336 338 333 334 347 350 355 359 356 352 352 355 360 351 350 350 349 348 347 348
309 309 310 312 315 315 318 316 315 316 324 324 323 322 322 323 322 322 322 319 318 320 322 324 326 332 338 334 333 339 340 351 355 356 358 351 363 358 354 351 353 351 350 349 348
309 310 311 312 316 317 317 316 316 317 326 323 323 321 322 324 324 324 321 321 320 320 325 327 327 333 336 337 330 334 332 344 349 349 351 352 356 353 356 357 355 352 349 348 348
310 310 312 314 315 315 315 315 316 323 326 324 322 322 323 324 324 325 323 324 324 322 325 328 329 331 331 331 327 332 336 342 347 348 348 351 355 356 356 359 349 350 350 347 347
312 314 314 314 318 316 315 320 326 326 323 323 323 323 324 325 325 325 325 325 324 325 325 327 328 328 328 331 331 335 343 349 350 350 350 346 352 349 350 352 354 348 349 348 346
315 314 314 315 315 315 318 326 326 323 323 322 322 323 325 325 326 326 326 326 325 324 324 326 328 327 326 328 330 334 340 344 351 350 348 348 353 352 348 350 351 352 349 349 348
315 316 317 318 316 315 324 322 323 323 323 323 322 323 324 325 326 325 326 327 325 324 324 325 326 325 326 325 326 332 336 337 340 342 346 349 349 350 349 351 351 353 352 350 349
321 321 321 317 316 320 322 321 322 322 323 322 324 324 324 325 325 326 325 325 325 324 325 325 326 324 325 324 325 327 331 337 337 342 345 351 348 346 357 355 353 352 353 352 349
321 323 320 319 319 323 322 322 322 321 323 323 323 324 325 326 327 326 326 325 325 325 325 325 325 327 326 325 324 326 327 328 330 334 339 345 347 349 354 353 354 352 352 353 351
322 324 320 318 322 322 321 322 317 319 320 322 323 324 325 325 327 327 325 326 324 326 326 327 327 329 327 326 325 326 326 327 329 334 336 339 351 353 352 353 354 355 353 352 351
326 324 321 319 322 321 322 321 320 319 320 321 322 322 323 325 327 327 326 325 324 323 325 327 327 329 329 329 328 327 327 327 327 328 333 336 338 353 354 354 354 355 354 353 351
324 323 322 324 323 322 321 319 319 318 320 320 321 322 322 324 325 326 325 324 321 325 324 322 326 329 329 330 328 329 327 327 329 331 332 333 338 355 356 356 354 354 354 354 354
324 323 321 320 321 321 320 319 318 318 319 320 322 323 323 324 324 324 324 324 322 323 323 325 328 327 327 327 327 328 327 327 329 329 331 330 333 340 354 354 353 350 349 350 351
327 325 324 322 320 319 315 319 318 317 316 317 324 322 323 325 325 324 324 324 325 323 324 324 329 329 327 326 326 327 331 330 328 329 330 332 335 347 351 350 349 349 348 348 348
322 324 326 315 319 319 319 318 316 315 316 315 318 324 323 322 321 321 319 320 320 323 325 326 327 330 329 327 327 328 330 335 336 337 338 333 345 349 351 348 347 347 347 345 344

GFSSW_925_thetae_111.txt.gz
Theta_e
315 315 314 314 314 314 315 315 315 315 315 314 314 311 309 307 308 317 317 315 315 315 333 331 336 337 343 348 351 353 367 368 364 364 364 355 357 354 351 351 349 347 346 347 345
316 315 314 314 314 314 314 314 314 315 314 314 311 310 308 307 319 320 317 314 310 314 331 331 332 337 345 349 353 356 365 362 358 357 360 356 356 356 355 352 351 348 347 345 345
315 314 313 313 314 314 313 313 313 314 313 313 312 310 307 312 325 320 318 314 308 316 327 328 329 337 345 350 354 353 362 358 358 355 355 355 356 353 354 354 350 351 349 346 344
315 315 313 314 313 313 313 312 312 312 312 312 311 309 307 320 323 324 318 318 307 320 327 327 328 336 335 350 350 357 355 357 356 354 356 354 353 354 353 351 348 348 347 345 344
315 314 313 313 312 312 313 314 313 312 310 310 309 309 318 324 322 323 318 315 313 323 328 328 328 330 337 350 348 355 356 355 353 352 354 353 355 354 352 348 347 347 345 345 343
314 314 314 311 310 311 312 313 312 312 311 310 309 310 320 325 316 324 321 318 316 326 327 327 328 329 340 350 350 353 355 356 353 352 353 354 352 350 349 347 348 346 345 344 342
312 312 313 312 310 309 309 310 310 309 308 307 308 316 323 323 317 327 323 316 317 324 326 326 326 327 342 349 350 351 359 358 354 354 355 349 352 353 347 346 347 345 344 342 341
312 312 312 312 312 312 310 309 312 307 306 306 307 320 326 318 319 328 325 324 322 321 324 323 324 326 341 344 351 354 359 365 358 356 355 351 358 352 348 347 347 345 343 342 344
311 311 312 311 311 312 311 311 315 307 307 309 321 323 323 313 323 324 325 325 322 323 324 324 325 330 344 345 350 355 359 365 363 356 356 356 358 351 350 346 346 345 344 345 347
310 310 311 310 311 311 312 314 318 317 316 319 320 324 322 319 324 320 322 323 321 322 324 323 325 333 345 346 353 355 360 359 364 359 357 358 357 353 351 348 345 345 344 347 347
310 310 310 311 311 311 315 323 327 330 324 326 323 323 322 323 322 322 318 320 321 322 323 322 325 335 344 344 341 347 352 359 357 359 356 357 358 349 353 353 348 346 347 348 347
310 310 310 311 312 311 313 323 321 321 324 323 322 322 322 323 323 323 319 319 319 321 324 323 324 330 340 343 341 339 360 360 359 357 352 355 360 353 352 354 351 349 347 348 347
310 310 310 311 311 313 321 321 320 320 326 323 322 323 322 322 324 323 322 322 320 319 322 325 325 327 337 345 340 340 356 361 363 356 353 352 358 355 350 353 352 347 346 345 347
310 310 310 312 315 320 320 321 320 320 327 325 324 324 324 322 325 324 321 322 322 320 322 325 325 327 335 342 340 341 350 355 358 358 362 352 362 354 354 353 352 351 347 346 347
309 310 311 313 317 320 320 320 320 322 335 325 325 323 325 325 324 323 323 321 321 321 323 324 325 327 336 340 338 340 338 360 354 352 355 355 359 356 351 351 351 352 349 347 347
311 313 314 316 316 318 319 320 322 327 329 325 324 325 325 325 324 323 323 323 326 322 322 326 327 328 332 337 336 336 338 345 349 348 355 353 354 359 359 355 351 351 351 347 348
316 315 314 319 322 320 320 322 330 328 324 324 324 324 325 325 326 326 324 324 326 325 325 328 329 329 331 334 332 335 341 357 360 356 356 351 353 352 353 349 350 351 351 349 348
315 314 316 318 319 318 321 328 327 323 324 323 324 324 327 326 326 326 326 326 325 325 325 326 329 330 329 332 333 337 341 355 358 356 355 347 352 357 346 348 349 348 348 349 348
315 319 321 322 320 320 326 328 326 324 324 324 322 324 327 326 327 327 327 327 326 325 326 325 326 328 328 327 331 334 340 343 348 343 350 353 349 354 350 350 352 351 349 348 350
323 323 323 322 322 323 327 321 323 323 324 323 326 326 327 325 325 326 326 328 328 325 326 328 328 327 327 327 327 328 333 338 342 346 349 355 355 348 355 354 353 353 350 349 349
322 326 323 322 322 327 325 322 321 321 323 324 324 324 325 326 326 329 328 327 325 326 325 326 327 327 326 327 327 327 329 333 335 338 343 349 355 351 355 353 353 352 353 351 350
326 327 322 322 327 323 323 322 317 320 322 323 323 324 325 325 326 326 328 327 325 326 326 325 327 327 328 327 326 326 327 328 331 336 335 335 349 343 351 352 352 352 351 352 351
329 323 321 323 327 323 321 320 320 321 321 321 324 323 324 325 326 328 327 326 325 325 328 328 326 330 328 327 326 324 326 327 327 329 331 334 350 352 353 354 353 353 353 353 354
327 325 323 323 322 324 322 321 321 318 320 320 321 323 324 324 325 328 326 325 324 326 328 326 326 330 331 333 331 329 326 328 327 328 329 330 355 356 356 357 358 356 354 354 355
326 325 323 323 321 321 321 321 319 320 319 320 323 324 324 326 325 324 325 326 324 326 326 326 328 327 328 329 332 330 327 326 328 329 331 330 332 348 354 356 356 355 356 357 358
329 325 321 322 321 321 315 319 318 318 316 319 324 323 324 327 328 328 325 325 326 325 326 325 327 327 331 328 329 329 329 328 327 327 328 330 331 341 352 355 355 355 355 355 354
326 326 327 319 321 321 321 320 318 315 316 316 320 324 324 325 324 324 323 324 325 326 326 327 327 331 331 327 327 330 328 329 329 328 328 332 345 339 357 354 353 351 351 351 351

GFSSW_925_thetae_114.txt.gz
Theta_e
317 316 315 315 314 314 315 316 316 315 315 315 314 312 309 308 307 314 317 316 317 316 317 327 329 336 340 347 350 353 367 368 363 361 361 360 357 354 350 351 346 346 344 344 344
316 316 316 314 315 314 314 314 314 315 315 314 313 310 309 308 317 320 320 319 315 315 324 332 335 338 340 346 352 359 365 364 358 358 359 359 358 355 353 351 349 347 345 343 343
317 317 314 314 313 313 313 313 313 312 313 313 312 308 308 309 325 324 323 319 314 311 323 331 332 334 341 346 353 356 364 359 358 357 357 360 354 351 351 352 350 351 346 345 342
316 313 313 313 313 312 313 313 313 312 311 310 309 307 307 317 328 325 318 316 313 311 322 329 330 334 342 346 351 358 355 357 357 355 358 359 355 354 351 352 347 347 345 344 342
312 312 312 311 311 311 312 313 312 312 312 310 308 308 317 324 324 325 320 318 314 312 323 330 330 332 339 343 349 356 357 357 354 355 355 354 355 356 353 350 347 347 345 342 342
312 312 312 312 311 310 309 310 312 310 311 310 309 309 318 327 321 325 325 325 313 315 324 329 330 331 333 341 352 355 357 356 354 354 354 355 352 352 351 346 347 347 345 342 341
311 311 312 312 312 312 312 309 310 310 307 306 307 316 322 324 320 319 324 320 315 316 327 329 328 330 332 347 351 355 360 356 354 354 355 350 350 353 346 346 347 346 344 342 341
310 310 311 311 311 311 312 312 311 313 306 306 307 318 327 321 321 325 327 318 317 321 327 327 327 327 329 344 351 356 359 365 356 355 354 353 358 353 346 347 347 345 343 342 342
310 310 310 310 310 310 311 311 315 312 306 308 319 322 327 317 318 325 326 323 321 321 324 325 326 326 329 339 352 358 364 365 362 354 356 355 358 350 350 346 346 345 343 341 344
310 310 310 310 310 311 311 315 318 312 317 320 321 325 325 321 322 324 325 325 323 324 326 326 325 328 331 344 352 357 360 361 364 359 358 358 359 347 350 351 345 345 342 344 345
310 310 310 310 311 311 311 321 327 328 326 327 326 325 323 322 323 321 323 325 323 324 326 326 326 327 332 344 345 346 354 361 357 356 355 353 353 353 352 352 350 346 344 348 346
310 310 310 310 311 311 312 324 322 322 325 327 323 322 322 324 323 323 320 322 321 323 324 324 324 326 331 341 345 346 353 360 359 355 353 352 355 353 351 353 352 347 347 347 346
310 310 310 310 312 312 319 322 322 322 326 324 323 322 322 324 324 324 320 321 320 321 324 326 324 325 329 339 345 348 350 358 360 356 352 351 355 351 347 350 351 351 347 347 349
310 310 310 311 316 322 322 322 322 323 330 326 324 324 323 322 325 323 322 323 323 320 321 324 327 326 327 339 345 347 355 355 359 357 361 352 360 354 349 351 352 353 349 349 347
311 311 313 314 316 319 321 321 322 324 337 326 325 324 325 324 325 324 321 323 322 322 321 322 325 326 326 331 344 343 346 357 355 358 356 357 359 358 349 351 353 352 349 349 349
314 317 317 317 314 315 320 322 323 331 333 325 325 325 324 326 325 324 322 323 322 323 322 323 326 326 327 334 338 339 349 347 350 356 364 356 356 356 356 351 349 351 350 349 345
318 317 315 318 325 322 322 324 330 333 324 326 326 325 326 326 326 325 323 322 326 323 323 323 327 328 328 331 338 338 343 359 362 365 363 354 357 354 353 351 347 348 349 348 346
317 313 320 312 322 322 323 328 334 325 324 322 323 327 329 327 326 325 324 324 325 325 325 325 328 329 329 332 338 335 337 350 357 360 359 354 357 357 348 347 347 346 346 349 348
315 317 322 323 320 322 325 331 330 325 323 325 323 326 328 327 328 326 326 326 325 326 326 328 324 328 330 331 332 334 337 338 349 354 356 355 355 348 349 347 346 348 349 350 350
319 326 325 321 323 324 328 323 323 322 323 324 327 327 330 328 325 327 330 328 329 326 326 328 330 327 329 328 328 331 332 336 347 356 354 359 359 363 353 351 351 350 351 350 348
321 328 324 321 323 326 330 323 321 320 322 324 325 325 327 328 327 328 330 328 328 327 326 327 328 328 328 328 328 327 329 331 333 343 354 354 355 353 354 348 355 352 351 349 345
325 329 322 323 327 328 325 322 316 321 323 323 322 324 326 327 328 329 330 329 326 325 327 326 327 329 329 327 327 327 327 327 330 337 337 342 342 344 350 352 352 354 351 352 349
326 329 321 324 329 327 322 321 321 321 321 321 324 324 324 325 327 330 330 327 325 324 328 329 328 327 329 328 329 327 327 327 327 329 335 333 351 347 348 352 352 352 353 352 351
327 328 324 324 324 325 323 323 321 320 319 319 321 323 324 325 324 326 328 327 324 325 329 325 328 329 331 333 333 334 333 325 326 327 328 329 347 344 344 355 353 355 354 352 351
325 328 326 324 323 323 323 323 320 321 321 320 324 323 325 328 328 327 327 327 326 330 324 324 327 327 327 329 330 331 333 332 326 329 329 329 346 349 350 354 356 355 356 355 356
328 331 329 323 324 322 317 320 319 319 318 320 321 324 323 326 329 328 328 327 328 328 328 326 327 326 327 327 331 330 331 332 329 326 327 329 331 343 351 339 340 357 359 361 356
326 327 328 325 321 321 322 322 320 317 319 316 318 322 326 326 324 325 325 324 327 330 330 329 330 332 332 329 330 330 331 331 331 328 330 331 353 346 341 337 337 354 357 357 354

GFSSW_925_thetae_117.txt.gz
Theta_e
317 317 316 315 314 314 313 314 315 315 315 315 314 312 310 307 309 314 317 313 315 314 315 325 323 325 330 336 351 353 360 366 361 359 359 356 357 351 348 346 344 343 346 346 344
318 317 315 314 314 314 314 314 313 313 314 314 314 311 309 309 313 318 316 316 316 316 316 325 327 328 333 340 349 359 359 362 358 352 359 359 356 353 352 350 346 344 346 342 347
314 314 313 312 313 313 313 313 312 313 312 310 310 309 309 310 321 325 324 317 319 318 314 324 331 334 336 338 351 356 362 359 359 352 354 358 356 348 352 353 345 345 344 344 345
313 313 312 311 311 310 310 312 313 311 312 310 308 307 307 315 329 324 318 322 319 315 313 318 327 330 332 339 350 358 357 357 359 356 356 358 357 353 352 349 346 343 342 340 338
311 312 312 312 311 310 310 309 310 311 310 310 308 308 315 322 321 323 320 320 317 311 313 321 327 329 331 341 353 357 359 357 356 355 354 354 357 356 355 348 345 343 342 339 338
311 311 311 311 312 312 312 312 309 311 308 308 308 308 317 321 325 325 326 319 317 314 314 320 328 328 329 338 354 356 359 356 355 355 353 353 356 353 350 347 346 344 341 339 338
310 310 310 310 310 310 311 312 311 312 308 306 307 316 318 322 322 324 325 323 318 312 315 322 327 327 328 342 352 356 361 356 355 355 356 350 356 353 348 348 347 344 340 341 338
310 310 310 310 310 310 310 311 311 315 308 305 306 317 321 323 322 321 323 320 318 314 315 323 328 326 326 346 355 360 357 363 357 355 353 354 357 353 347 348 346 345 342 341 341
310 310 310 310 310 310 311 311 313 314 307 307 317 318 326 321 318 320 323 319 316 317 317 323 326 325 325 327 353 354 361 361 357 354 354 354 356 352 349 347 345 343 341 341 341
310 310 310 310 310 310 311 313 320 317 321 318 319 322 324 325 319 319 325 324 317 318 320 323 322 322 322 326 343 357 361 358 361 356 355 355 354 349 349 351 344 342 341 340 342
310 310 310 310 310 311 311 317 324 325 324 327 325 325 323 324 323 323 324 325 322 321 321 323 323 322 323 327 330 350 358 360 358 355 354 356 352 349 347 351 352 345 340 342 342
310 310 310 310 310 311 310 318 323 321 321 325 327 323 322 323 324 321 323 324 322 321 323 324 323 324 325 340 345 348 357 359 356 353 353 353 352 349 350 349 352 352 344 344 343
310 310 310 310 311 313 314 319 321 322 322 326 326 321 321 322 322 321 318 320 320 320 321 321 322 324 324 331 347 350 354 357 359 355 351 350 353 353 350 347 348 349 349 345 345
310 311 312 313 315 318 318 323 322 322 325 327 322 323 322 321 324 323 319 320 319 319 319 321 323 324 323 324 337 355 354 355 358 356 361 351 360 354 350 350 347 349 350 344 344
312 315 317 317 316 316 318 320 322 322 338 327 324 324 324 321 324 322 321 320 321 320 318 318 321 322 324 325 345 354 351 353 351 353 356 354 359 355 351 351 349 348 350 349 344
313 316 317 317 316 315 318 321 322 327 334 326 324 324 324 323 325 323 321 320 321 320 321 319 321 323 324 329 342 350 354 351 352 356 360 355 358 358 354 350 348 347 348 349 346
314 316 314 318 324 321 322 321 328 333 326 326 325 324 325 326 325 322 322 321 320 323 322 320 320 323 325 340 342 346 348 354 358 362 364 355 358 357 350 346 345 346 347 349 347
316 315 313 313 314 320 322 325 335 328 323 322 323 326 328 327 327 325 322 321 320 322 321 321 321 326 327 327 341 347 346 352 356 361 361 351 362 355 345 344 342 344 343 347 347
317 319 318 319 319 317 323 329 332 324 322 324 327 328 328 328 327 325 323 322 321 321 326 325 325 325 327 327 331 336 334 330 350 350 355 356 352 348 345 349 342 344 346 347 346
319 321 324 326 324 321 326 329 321 320 321 323 327 328 329 328 327 329 329 329 328 327 323 325 328 326 327 327 327 329 329 339 346 356 356 359 352 353 350 349 348 344 346 347 348
320 323 327 327 323 325 328 327 321 319 320 322 323 327 327 328 327 330 330 330 327 326 325 324 326 326 327 327 326 324 324 325 334 343 353 353 357 350 349 351 351 349 344 345 348
325 328 327 321 325 326 327 321 316 320 322 322 322 323 326 326 329 331 331 330 326 324 327 325 324 323 324 326 325 325 325 323 323 326 339 345 346 347 346 350 349 350 348 344 347
325 324 326 321 327 327 323 321 320 320 319 320 321 322 324 323 332 331 331 328 326 326 325 324 327 326 326 329 330 330 328 325 322 320 324 331 348 347 348 343 339 346 350 347 344
325 330 326 324 325 323 325 324 321 320 317 319 321 322 325 326 326 331 330 327 324 325 331 324 324 327 328 331 330 333 330 330 329 321 324 324 349 345 344 347 346 349 349 348 347
327 327 328 330 326 323 323 322 321 321 320 319 324 324 324 327 329 330 329 327 327 327 325 322 324 326 324 327 328 329 330 330 331 341 333 336 344 349 350 351 347 353 349 350 350
326 330 328 329 325 324 318 322 320 318 318 317 320 324 322 326 327 326 325 328 329 328 329 325 328 329 330 329 331 330 333 332 339 341 342 341 354 349 349 342 344 343 355 351 353
327 328 331 330 327 322 322 323 319 319 319 317 317 319 326 326 325 322 320 320 326 329 329 327 329 331 330 330 331 335 333 333 336 339 340 353 348 339 340 341 339 342 354 354 349

GFSSW_925_thetae_120.txt.gz
Theta_e
317 316 315 314 314 313 314 314 313 313 314 315 314 311 309 306 307 312 314 312 311 314 315 316 326 323 321 328 336 354 359 362 357 358 359 356 352 349 343 345 346 346 347 346 347
312 313 313 313 313 313 313 313 313 313 313 312 311 310 307 308 312 316 317 316 312 315 317 315 328 322 326 333 342 355 356 358 351 351 357 358 356 348 347 345 346 347 344 346 346
312 312 311 310 310 310 310 311 313 313 312 311 309 306 307 310 319 321 324 321 313 317 316 316 319 328 331 334 346 356 359 360 351 350 355 354 354 349 350 351 349 349 347 346 347
311 311 311 311 311 311 311 310 310 311 311 311 310 307 307 314 327 325 318 320 317 319 316 313 319 326 330 333 341 360 357 358 358 354 353 357 353 354 353 349 346 345 346 346 346
310 310 310 311 310 310 311 312 311 310 310 308 308 307 316 320 318 322 320 319 317 318 312 313 321 326 330 335 352 357 358 357 356 354 352 350 354 357 355 350 346 343 345 345 344
310 310 310 310 310 310 310 310 311 310 311 306 307 310 317 317 320 322 320 321 319 311 311 313 322 326 327 330 351 357 356 355 354 351 349 351 352 353 353 347 343 343 340 342 345
310 310 310 310 309 310 310 310 310 311 313 306 306 316 317 317 323 326 324 319 317 316 311 312 317 323 324 340 352 356 359 356 355 352 349 349 354 355 350 345 345 340 338 337 343
310 310 310 310 310 310 310 310 311 314 313 306 307 317 315 318 323 322 323 323 319 313 311 314 320 322 325 345 352 356 355 360 356 354 353 352 357 354 348 347 346 340 339 340 346
310 310 310 310 310 310 310 311 312 316 308 307 318 317 323 324 321 321 321 319 318 316 312 314 318 322 324 338 347 348 354 361 358 354 354 354 356 350 349 349 343 340 339 344 346
310 310 310 310 310 310 310 311 318 319 320 319 319 319 320 324 320 318 319 320 314 313 315 316 318 321 318 320 327 353 357 357 358 355 354 356 356 349 345 350 348 341 340 343 343
310 310 310 310 310 310 311 313 317 320 321 323 322 322 323 322 321 321 323 322 315 316 317 319 320 320 321 321 331 353 356 357 355 353 352 354 356 352 346 348 351 350 339 342 342
310 310 310 310 311 312 312 314 317 320 318 321 324 324 324 323 323 321 321 322 319 319 319 320 321 320 321 323 334 352 354 357 355 352 353 354 354 351 348 349 350 351 349 341 340
310 311 314 314 315 316 316 318 321 319 318 321 323 324 321 320 322 320 319 319 320 319 321 320 322 323 324 323 342 349 351 355 357 354 350 352 353 351 348 349 347 348 348 342 343
311 313 316 317 315 317 314 320 318 318 320 325 321 322 320 320 320 321 318 318 318 318 317 319 321 322 324 324 344 354 351 353 356 356 360 350 359 352 350 351 349 348 348 348 344
311 313 316 317 315 313 316 321 322 318 331 327 323 322 319 319 320 318 318 317 317 318 316 316 318 320 322 322 344 353 350 353 353 352 354 353 357 351 351 352 350 349 349 348 345
311 314 315 316 316 317 320 321 320 323 334 327 322 322 322 321 321 321 319 318 319 319 317 316 317 318 323 334 343 348 349 350 351 351 355 354 356 354 352 350 349 348 348 347 346
313 316 314 316 321 323 318 317 323 331 325 323 323 321 322 324 324 321 321 318 318 320 319 317 318 328 347 350 348 348 347 354 357 358 358 354 358 353 350 346 346 347 347 346 345
317 316 315 313 314 313 318 320 331 327 319 322 324 325 327 326 326 322 320 319 319 318 318 320 318 324 336 344 344 345 340 346 350 358 358 352 357 350 346 341 343 343 346 346 348
319 318 320 322 320 316 316 323 328 318 317 320 324 326 327 327 326 323 319 319 320 317 320 321 324 324 325 332 338 341 344 338 344 347 352 355 352 349 345 347 344 344 346 346 349
321 319 320 322 324 318 319 324 324 317 317 319 322 325 326 325 325 327 327 326 324 323 318 323 325 324 324 326 335 331 330 338 342 351 353 357 352 352 345 349 343 344 344 342 345
323 316 322 324 323 316 321 322 323 317 319 320 320 322 322 326 328 330 329 329 325 324 321 320 321 323 322 324 323 322 322 321 331 339 350 357 355 346 345 348 346 343 343 340 342
319 318 324 323 317 315 319 322 318 316 316 316 318 320 321 327 329 328 330 328 326 323 323 322 319 323 322 321 326 321 322 317 319 322 338 341 344 342 341 348 346 345 341 339 341
314 318 320 322 318 318 319 321 317 318 316 316 319 318 319 322 327 329 328 328 324 322 322 321 321 324 323 324 325 329 328 326 318 315 321 333 327 344 342 346 346 346 346 342 342
316 323 318 313 314 322 320 320 317 318 317 317 317 318 321 323 324 327 328 326 325 323 336 321 317 323 323 325 326 327 328 329 327 336 335 325 326 349 346 346 345 345 347 346 342
316 320 319 325 325 323 317 319 319 318 316 314 319 320 320 322 324 325 324 323 325 328 325 318 321 325 325 328 331 332 334 337 339 340 345 346 347 345 346 347 348 348 350 348 347
315 323 323 325 322 317 315 318 315 315 314 314 314 317 322 323 321 321 319 324 325 324 325 319 321 326 328 328 331 333 334 338 338 341 342 348 348 340 341 341 346 350 350 352 349
320 323 323 325 324 321 317 315 316 317 317 314 314 314 320 319 320 319 318 315 318 323 322 321 321 324 327 327 328 334 332 337 338 344 345 351 348 337 334 338 338 344 344 348 347

GFSSW_925_thetae_123.txt.gz
Theta_e
314 313 312 312 314 314 315 316 316 316 315 313 311 310 308 306 306 311 312 314 310 316 317 317 325 323 320 324 339 351 359 362 358 359 357 355 353 346 345 349 346 347 347 346 346
312 312 311 311 312 312 312 312 315 316 314 313 311 308 305 307 312 315 312 316 313 312 314 315 326 321 323 327 333 354 355 359 353 353 358 357 352 347 349 348 350 348 345 346 345
310 311 311 311 311 311 312 312 312 313 313 312 311 309 307 309 318 316 322 315 313 315 316 315 316 325 326 330 341 354 358 355 350 349 354 356 351 345 349 350 349 350 348 346 346
310 310 310 310 310 309 310 310 311 311 310 309 308 307 309 314 323 324 320 321 316 316 315 313 317 325 330 333 333 358 358 355 352 349 353 354 352 353 351 349 346 347 346 346 346
310 310 309 309 309 309 309 310 310 311 311 307 306 308 315 317 314 319 320 320 316 318 314 313 321 326 329 330 345 354 358 357 354 350 352 352 355 355 352 350 345 346 346 346 346
310 310 310 310 309 309 309 310 310 311 313 306 306 314 317 313 317 322 320 317 318 318 312 312 319 323 326 327 349 355 356 354 351 352 351 352 350 353 353 351 347 347 347 346 346
310 310 310 310 310 310 309 310 310 311 314 306 307 316 316 312 323 322 320 320 318 317 309 311 316 320 323 335 351 353 357 354 354 351 351 347 350 353 351 350 348 348 346 345 344
310 310 310 310 310 310 309 309 311 312 313 306 309 317 314 315 323 322 319 324 320 315 314 314 314 320 324 340 348 354 352 359 355 353 350 353 356 352 350 349 346 347 345 344 345
310 310 310 310 310 310 310 310 312 315 308 308 318 317 320 323 322 322 322 322 320 317 312 311 317 318 323 340 342 346 352 360 358 351 350 354 358 350 348 346 346 342 340 343 347
310 310 310 310 310 310 310 311 320 318 319 319 318 318 319 322 322 317 320 320 315 313 313 313 315 318 317 318 325 348 358 358 358 350 347 351 355 350 347 350 344 341 342 343 346
310 310 310 312 311 311 312 312 313 315 322 320 319 321 321 322 320 318 318 318 315 315 314 317 318 320 321 319 331 349 355 358 354 349 349 351 353 351 348 349 351 350 343 346 346
310 311 313 315 315 314 314 311 315 318 317 318 321 321 323 324 322 320 322 322 316 315 317 316 320 320 319 320 338 350 357 357 354 351 352 353 354 351 350 348 349 349 346 345 345
310 311 313 316 316 315 316 317 317 317 317 318 320 323 323 320 320 321 319 320 319 318 319 318 321 321 322 324 346 348 353 354 356 353 351 353 352 351 349 348 348 346 346 342 344
310 311 314 315 315 316 313 315 317 317 319 323 321 322 319 318 319 320 319 318 317 319 317 319 319 322 322 323 335 348 350 352 353 356 360 351 358 352 350 350 349 347 347 341 345
310 311 315 313 314 312 313 318 318 317 326 325 322 320 318 318 320 320 317 316 317 317 315 317 318 319 320 322 335 349 348 352 352 352 354 353 357 350 349 350 350 347 348 345 345
310 316 315 314 314 315 319 318 318 322 327 327 321 322 322 320 320 319 318 317 317 317 316 317 316 316 319 330 337 347 346 348 349 349 349 354 354 354 352 349 348 347 347 347 345
314 318 315 313 318 320 314 316 323 326 323 322 322 321 321 322 322 319 319 318 316 319 319 318 318 342 344 349 346 343 344 348 350 354 350 351 357 353 348 347 347 348 346 347 345
318 317 316 316 316 314 316 320 327 326 318 319 323 324 326 325 325 321 319 318 318 318 318 320 320 345 341 344 348 345 338 345 348 353 355 351 359 347 342 344 343 344 344 347 346
316 318 317 320 321 316 316 322 326 320 316 319 322 324 324 324 326 322 319 318 320 316 318 321 323 322 340 338 342 344 342 335 345 345 349 353 351 344 343 344 342 342 345 347 347
316 320 318 319 321 319 317 322 323 319 316 318 321 324 325 323 326 326 327 326 324 322 315 321 325 323 326 336 337 336 335 339 341 350 352 353 352 349 345 344 345 344 347 347 346
320 316 320 321 321 314 319 319 323 321 317 318 318 320 321 326 327 328 329 327 325 323 320 320 319 322 321 323 335 322 323 323 330 338 346 352 348 342 342 345 345 345 346 346 346
313 314 321 321 319 311 316 319 319 316 315 316 317 319 320 326 327 327 328 328 325 321 321 320 317 324 323 320 323 323 324 317 318 321 334 341 337 342 339 345 342 342 344 345 345
311 314 320 318 318 315 316 319 320 316 315 316 316 318 319 321 325 327 326 326 322 321 321 320 321 325 328 326 324 325 325 321 314 314 323 328 326 343 343 344 342 341 342 342 343
313 316 315 312 312 318 321 320 318 316 315 314 319 318 319 322 320 327 324 325 324 327 328 320 317 323 322 323 325 335 336 334 327 333 332 329 345 344 347 347 346 346 343 339 339
312 316 316 323 323 324 319 318 317 316 314 313 315 322 319 323 319 320 319 321 323 326 323 317 322 325 324 330 332 336 337 338 337 339 345 347 344 341 342 346 349 349 350 347 342
310 320 321 323 322 321 314 318 315 314 313 313 317 322 320 322 321 321 319 320 321 321 322 316 319 324 328 330 332 334 335 338 340 345 348 345 345 336 336 344 344 344 349 347 345
315 318 321 323 324 324 324 324 314 315 316 312 314 318 317 317 318 317 316 316 321 322 319 319 318 321 326 325 327 331 331 337 339 341 344 344 344 340 345 346 342 343 344 345 345